GFSMW_con_sbcape_000.txt.gz
CAPE
905 1102 1374 1495 1585 1791 2214 2531 2404 2499 2770 2717 1700 1770 1565 1692 2022 1698 2403 2264 2110 2002 1944 1498 1625 1543 1471 929 599 316 201 15 78 14 26 188 168 113 34 5 0 0 1
882 1244 1506 1465 1519 1897 2353 2709 2797 2764 2850 2203 2455 2011 2302 1637 1853 2000 2133 2225 2172 2225 1957 1896 1695 1598 507 746 340 213 46 23 48 92 19 25 220 190 48 2 0 0 0
1003 1109 1289 1478 1509 1799 2391 2711 3051 3125 3074 2937 2392 2563 2432 2432 2066 2162 2422 2735 2589 2518 2404 2224 1528 1357 371 3 156 126 31 14 338 348 61 19 24 22 83 89 0 0 0
1145 1134 1116 1339 1441 1650 2042 2751 3175 3423 3242 3210 2972 3586 2291 1787 1374 1730 1392 2066 2650 2451 2323 2147 1652 429 1 60 119 26 55 193 27 27 48 217 283 39 38 50 16 0 0
917 1095 1105 1068 1384 1511 1821 2351 3201 3734 3739 3377 3616 3150 3030 1792 1436 1512 1999 2359 2313 2490 1703 2200 875 346 126 314 151 61 140 62 28 20 37 68 22 12 9 11 21 21 15
429 785 935 975 1190 1371 1620 1952 3177 4089 3741 3649 3587 3540 2895 2635 1537 2020 1643 1139 1138 1795 1916 2061 936 294 48 281 172 34 99 86 61 65 134 23 19 25 15 10 10 15 14
399 540 828 969 1161 1369 1554 1877 2763 3653 3554 3555 3414 3484 3487 3195 2942 2632 1877 1083 763 807 1413 2095 1016 327 414 216 40 62 22 65 45 120 48 49 51 56 45 41 35 40 44
377 468 697 911 1221 1316 1583 1885 2503 3566 3371 3320 3724 4274 4043 3270 3059 2946 1892 1295 795 386 610 1821 857 436 298 231 33 2 10 29 36 58 153 58 63 58 67 55 74 55 42
576 359 633 864 1136 1381 1895 2553 3278 3059 3142 3067 3414 3770 3982 3634 2993 2841 2783 1785 1467 432 1064 1139 729 271 366 93 45 2 9 8 12 12 67 156 43 52 70 98 106 68 28
662 418 549 774 1043 1312 1606 2027 2541 3149 2886 2865 3048 3152 3331 3535 3331 3158 3231 2256 1888 1403 918 741 323 286 244 94 143 25 11 10 0 0 7 73 50 77 94 95 96 63 30
762 705 518 618 1031 1135 1396 1873 2296 2623 2859 2836 3425 3246 2941 3050 3370 3304 3428 3017 2210 1396 947 789 263 277 232 175 235 186 9 22 4 3 97 264 431 149 84 80 60 85 84
733 909 808 791 912 1251 1216 1541 1939 2382 2695 3304 3540 2997 2913 2889 3140 3390 3058 2317 1729 973 1038 534 397 305 173 196 298 185 10 24 0 47 235 396 271 356 447 185 254 204 181
767 1079 1076 1174 1208 1242 1862 1606 1984 2181 2361 2767 2902 2891 2837 2930 3067 2819 1697 1671 863 649 360 432 663 738 695 276 358 399 294 113 64 187 312 363 375 370 265 256 142 149 142
903 1224 1254 1514 1578 1941 2671 2728 2039 2192 2382 2483 2869 3034 2839 2752 2734 2004 427 263 240 325 199 430 274 272 535 553 512 410 401 188 136 321 439 586 599 559 438 263 450 380 242
967 1321 1500 2493 2777 2740 2870 2583 2360 2402 2460 2670 2713 3018 3048 2663 1991 1267 321 165 152 438 7 33 0 13 629 317 735 355 259 290 394 499 642 769 865 409 345 226 402 331 225
1103 1419 1670 1938 2312 2362 2491 2564 2594 2495 2641 2819 2892 3026 3421 2400 1304 960 778 897 745 392 32 2 10 32 155 24 19 158 321 432 656 831 921 998 853 499 189 65 36 71 148
1135 1298 1635 1849 2315 2444 2685 2635 2645 2599 2681 2893 3024 3223 3019 1968 1223 889 856 794 568 327 197 134 133 62 329 58 29 40 242 412 797 1065 950 722 439 328 575 159 20 12 0
1149 1281 1389 1751 2013 1974 2102 2180 2333 2541 2734 2980 2999 3004 2649 1727 1612 1240 1160 911 461 227 364 304 191 167 253 251 0 2 449 905 1094 824 526 548 401 403 624 504 271 220 221
1355 1392 1329 1605 1842 1565 1804 1903 2096 2360 2557 2764 2824 2508 2075 1479 1216 1242 1149 1114 838 562 644 657 555 552 646 0 0 0 474 859 891 593 320 245 416 89 0 93 154 268 238
984 1177 1086 1399 1362 1377 1506 1874 2058 2385 2624 2728 2656 2085 1747 1680 1367 1426 1312 1146 1160 826 471 598 664 330 1108 0 0 0 435 745 518 420 222 5 29 0 0 24 132 153 149
1164 1246 1161 1102 1333 1373 1626 1856 2080 2341 2514 2695 2494 1929 1905 2116 2034 1818 1347 1103 959 855 931 781 1051 796 369 638 0 0 549 224 217 349 845 330 0 0 0 0 14 47 0
896 820 1307 1703 1716 1748 2005 2283 2430 2671 2805 2776 2120 1980 1880 1787 1831 1631 1180 948 1081 1069 887 1445 1245 1022 1077 63 0 0 1 33 427 985 405 31 0 0 0 0 0 0 0
742 870 1433 1904 2162 2370 2381 2698 3294 3053 2911 2231 1949 1986 1810 1535 1528 1469 949 815 912 871 1157 1285 1039 848 1051 289 1 0 1 1 392 379 23 0 0 0 0 0 0 0 0
1141 1137 1312 1791 2409 2530 2653 3047 2568 2637 2721 2174 2059 1673 1902 1623 1440 1289 1140 1346 1327 1077 1644 1347 1028 430 876 570 71 2 1 0 6 0 0 0 0 0 0 0 0 1 4
1323 1247 1437 2031 2337 2405 2426 2318 2245 2191 2190 1987 1741 1675 1411 1283 1677 851 257 1249 166 177 602 474 253 660 1125 635 259 87 174 166 9 0 0 1 9 11 15 15 8 5 2
1802 1869 1966 2300 2401 2416 2400 2419 2133 2181 2062 1414 1410 1395 1409 1682 1513 756 119 0 0 1 1 1 56 133 0 0 0 0 0 0 0 0 0 3 4 3 7 8 3 0 0

GFSMW_con_sbcape_003.txt.gz
CAPE
718 761 948 943 924 1107 1546 2155 2546 3669 2715 2157 2656 2243 1745 1969 1740 1475 2738 2717 2363 2288 2191 2070 2331 1508 1929 1386 394 146 27 27 62 0 51 134 103 63 22 4 0 0 0
489 780 998 1012 939 1304 1888 2892 3182 3927 3341 2353 2828 2629 2276 1535 1328 1319 2334 2256 2843 2684 2137 2846 1546 1430 1316 961 362 131 0 26 124 45 12 169 317 130 137 2 0 0 0
229 690 891 1063 1124 1521 2272 3227 4144 4352 3957 3775 2998 3071 2752 2206 2411 1826 2020 2385 2435 2398 2423 2204 2218 2001 907 0 281 46 9 5 290 299 43 28 379 233 317 84 0 0 0
287 450 931 1195 1160 1567 1901 3340 4289 4423 4328 4312 3119 3649 2151 1484 924 1173 1152 2037 2721 2501 2364 2383 1662 1586 152 465 38 16 26 73 29 32 20 58 123 87 112 350 42 0 0
388 452 794 1112 1136 1321 1658 2658 4348 4651 4548 4309 3888 2512 2768 1362 1312 885 3074 1768 3025 1927 1486 1417 1842 1045 68 171 93 2 84 158 12 7 19 117 11 0 0 12 47 32 33
375 750 677 918 1084 1248 1532 2456 4356 4776 4841 4501 4093 4090 3861 3036 1431 1550 1805 1602 1242 1772 1410 1122 1772 887 12 112 114 33 91 106 118 51 40 25 13 35 27 13 18 31 41
510 622 989 1003 1331 1802 2123 2640 4183 4853 4790 4193 4376 4227 3909 4169 3324 2723 2042 1594 680 861 2417 1622 2173 933 323 166 98 146 170 65 66 71 51 539 147 91 44 29 40 36 54
747 418 783 1276 1846 1819 2627 2859 3753 4680 4831 4568 4725 4750 4714 2860 2494 2989 2162 1363 964 741 1571 1665 1642 1141 273 287 234 27 1 306 33 30 641 47 46 112 72 147 273 83 73
679 609 494 861 1530 1655 2436 2919 3787 4357 4577 3631 4870 4859 4729 4552 2696 3704 3685 2136 2437 846 521 1240 1729 1320 579 426 399 39 510 35 9 192 738 211 21 31 42 52 174 121 62
657 662 485 625 1252 1245 1881 2780 3557 4249 4017 4185 4459 4275 4420 4611 4279 4372 4080 3445 2808 1857 1860 1267 1324 1102 937 982 915 506 528 343 16 4 541 688 52 6 32 57 72 42 27
491 786 567 551 845 918 1472 1980 2745 3842 4045 4184 4125 4303 3928 4058 4307 4090 3913 3729 2947 2798 2110 2168 1628 974 740 395 475 363 153 730 774 602 285 544 966 103 30 46 56 42 44
290 652 726 522 650 1262 1077 1293 1712 2069 3138 3961 4437 4421 4420 4100 3974 4155 4101 3984 3537 2901 2194 1975 1412 665 606 624 678 274 108 234 103 134 710 514 307 1357 1546 205 1282 690 436
119 589 660 892 888 1054 1305 1056 1623 1503 2028 3433 3525 4142 3912 4201 4041 4123 4123 3926 3778 2884 1813 1647 1344 794 656 764 684 682 458 188 142 130 657 611 1191 1394 700 1152 545 316 660
493 535 832 1285 1350 1521 1763 1695 1565 1289 1724 2408 2764 3939 4234 4034 3825 4120 3908 3373 3141 2492 1550 1372 951 803 602 477 445 494 390 588 506 460 746 822 1035 1205 1211 1163 1454 1188 759
369 968 1201 2285 2469 2198 2452 2362 1978 2363 2186 3204 3068 4028 4453 4081 3903 3977 3938 3153 2614 2010 1180 919 703 585 318 441 709 452 466 970 656 499 433 855 1071 677 607 1103 367 1135 677
15 937 1442 1821 3052 2824 3157 3048 2942 3022 3070 3899 3782 4362 4646 4294 3901 3835 3346 2302 2179 1548 999 443 424 427 101 0 38 465 239 863 911 738 756 1150 854 366 286 276 157 60 167
94 478 1373 1834 2511 2507 3440 3417 3635 3390 3787 4306 4408 4780 4821 4254 3346 3105 2694 2159 1819 1510 1108 483 522 337 487 1 0 0 256 487 830 1167 1019 1099 535 330 443 439 146 72 26
171 229 1086 1823 2730 2288 2308 2919 3085 4095 4370 4529 4541 4758 4618 3683 2660 2195 2057 1955 2025 1846 1286 662 862 560 486 0 0 0 216 328 571 885 1000 1246 1130 964 480 633 526 496 796
224 432 1392 1839 3427 3038 3569 3734 3439 3895 4181 4002 4551 4685 4048 3286 2443 1826 1785 2185 2130 2330 1209 584 743 754 660 0 0 0 434 612 999 1142 1050 1268 756 338 133 110 150 589 824
246 860 1648 2098 2744 3289 2763 3344 2911 3469 3936 4035 4265 4573 3732 2984 2198 1835 1891 2193 2286 1915 875 610 885 769 1178 0 0 0 316 285 409 1733 1379 145 112 46 0 144 227 425 533
1380 2020 2028 2883 3243 3132 2538 3197 3071 3062 3100 3221 3339 3536 2930 2524 1943 2056 2288 2019 1883 1455 857 718 1104 1509 1087 667 0 0 379 190 701 590 888 262 0 0 0 0 43 158 5
1600 1712 2228 2590 2520 2879 3082 3368 3566 3724 3908 3752 3447 2907 2458 2165 2157 2361 1828 1552 1575 1410 1335 1627 1471 1322 1180 304 0 0 0 44 672 473 423 902 0 0 0 0 0 0 0
1671 1537 1503 2454 2458 3096 3318 3693 4535 4370 4062 3919 3065 2549 2480 2395 2533 2292 2048 1733 1558 1211 1285 1354 1055 1029 1143 1701 4 1 1 1 61 487 0 0 0 0 0 0 0 0 0
1290 1339 1598 2156 2697 3180 2822 3591 3528 3599 3661 2900 2466 2345 2275 2199 2173 2145 1437 1109 885 1051 1250 1250 1432 1341 1661 729 384 18 4 0 8 0 8 0 0 0 0 0 0 0 1
1161 1419 1705 2136 2440 2832 3240 2973 3261 3388 2756 2429 2309 2740 2313 2127 2020 997 831 1622 1355 1059 1156 1133 1234 1311 650 780 400 23 188 260 77 110 129 19 35 25 46 34 36 33 25
1458 1773 1733 2224 2559 2762 2890 2829 2892 2940 3071 2564 2560 2299 2029 2250 1595 444 4 0 0 1 0 0 50 44 0 0 0 0 0 0 0 14 20 20 25 31 30 58 52 26 5

GFSMW_con_sbcape_006.txt.gz
CAPE
480 676 744 844 924 1523 2131 2308 2432 3228 3537 3257 2400 2367 2110 2709 2337 2360 2182 2725 3116 2643 3012 2735 2202 1791 2602 874 1133 870 487 603 425 218 136 429 357 381 206 0 0 0 9
310 705 931 789 911 1381 1812 2696 2702 3498 3176 3090 2904 2670 2284 1942 2029 2310 2775 3096 2781 3468 2412 2629 2350 1865 1803 1803 1353 692 387 421 773 194 403 257 558 123 175 13 0 0 0
79 765 917 912 1044 1416 2089 2491 3095 3247 3180 3051 3039 3215 2761 2473 2362 2815 2778 3241 3310 3213 1726 2535 2687 2426 1634 1276 1400 839 358 291 1161 307 398 413 514 458 475 229 10 2 0
162 453 958 1203 1177 1422 1926 2789 3242 3436 3580 2927 3032 2715 2233 2400 2504 2879 2277 2936 3160 3074 3032 3101 2939 2629 1322 1729 1204 688 284 829 419 809 360 215 132 223 198 556 53 21 0
108 216 910 1131 1231 1467 2076 2571 3479 3627 3618 3560 3176 2982 2804 2107 2066 1694 3635 3220 3494 2942 2578 2841 2833 2224 1435 1645 765 617 416 839 564 412 611 831 479 146 54 87 73 83 48
319 373 773 1091 1319 1469 2169 2273 3739 3966 3886 3902 3299 3539 2497 2534 1952 2802 2927 2631 2498 2818 2939 2353 2445 2115 1156 1341 852 807 960 590 665 508 731 400 423 43 297 70 46 69 114
545 530 722 1134 1445 1606 1942 2512 3463 3935 4050 4091 3577 3423 3461 3116 3558 3879 2898 2550 1715 2095 2351 2594 2419 1682 1294 1423 1147 1131 1162 757 604 808 537 451 333 217 122 150 48 50 70
671 634 888 1056 1548 1595 2012 2438 3332 3806 4184 3958 3965 3713 3378 3041 3075 3519 2535 2563 1706 1884 1771 2166 2473 2308 1100 1049 1057 827 535 713 601 191 562 475 523 409 219 130 95 55 67
777 715 1010 1144 1578 1626 1945 2409 3423 3903 4210 4212 4173 4235 3723 3384 3006 3232 3227 2786 2354 2348 2193 1935 2350 1813 1382 1167 1344 404 571 608 993 847 669 470 145 311 334 199 271 47 57
852 923 834 1398 1569 1751 1851 2532 2946 3889 4278 4214 4215 4210 4212 3704 3381 3100 3417 2363 2513 2479 1646 2117 1674 1848 1118 1331 1217 596 852 674 558 434 614 592 325 472 340 52 243 64 95
685 700 968 1039 1662 1891 1912 2231 2631 3666 4130 4219 4151 4187 4142 4000 3651 4123 3839 2831 3090 2119 2152 1671 1845 1708 1300 1257 940 681 580 623 679 524 651 547 1003 606 410 658 314 152 199
185 609 1099 950 1348 1643 1753 2144 2602 3233 3768 3972 4103 4089 4113 4125 4006 3507 3875 3197 3542 2541 2003 2129 1907 1700 887 1112 800 509 159 734 684 842 890 675 468 1014 782 854 672 734 623
742 734 961 1079 1135 1298 1575 1932 2342 2758 3632 3793 3837 3778 3966 3989 3936 3804 3289 3560 3352 2835 2572 2076 1925 1306 768 933 670 573 569 700 523 530 712 720 824 1014 1003 740 810 553 419
1531 988 977 1324 1092 1310 1530 1780 2095 2361 3029 3398 3514 3637 3616 3690 3627 3727 3624 3445 3387 2987 2920 2175 1906 1245 751 683 624 682 686 660 621 918 933 1039 809 925 1047 760 924 933 625
1167 1395 1697 1867 1603 1677 1655 1628 1692 1851 2084 2980 3479 3617 3873 3699 3673 3651 3695 3545 3754 3581 3256 2284 1796 1178 617 560 698 656 665 784 868 672 999 965 1029 670 806 914 718 992 468
323 1473 1756 2678 3069 2035 1862 1623 1580 1666 1956 2497 2932 3372 3777 3991 3843 3676 3868 3780 3965 3474 3008 1751 1312 746 487 306 304 723 740 888 940 640 1000 1228 411 257 93 82 151 652 379
306 749 2044 2196 2485 2677 2102 1747 1701 1914 1966 2718 2983 3205 3856 4180 3919 3848 3902 4051 3750 3062 2374 1402 833 441 575 4 18 285 564 561 871 675 1049 678 538 507 792 277 143 119 72
157 251 24 2129 2803 2820 2269 2257 2127 2416 2374 3885 3379 3603 4259 4287 4050 3961 3915 3938 3077 2521 2206 1381 483 411 560 85 3 1 63 406 851 710 830 307 827 1099 1218 729 825 302 244
698 388 54 662 2759 2845 2786 3152 2704 2547 3865 3544 4180 4254 4794 4511 4336 3990 3665 3252 2494 2239 1995 1191 592 627 706 0 0 0 3 157 425 655 621 769 1314 1195 142 230 236 236 592
61 1062 1165 1337 3201 3335 2997 3180 3471 3238 3121 4110 4405 4825 4808 4412 3628 3215 2622 2115 2311 2333 2279 1347 975 702 1226 0 0 0 105 321 556 741 905 313 518 694 45 143 385 656 617
578 952 2823 3010 3586 3637 3414 3398 3566 3765 3715 4535 4557 4951 4665 3946 2878 2285 2092 2098 2392 2648 1797 844 736 758 1011 641 0 0 335 488 528 444 713 874 153 0 0 0 70 66 0
686 2009 4164 4416 4217 4052 4062 4215 4253 4459 4620 4556 4704 4758 3749 2548 2233 2207 2302 2334 2083 1613 1386 1220 1029 1827 1570 762 0 0 10 427 553 584 753 111 0 0 0 0 0 0 0
2249 2325 3604 4212 4361 4474 3991 4091 4425 4265 4164 4194 4476 3869 2873 2343 2208 2583 1893 1625 1970 1631 1433 1405 1843 1690 1467 446 0 0 0 1 0 455 0 0 0 0 0 0 0 0 0
2826 2777 2934 3252 3783 3856 4089 4332 4276 4228 4115 4068 3337 2779 2562 2882 2908 2419 2123 1851 1792 1691 1435 2028 1699 1795 1535 1088 110 2 2 0 0 0 0 0 0 0 0 0 0 0 0
2831 3295 3511 3829 4095 4517 4167 4229 4437 4300 3549 2942 2526 2253 2136 2235 2169 542 789 1244 0 278 1838 2014 1698 1447 1418 1208 898 669 466 227 40 21 52 1 15 25 0 1 23 12 25
2115 2509 3281 3441 3136 3485 3866 4068 4046 3478 2982 2551 2344 2456 1990 1854 712 64 0 0 0 0 0 0 161 0 0 46 28 0 0 0 0 108 545 338 226 164 56 31 31 41 55

GFSMW_con_sbcape_012.txt.gz
CAPE
342 310 154 249 274 680 1060 1144 1120 851 971 923 986 990 1053 946 859 925 416 629 819 933 684 719 906 652 518 106 49 0 0 0 0 0 0 5 7 0 0 0 0 10 77
352 255 204 323 319 755 1023 1129 1033 818 772 820 923 979 1030 948 994 731 720 657 647 812 891 765 818 838 720 154 0 0 0 0 0 0 0 1 26 10 0 0 0 0 0
171 207 285 287 431 688 776 744 1072 1051 919 916 1001 894 817 773 944 884 852 907 1017 1006 1083 877 810 636 433 90 0 0 0 0 0 0 0 0 0 9 5 0 0 0 0
32 94 277 229 370 609 669 657 820 1350 1191 1176 1156 1140 1033 1027 979 841 947 1330 1323 1202 938 800 611 280 96 36 0 0 0 0 0 4 0 0 0 0 1 0 0 0 0
36 7 218 267 257 437 698 643 467 1499 1468 1388 1214 1172 991 873 578 768 979 945 1405 1349 956 817 709 226 36 4 0 0 0 0 0 0 0 0 0 0 0 0 0 0 0
16 0 74 153 215 353 681 762 614 777 1460 1493 1334 1267 1101 858 651 577 738 948 1480 1244 1049 887 942 105 7 0 0 0 0 6 8 0 0 0 0 0 0 0 0 0 0
37 0 3 71 97 205 565 924 850 740 1102 1520 1388 1283 1121 897 722 446 791 1251 1336 1034 1239 1026 833 97 0 0 0 0 0 0 0 0 0 0 0 0 0 0 0 0 0
4 17 4 63 63 184 591 935 1074 961 1186 1274 1446 1411 1237 1111 975 373 1032 1141 1291 1349 991 1076 560 44 0 0 0 0 0 1 0 0 0 0 0 0 0 0 0 0 0
0 0 36 66 122 220 567 903 1332 1231 1368 1565 1234 1471 1554 1307 1123 849 946 1129 1014 1099 913 1058 437 65 3 2 10 0 0 18 0 0 0 0 0 0 0 0 0 0 0
0 0 2 118 246 220 610 1040 1415 1448 1651 1818 1647 1433 1434 1625 1211 828 1206 1064 873 1003 915 825 540 146 14 72 15 4 0 9 7 0 0 0 0 0 0 0 0 0 0
8 0 4 120 289 357 795 1198 1442 1435 1748 1969 1883 1868 1645 1384 1496 1230 1256 1410 846 587 859 711 662 305 87 26 0 1 3 0 6 5 0 0 0 0 0 0 0 0 0
3 8 1 71 259 524 940 1143 1665 1674 1771 2102 2106 2028 2035 1836 1510 1410 1453 1197 1201 643 823 710 897 655 243 32 80 0 0 5 0 0 0 0 1 11 1 0 21 27 0
0 0 23 77 303 570 807 1269 1632 1949 2092 2178 2206 2396 2240 2151 1864 1511 1544 1479 1253 698 697 633 1007 862 452 157 85 11 0 0 4 0 0 0 1 0 0 4 8 54 48
0 0 45 115 443 671 831 1306 1527 2157 2236 2450 2422 2449 2479 2343 2279 1920 1640 1556 1604 984 820 778 711 972 686 251 207 73 0 0 0 0 0 0 1 11 2 57 71 107 87
2 2 58 181 561 827 870 1216 1703 1983 2322 2487 2667 2618 2607 2560 2543 2338 2043 1773 2066 1292 939 604 784 620 701 493 255 188 31 0 1 1 0 0 29 31 9 70 69 62 100
6 76 128 332 610 875 930 1087 1562 2252 2363 2615 2699 2723 2782 2703 2679 2718 2566 2037 1957 1990 1072 724 524 591 716 583 241 238 134 22 3 0 0 25 177 136 183 73 30 59 119
137 190 266 517 613 906 1025 1017 1515 2088 2550 2707 2873 2898 2776 2725 2687 2723 2700 2599 2070 1733 1514 923 773 691 732 500 52 91 184 66 53 0 0 45 100 79 79 47 6 28 77
1 298 308 446 688 922 1103 1195 1310 1815 2442 2608 2833 3023 2910 2750 2690 2729 2768 2642 2575 2044 1885 1328 1006 856 487 87 34 111 156 83 17 15 35 172 152 42 12 11 23 17 13
0 3 240 457 487 675 965 1217 1317 1559 1861 2292 2589 2795 2828 2622 2684 2611 2764 2582 2648 2413 2250 1564 1119 859 562 0 0 42 89 125 33 21 142 233 129 2 21 23 16 12 14
0 0 0 336 1096 541 790 989 1192 1481 1653 1921 2250 2648 2694 2543 2547 2669 2688 2700 2665 2610 1848 1352 1059 668 327 0 1 0 0 12 3 12 18 3 1 1 4 26 4 5 11
35 0 0 0 347 1211 714 742 941 1232 1541 1808 1996 2208 2543 2563 2540 2745 2738 2842 2455 2189 1713 987 297 154 164 19 9 0 0 0 0 0 0 1 1 0 7 2 0 0 0
438 1579 28 0 0 576 1004 799 782 937 1269 1482 1595 1609 2221 2421 2772 2735 2540 2252 1850 1689 1281 673 340 178 120 65 0 0 0 0 0 0 0 0 0 0 0 0 0 0 0
1857 2025 2077 992 2197 900 1287 1114 939 941 954 1046 1537 1995 2462 2721 2584 2266 1934 1502 1353 1169 749 618 220 92 76 0 0 0 0 0 0 0 0 0 0 1 1 0 0 0 0
159 101 532 1898 2727 2420 1771 1290 1148 1218 1571 2567 3015 2721 2367 2034 1805 1371 1334 982 812 681 482 461 334 257 131 0 0 0 0 0 0 0 0 0 0 0 0 0 0 0 0
0 0 0 0 0 1927 3123 3036 2839 3199 3060 2640 2381 1990 1381 1418 357 0 323 389 246 397 438 257 253 299 205 6 0 0 0 0 0 0 0 0 0 0 0 0 0 0 0
0 0 0 0 0 0 423 3267 3154 2693 2210 1829 1749 1351 145 1 1 1 1 0 0 2 306 334 201 1 98 44 0 0 1 1 0 0 0 0 0 0 0 0 0 0 0

GFSMW_con_sbcape_015.txt.gz
CAPE
552 502 330 236 310 399 456 526 600 698 825 655 800 736 777 307 483 574 568 845 950 1085 648 542 353 238 416 144 0 0 0 0 0 0 0 0 0 0 0 0 6 68 122
618 531 392 311 148 476 664 673 657 644 732 769 790 751 561 513 437 574 464 523 834 889 588 415 560 444 452 103 21 0 0 0 0 0 0 3 3 0 0 0 0 0 0
588 576 371 301 165 371 728 784 773 719 614 625 640 431 439 431 612 534 541 541 454 482 636 432 482 517 380 170 4 0 0 0 0 0 0 0 0 0 0 0 0 0 0
327 328 393 131 174 297 615 789 844 768 530 484 563 723 697 616 629 669 601 641 659 596 622 647 558 459 274 64 0 0 0 0 0 0 0 0 0 0 0 0 0 0 0
237 222 227 158 133 203 564 799 836 765 567 492 565 579 475 520 352 472 706 729 837 852 794 647 481 215 46 49 0 0 0 0 0 0 0 0 0 0 0 0 0 0 0
168 200 177 227 234 268 485 672 652 773 707 631 633 601 579 517 373 385 619 560 701 935 867 683 444 145 16 8 0 0 0 0 0 0 0 0 0 0 0 0 0 0 0
43 71 79 143 218 331 537 583 475 835 900 871 824 757 695 531 426 367 442 536 801 971 954 644 557 150 7 0 0 0 0 0 0 0 0 0 0 0 0 0 0 0 0
0 12 23 26 167 170 457 518 459 631 1032 1103 1025 895 781 694 601 270 410 550 891 1024 1014 834 687 323 0 0 0 0 0 0 0 0 0 0 0 0 0 0 0 0 0
0 4 11 1 69 130 161 545 511 445 855 1146 1134 1026 962 860 699 330 387 557 768 1005 886 915 774 248 9 0 0 0 0 0 0 0 0 0 0 0 0 0 0 0 0
0 1 16 16 14 69 106 392 613 561 517 896 1121 1123 1030 927 759 544 448 597 744 842 746 931 721 216 18 0 0 0 0 0 0 0 0 0 0 0 0 0 0 0 0
0 0 12 21 16 35 47 308 654 672 623 713 917 973 1110 1045 876 630 729 749 690 655 817 816 723 274 30 0 0 0 0 0 0 0 0 0 0 0 0 0 0 0 0
0 0 0 7 41 48 55 318 592 813 749 848 1011 958 948 1091 1184 930 762 921 877 606 729 659 670 369 87 17 6 0 0 0 0 0 0 0 0 0 0 0 0 0 0
0 0 0 0 9 46 76 335 660 894 917 1044 1172 1211 1203 1109 1236 1281 1127 962 1088 626 695 575 674 449 157 37 7 0 0 0 0 0 0 0 0 0 0 0 0 0 0
0 0 0 0 10 37 156 445 773 971 1031 1206 1383 1433 1441 1485 1249 1249 1241 1270 1126 872 621 646 732 706 432 171 40 2 0 0 0 0 0 0 0 0 0 0 0 0 0
0 0 0 0 1 18 224 568 779 1168 1161 1279 1540 1607 1604 1673 1650 1509 1285 1211 1185 1089 816 566 617 769 641 351 188 97 51 3 0 0 0 0 0 0 0 0 0 0 0
0 0 0 0 2 54 305 528 985 1228 1441 1511 1631 1738 1851 1923 1906 1860 1642 1367 1270 1287 801 740 590 547 741 604 234 217 131 17 4 1 0 0 0 0 1 2 4 0 0
0 0 0 0 3 164 401 556 1064 1194 1753 1754 1855 1935 1924 2109 2144 2077 1955 1703 1428 1514 942 742 624 568 578 516 172 119 166 34 4 42 13 0 0 3 20 22 0 0 0
0 0 0 0 72 338 594 686 1003 1373 1738 1954 1984 2147 2203 2178 2261 2305 2233 2070 1689 1784 1139 879 545 638 641 104 80 175 151 80 107 64 12 0 0 0 14 12 7 0 0
0 0 0 9 170 444 714 847 927 1366 1879 2017 2140 2277 2414 2379 2439 2427 2483 2407 2156 1729 1669 1193 953 930 832 61 30 28 144 143 114 84 0 0 0 10 2 1 2 0 0
0 0 0 35 177 475 891 974 981 1366 1928 2220 2284 2442 2588 2525 2489 2527 2485 2548 2563 2141 1833 1666 1402 1303 974 1 1 28 227 193 65 0 0 1 21 6 0 0 0 0 0
64 2 0 7 169 348 812 1033 1088 1163 1605 2059 2380 2413 2613 2692 2574 2480 2479 2602 2619 2399 2174 2049 1680 1366 938 1 1 11 118 66 0 0 0 0 0 0 0 0 0 0 0
814 1564 1478 946 483 0 368 876 1088 1231 1314 1597 1798 2182 2376 2669 2512 2475 2439 2532 2654 2513 2435 2099 872 689 69 2 0 0 1 0 0 0 0 0 0 0 0 1 0 0 0
0 0 3 46 11 1270 843 438 629 1049 1297 1417 1522 1591 2096 2414 2332 2420 2552 2672 2710 2543 1992 1107 659 385 257 81 0 0 0 0 0 0 0 0 1 1 1 0 0 0 0
0 0 0 0 0 0 100 304 938 720 856 1159 1392 1506 1872 2275 2342 2534 2698 2672 2423 2188 1436 922 554 215 99 0 0 0 0 0 0 0 0 1 1 0 0 0 0 0 0
0 0 0 0 0 0 0 0 0 19 641 838 1114 1370 1776 2354 1953 1042 1629 2243 1177 1354 819 556 300 116 79 0 0 0 0 0 0 0 0 0 0 0 0 0 0 0 0
0 0 0 0 0 0 292 162 0 0 500 1693 2120 2125 2067 105 1 0 0 1 1 322 260 200 149 2 0 0 0 0 1 1 0 0 0 0 0 0 0 0 0 0 0

GFSMW_con_sbcape_021.txt.gz
CAPE
633 707 767 738 844 1006 1143 1203 1095 1356 1157 1026 791 750 697 662 1022 1148 1425 1828 1932 2090 2134 1805 1814 1717 1554 1572 1482 868 408 41 141 61 121 152 22 17 123 278 145 103 184
720 722 737 772 792 1002 1154 1394 1467 1741 1481 1096 1203 942 1063 914 1481 1418 1612 1735 1866 2092 2117 2086 1944 1750 1470 1635 1421 922 209 27 82 42 50 13 26 0 0 70 70 145 0
823 801 750 748 825 963 1358 1772 2030 2060 1740 1628 1228 1211 1414 1631 1629 1565 1781 1776 1966 2176 2230 2183 2022 2008 1760 1588 1552 1005 575 111 105 60 33 0 1 34 0 1 5 33 3
920 863 844 840 812 1268 1183 1790 1881 2135 1780 2124 1678 1882 1280 1281 1364 1608 1716 1778 2000 2131 2210 2248 2123 2146 1807 1794 1655 1073 676 152 43 104 41 127 218 1 4 0 0 0 0
984 962 947 976 930 923 984 1185 1806 2021 2139 2223 2191 1816 1883 1328 1361 1410 2132 2379 2146 2096 2027 2222 2213 2198 1939 1903 1758 1073 628 201 46 64 64 27 59 107 37 8 0 0 0
908 1011 1032 990 964 807 745 1081 1711 1884 2040 2089 2161 2348 2318 2046 1513 1548 1487 1560 1602 1680 2027 2075 2307 2307 2054 2044 1793 1255 859 339 118 169 170 18 0 0 76 96 14 0 0
957 994 1116 1103 1219 1307 1228 1156 1652 1834 1936 1956 2059 2221 2284 2470 2368 2041 1494 1669 1451 1467 2198 2214 2253 2128 2140 2039 1727 1262 880 489 201 253 173 216 92 13 0 0 22 28 0
928 1056 1427 1546 1587 1455 1449 1259 1408 1780 1920 1911 1998 2091 2244 1790 1941 2123 1479 1408 1411 1566 1971 2287 2290 2248 2133 1981 1553 1192 898 531 425 345 242 172 190 40 12 4 6 3 8
736 876 1258 1482 1543 1627 1549 1478 1445 1673 1881 1877 1959 2019 2094 2030 1928 2187 2214 1532 2075 1541 1860 2146 2300 2317 2194 2002 1625 1237 936 455 416 289 326 208 151 21 0 0 0 0 0
217 594 995 1229 1321 1294 1632 1470 1464 1677 1819 1897 1929 1867 1929 2010 2058 2182 2211 2130 2058 1880 1725 1982 2208 2316 2219 2020 1735 1435 1055 571 319 176 306 219 108 110 39 0 0 0 2
7 132 566 996 1244 1087 1222 1419 1425 1701 1930 1995 2027 1971 1934 1945 2030 2096 2240 2287 2214 2196 2149 2158 2137 2208 2216 2027 1825 1683 1244 685 588 279 303 323 302 95 59 54 52 50 2
86 77 144 356 687 1218 1099 1288 1348 1494 1759 1929 2093 2076 2119 2103 2089 2135 2211 2342 2374 2153 2644 2559 2228 2236 2277 2083 1837 1756 1347 980 790 642 342 235 124 231 159 50 155 58 78
19 75 51 128 509 821 1170 1180 1165 1257 1343 1794 1945 2113 2201 2245 2209 2209 2286 2374 2404 2412 1954 2515 2629 2220 2170 2109 1874 1921 1732 1259 1087 832 528 409 276 139 35 51 38 27 123
1 65 108 573 581 763 1007 1073 1213 1196 1326 1513 1818 2091 2253 2276 2294 2330 2401 2406 2454 2436 2491 2566 2582 2400 2097 2064 1911 1845 1897 1578 1250 1073 643 386 207 242 197 217 205 152 139
0 0 2 662 913 893 1035 1075 1084 1404 1502 1774 1741 2058 2327 2394 2447 2453 2452 2448 2486 2382 2461 2607 2616 2444 2172 1909 2137 1868 1866 1826 1430 1156 752 439 314 78 195 221 300 290 234
0 0 0 171 446 849 1122 1090 1158 1334 1590 1878 1873 1954 2312 2512 2518 2554 2567 2541 2497 2482 2514 2507 2586 2571 2050 1423 992 1687 2102 1919 1765 1593 1051 607 80 3 0 0 38 268 308
0 0 0 81 554 632 1108 1133 1260 1411 1656 1570 2019 2198 2280 2447 2512 2537 2602 2553 2534 2494 2547 2510 2576 2624 2621 933 393 344 2033 1903 1978 1802 1459 919 524 145 205 1 0 0 0
0 0 0 0 774 337 360 1010 1139 1584 1754 1956 2189 2325 2387 2423 2497 2462 2555 2678 2644 2576 2655 2554 2582 2679 2599 725 218 148 1590 2117 2149 1820 1609 1290 1054 680 525 564 269 176 211
0 0 0 0 333 598 1083 1398 1434 1685 1867 1983 2202 2366 2442 2456 2578 2615 2592 2623 2708 2768 2692 2698 2684 2627 2707 655 91 84 1415 2167 2126 1822 1574 1370 1334 880 71 503 754 748 756
0 0 0 0 29 182 279 1276 1292 1672 2060 2170 2248 2364 2652 2708 2754 2807 2891 2820 2738 2723 2593 2771 2774 2232 2710 731 6 56 1665 2089 1871 1711 1488 448 1053 157 0 370 910 853 703
0 0 10 394 510 658 486 1517 1643 1986 1864 2024 2314 2825 2867 2910 2984 3082 3100 3120 3081 2828 2875 2856 2813 2817 2341 2514 0 0 2003 2033 1322 1333 1125 1392 11 67 0 29 1078 631 645
604 396 1133 1439 1310 987 1458 1582 1877 1882 2134 2345 2680 3179 3198 2880 2904 3362 3412 3380 3176 3034 3002 2909 2771 2548 2737 1534 0 1 541 1348 1617 1367 720 473 1 0 0 0 308 2 7
650 1563 1479 1017 1093 1472 1890 2047 2042 1885 2159 2500 3096 3273 3306 3489 3488 3539 3519 3481 3333 2906 2803 2507 2337 2120 2068 2069 0 1 0 399 1198 678 422 218 0 1 0 0 0 0 59
0 0 1 123 329 518 656 947 951 2228 2314 2467 2908 3196 3294 3646 3767 3352 3420 3449 3247 2871 2981 2703 2523 2220 2005 971 0 1 1 0 0 2 2 3 2 0 3 0 0 6 18
0 17 287 399 284 335 285 126 137 218 511 1564 2353 2344 2698 3067 3581 3806 3718 3601 3603 3224 3115 3131 2783 2390 916 111 0 0 1 1 0 1 2 2 6 1 1 0 1 1 0
335 598 818 792 482 89 91 114 179 153 212 344 426 803 1440 2041 2576 3253 3524 10 277 2121 2394 2463 2392 975 145 2 2 1 2 1 1 0 0 1 3 0 0 0 0 0 0

GFSMW_con_sbcape_024.txt.gz
CAPE
910 832 933 989 1054 1213 1563 1645 1651 1893 1901 1626 1448 1055 674 705 625 587 1027 1679 2125 2431 2785 2254 1588 1475 1594 1428 1348 1336 988 168 15 35 32 82 28 15 39 44 29 5 14
1012 960 996 991 894 1225 1549 1873 1807 2099 2229 1739 1697 981 753 556 688 804 1310 1920 2290 2743 2799 2937 2189 1693 1672 1677 1630 1479 561 198 17 54 35 54 40 28 29 21 12 4 3
1149 1054 1011 993 900 1174 1573 1828 2150 2084 2112 2058 1380 1117 936 900 919 1145 1585 1957 2406 2553 2851 2439 2399 2127 1935 2845 2076 1675 1140 301 38 106 94 29 39 42 14 16 13 14 18
1244 1175 1015 962 931 1152 1471 1853 2147 2352 2247 2403 1982 2443 1285 1253 1193 1655 1290 1631 2372 2335 2411 2666 2484 2721 1967 1961 2345 1725 1442 1396 99 30 0 206 394 34 48 31 24 5 9
1264 1319 1203 945 839 1101 1349 1722 2381 3056 3062 2482 2717 1946 2139 1498 1429 1333 2434 3056 2710 2546 2214 2556 2526 2654 2775 2274 2390 2106 2042 1247 431 0 83 125 60 95 39 117 47 29 8
1183 1359 1395 1061 907 1076 1425 1672 2841 3852 3312 2894 2448 3445 3447 2610 1764 2079 1585 1696 1855 2047 2412 2379 2251 2356 2571 2582 2597 2454 2036 1698 812 16 66 28 0 0 6 8 22 29 39
1169 1272 1512 1443 1088 1184 1409 1694 2632 3385 3019 2802 2768 2900 2986 3096 3304 2674 2051 2443 1518 1459 2543 2573 2746 2603 2876 2583 2692 2725 2048 2015 1243 867 8 40 77 11 0 0 0 3 17
1170 1193 1482 1644 1561 1326 1833 1845 2613 3052 2903 2823 3576 3768 3690 2379 2392 2902 2187 2017 1591 1683 1736 2241 2513 2598 2564 2786 2802 2628 2227 1898 1593 958 309 20 98 115 46 3 0 3 6
1120 1273 1270 1556 1746 1793 2305 2678 3055 3436 3036 2552 3487 3820 3675 3483 2524 3390 3203 2314 3012 1802 1926 2085 2561 2540 2654 2761 2866 2599 2447 1946 1791 1186 672 203 37 128 46 19 5 0 1
869 1087 1279 1376 1662 1848 1925 2252 2759 3295 3408 2986 3095 2907 3199 3653 3620 3761 3583 3526 2925 2876 2216 2401 2431 2462 2628 2810 2958 2553 2511 2315 1694 1039 679 549 44 120 67 13 0 0 0
265 722 973 1199 1342 1658 1986 2085 2261 2813 2683 3190 3390 3328 3078 3017 3152 3246 3779 3880 3181 3529 2955 2885 2508 2371 2601 2847 3091 3146 2385 2498 2140 1309 908 831 287 48 29 32 0 0 0
39 96 239 673 1151 1460 1745 2016 2152 2155 2492 2875 3552 3554 3562 3387 3061 3535 3561 3894 3768 3678 3624 3142 2900 2598 2424 3039 2996 3021 2272 2479 2308 1887 1337 1005 434 510 527 116 461 253 107
46 150 121 242 763 1213 1638 1584 1847 1968 1982 2772 2535 2750 3091 3176 3444 3747 3489 3773 3924 3946 2880 3444 3800 3410 2916 3103 2944 3178 2931 2559 2501 2202 1862 1419 735 780 347 272 138 81 58
0 0 31 140 461 1136 2027 2420 1570 1658 1757 1891 2274 3099 3525 3497 3551 3727 3761 3828 3998 4041 3883 3943 4100 3680 3128 2940 2911 2908 3019 2943 2628 2555 2222 1742 1132 1015 669 374 435 179 128
0 0 47 400 966 1112 1816 2448 1913 1976 1845 2559 2154 3165 3581 3817 3829 3836 3937 3869 4042 3965 4086 4048 4112 3946 3046 2451 3426 3443 3007 3324 3165 2996 2558 2157 1340 563 574 392 989 1286 417
0 0 0 57 349 914 1355 1446 2260 1893 2122 2885 2826 3153 3729 3999 3985 4071 4112 4102 4058 4102 4166 3980 4092 4098 3067 1851 1508 2625 3508 3680 3787 3482 2988 2427 998 465 108 86 162 931 981
0 0 0 0 58 136 857 1315 1720 1815 2554 2907 3275 3509 3859 3969 4129 4059 4184 4147 4154 4156 4213 4167 4155 4254 4129 1502 727 1105 3086 3583 3553 3739 3204 2651 1980 925 1094 68 13 65 174
0 0 0 0 0 3 2 927 1388 2597 2791 3275 3401 3628 3560 3827 3815 4179 4179 4206 4134 4016 4130 4131 4180 4251 4113 2159 336 424 2679 3523 3536 3122 3093 3158 2809 1908 1403 1406 476 342 371
0 0 0 0 77 0 46 386 1449 1830 2207 3311 3425 3568 3482 3524 3769 4153 4213 4189 4073 4095 4082 4089 4269 4274 4165 1816 259 215 2456 2666 3812 3386 3195 3291 3258 2339 611 1579 1617 974 964
0 0 0 0 0 15 70 627 1188 1661 2424 3127 2921 3575 3826 3919 3879 4046 4280 4297 4238 3987 3341 3824 4109 3590 4165 2313 72 256 2174 2590 2668 3550 3896 1971 2710 2060 226 1319 1895 1856 1385
16 15 0 0 41 390 420 619 1310 1792 2263 2410 2453 3307 3898 4107 4100 4291 4390 4181 4078 3638 4119 4088 4134 4306 3767 3948 0 0 2716 2548 2544 2301 2638 2919 1148 26 14 405 1726 1801 1302
325 797 6 78 774 1443 1508 1402 2811 2191 2583 2836 2733 3625 4005 3385 3028 4475 4524 4221 4140 4221 4208 4173 3995 3810 4210 2513 56 0 477 2156 2809 2716 2573 2505 59 0 0 0 561 612 392
1283 1488 799 1623 1966 2277 2369 2469 2454 2427 2547 2759 3175 3162 3370 3398 3921 4378 4243 3663 4337 3465 3640 3401 3406 3617 3702 3942 1081 0 0 395 2513 2520 2073 1226 0 1 1 0 11 27 333
891 1103 1580 1601 2071 2834 3096 3317 3097 2920 3072 3267 3406 3425 3596 3582 3511 3290 3419 3453 3379 3552 3362 3347 3567 3401 3272 3414 3130 153 5 99 458 7 0 0 0 0 1 0 0 324 460
506 998 1128 1196 1295 1265 1139 1061 1198 1538 2956 3161 3181 3408 3402 3520 3571 3936 3400 3350 3883 3188 3595 3515 3326 3591 3420 3148 2631 557 61 321 285 0 1 2 4 4 4 6 4 130 220
1018 1183 1146 1125 865 902 1185 1481 1474 1569 1359 1152 1041 1178 1624 1939 2663 2889 3468 877 1127 510 271 228 2470 3344 2907 1487 218 2 3 9 1 6 4 9 32 13 9 34 39 56 95

GFSMW_con_sbcape_027.txt.gz
CAPE
697 684 775 786 837 1170 1649 2330 2533 3426 2527 1956 1637 1429 998 961 500 559 898 1225 1547 2115 2602 1973 2048 1727 2340 1589 1255 1176 758 45 22 26 40 28 21 35 33 39 14 0 20
882 677 756 771 847 1096 1997 3020 3169 3718 3232 2273 2411 1664 1663 582 550 541 1689 1412 1883 2383 2743 2586 1897 1851 1828 1677 1660 1409 1501 39 0 271 69 87 19 16 27 18 7 7 6
1153 906 811 808 823 1199 2134 2952 3508 3665 3356 3240 2642 2471 1805 1540 803 908 827 1549 1978 2260 2851 2184 2086 2027 2308 2581 2067 1522 1237 793 0 184 182 101 590 36 16 0 18 1 8
1221 1207 904 858 849 1306 1482 2961 3540 3698 3485 3698 2328 2516 1208 826 654 953 934 1509 2475 2165 2350 2449 1932 2914 1956 2955 2365 1578 1849 1404 240 0 19 259 584 797 380 144 16 1 7
1160 1259 1170 881 817 983 1174 2111 3702 3812 3571 3536 3381 2177 1998 782 825 890 2418 2331 3488 2655 2062 3083 2924 2905 2255 3027 2147 2113 2113 1428 1070 0 0 20 0 0 306 56 381 11 10
965 1264 1326 974 790 759 984 1939 3641 4070 4014 3917 3502 3968 2677 2034 1250 1554 1524 1418 1400 2350 3229 2600 3602 3204 3225 2669 2549 2789 2317 2190 1315 267 92 90 74 84 65 32 381 50 206
825 1208 1419 1184 988 1217 1524 2085 3584 4165 4197 4113 3597 3489 3770 3245 4213 3803 1492 1797 1296 1173 2988 3584 3800 2664 3696 2845 3607 3615 2920 2282 1863 1688 29 55 71 53 7 1 6 8 38
796 1151 1404 1455 1453 1493 2021 2284 3354 4154 4257 4066 4068 3850 4159 2668 2298 2899 1785 1554 1263 1324 3007 3842 3557 3435 3392 3159 3760 2811 2499 2958 2008 1565 1431 71 83 108 65 25 17 13 10
613 1135 1348 1564 1805 1567 2275 2657 3347 3991 4148 3889 4147 4220 4072 3798 2812 3075 3540 2602 2878 1622 3193 3551 3592 3485 3566 3817 3944 2464 3348 3149 2719 2290 1847 502 32 65 84 39 18 4 52
512 1029 1262 1548 2000 1569 1980 2636 3175 3902 4030 3846 4014 4042 4203 4227 3912 4062 4191 3164 3371 3768 3496 3207 3314 3455 3732 3924 4201 3067 3456 3724 2565 1716 2607 1782 96 122 82 23 12 0 0
331 935 1261 1418 1742 1770 1674 2103 2863 3658 3994 3889 3921 3903 3963 3977 4178 4005 4245 4148 4237 4479 3894 4220 3691 3721 3817 4065 4275 3806 3485 3751 3568 3003 2842 2248 2084 83 56 48 20 7 0
150 776 1036 1166 1293 1694 1900 2032 2266 2423 3703 3735 4051 3968 4009 3926 4012 4114 4002 4316 4344 4300 4581 4332 4289 4130 3814 4017 4215 3946 2684 3727 3415 2977 2882 2053 1022 1924 1710 171 1502 319 564
56 311 800 965 1114 1326 2170 2021 2511 2221 2244 3341 3507 4100 4056 4042 3877 4092 4127 4230 4362 4408 4203 4368 4539 4418 4009 4011 4278 4243 3966 3769 3675 3400 3277 2546 2247 2252 500 685 499 172 440
32 132 156 187 717 1426 2395 2879 2280 2298 2352 2555 2825 3585 4100 4009 4076 4126 4294 4255 4414 4425 4389 4353 4467 4461 4335 3944 3947 4083 4129 3947 3685 3677 3563 3229 2659 2321 2122 1618 1508 1236 627
0 0 18 180 611 1795 2852 3022 2312 2731 2641 3274 3276 3466 4075 4280 4353 4339 4309 4348 4407 4411 4463 4443 4410 4591 4420 3556 3926 3769 4018 4228 4022 3822 3849 3640 2823 1792 1824 1117 1399 1205 866
0 0 0 0 476 848 2085 2558 3291 2740 2674 3536 3382 3734 4110 4402 4489 4520 4526 4632 4496 4550 4546 4510 4401 4378 4221 2771 1899 2999 3808 4224 4401 4206 4265 3999 2185 1263 843 665 690 1099 1741
0 0 0 0 47 443 810 1344 2903 3011 3016 3278 3948 3724 4198 4337 4558 4674 4698 4612 4628 4631 4608 4520 4512 4464 4480 2670 1085 1350 3603 4059 4294 4405 4295 3918 2750 2078 1893 329 220 25 573
0 0 0 0 0 0 0 1042 1052 3411 3665 3845 3718 4127 4063 4403 4575 4672 4674 4719 4655 4594 4621 4616 4654 4573 4422 3195 744 555 2867 3701 4243 4197 4263 4300 3535 3063 2671 2278 1373 1122 893
0 0 0 0 49 0 0 0 962 2517 3614 3745 4143 3918 4196 4402 4563 4605 4630 4678 4648 4635 4556 4629 4671 4642 4540 2790 1140 48 2671 3184 3566 4132 4177 4078 4140 3160 1580 2721 2600 1819 1249
11 10 0 0 0 8 0 0 120 1393 3443 3843 4067 4257 4447 4460 4573 4618 4731 4720 4705 4654 4486 4562 4620 4280 4652 3862 944 199 2905 3104 3261 3662 4175 2630 3486 2742 698 2470 2867 2565 1751
583 258 347 348 84 67 46 978 1129 1539 2618 3011 3685 4483 4609 4724 4678 4693 4812 4855 4804 4512 4685 4583 4602 4683 4501 4576 1249 5 3336 3099 3109 3263 3443 3769 1717 1296 72 1088 2783 2395 1999
661 102 352 828 417 230 789 2248 2740 2981 3726 3900 4010 4497 4657 4190 4002 4873 4854 4902 4877 4810 4717 4726 4502 4503 4694 3469 2405 0 464 2810 3128 3209 3152 3303 1272 80 0 66 1874 1646 1671
1263 1216 1330 1113 1229 2193 2362 2572 4149 3558 4047 4421 4652 4712 4733 4641 4632 4854 4919 4471 4743 4000 4138 3963 4136 4194 4015 4654 2371 0 0 240 2457 3179 2937 2388 261 0 0 6 166 198 1535
1379 1330 1707 1942 2432 3376 3110 3281 3674 3198 3057 3641 4194 4268 4311 4509 4511 3660 3951 3761 3608 3680 3727 3495 3869 3434 3942 4136 4602 1725 69 6 265 1772 2131 239 42 233 1059 0 0 603 1309
1076 1662 1865 2230 2264 2304 2179 2145 2342 3354 3575 3778 3775 3926 3697 3899 4317 4346 3437 3536 4096 3328 3602 3607 3375 3534 3737 3735 3618 3762 3687 2201 996 1434 908 94 11 12 0 23 28 199 425
1696 1943 2052 1762 1633 1876 1951 2027 2053 2097 2197 3133 3449 3233 3273 3604 3648 3602 3990 3049 2716 1624 1303 289 839 2875 2539 1258 763 1922 2090 1346 471 864 430 195 51 3 0 1 11 97 125

GFSMW_con_sbcape_030.txt.gz
CAPE
654 941 799 788 1021 1376 1642 1648 2064 2921 2106 2065 1848 1851 1245 1628 1525 1929 2589 2832 2760 3213 3793 2812 971 2360 1894 2456 2025 1918 1587 501 264 346 403 294 36 93 145 30 10 48 129
620 893 894 775 851 1298 1843 1904 2155 2920 2597 2211 2144 1803 1933 1637 1385 1536 2606 2480 2444 3022 3200 2882 2237 2397 2357 2597 2673 2448 1720 526 105 960 157 197 181 44 46 64 0 39 20
696 807 925 848 795 1435 2027 2399 2510 3208 2596 2648 2774 2801 2937 2882 1444 1487 2124 2098 2676 2789 3025 2840 3208 2281 2651 2306 2780 2633 2340 1493 321 1102 1233 207 147 365 117 23 13 3 12
936 816 965 936 957 1374 2054 2719 2919 3166 2831 3112 2531 2601 1677 1251 1433 1429 1520 1661 2189 2954 3162 3166 3207 3432 2800 2378 2413 3068 2575 2175 883 191 187 1036 971 552 136 253 97 104 2
1004 946 898 1000 1050 1261 2051 2739 3034 3185 3190 2584 3257 2409 1942 1633 1236 1542 2446 2204 2525 2705 2778 2967 3338 3627 3036 2630 2485 2959 2931 2972 1602 537 431 702 783 790 597 526 386 147 145
1138 1297 1067 1109 1061 1349 1835 2528 3090 3048 3173 3077 2580 3223 2204 1958 1344 1391 1592 2249 2579 2634 3095 3441 3086 3489 2751 3152 2923 3079 3487 2932 2802 1775 1617 581 423 574 580 390 300 169 301
1131 1551 1443 1253 1152 1355 1766 2094 3133 3036 2915 3148 2468 2668 2997 1998 3057 2772 1765 1971 1515 2345 2538 3282 3382 2884 3123 3308 2846 3381 3566 3167 2775 2277 1563 1112 1348 1182 939 524 414 354 180
869 1402 1654 1490 1279 1286 1558 1959 3001 3088 3063 2957 3079 2506 3456 2323 1688 3251 1727 1872 1806 1644 2990 2584 3098 3156 3102 3103 3711 2984 2964 3077 2682 2977 1871 1224 1143 1053 742 692 787 291 129
467 1184 1704 1709 1497 1292 1529 1895 2714 3133 3287 2884 3274 3055 2534 3221 1824 2213 2871 2485 2409 2316 3280 2763 2789 2773 3130 3166 3308 2884 3245 3330 2872 2540 2628 1753 794 1065 936 810 611 573 460
457 1110 1579 1878 1631 1329 1516 1746 2485 3122 3408 3403 3170 3258 2722 2968 2943 2048 2846 2331 2873 2544 3824 3120 3062 3097 3164 3514 3367 3225 3197 3003 3149 2347 2154 1754 420 511 1043 759 648 514 304
588 943 1632 1891 1910 1504 1571 1709 1972 3022 3460 3499 3417 3341 3443 2777 2737 2882 2612 3500 2564 4129 2858 4036 3351 3236 3180 3267 3530 3032 2804 3364 2875 2706 2576 1767 1115 910 849 649 765 611 507
796 886 1334 1817 2105 1843 1646 1802 2064 2646 3305 3699 3697 3477 3495 3648 3254 2546 2862 3135 3921 2935 4060 3603 3444 3431 3123 3209 3183 3222 2415 3046 3125 2774 2675 2067 1353 1531 1582 1620 686 679 803
549 873 1324 1587 1990 2103 1970 1949 2081 2257 3170 3663 3742 3678 3585 3489 3603 3535 2659 3309 3198 3931 3094 4036 3804 3283 3250 3126 3342 3204 3147 2522 3287 3071 2633 2307 1773 1606 858 1088 1399 892 1289
606 1029 1216 1636 1847 2188 2375 2268 2138 2322 2542 3430 3690 3659 3757 3562 3525 3484 3570 2961 3502 3276 3674 3471 3601 3814 3351 3275 3157 3258 3312 3099 2857 3252 3055 2653 1978 1752 1622 1197 732 1369 638
842 1207 1264 1670 1931 2291 2535 2677 2484 2444 2505 2620 3393 3519 3624 3915 3700 3645 3678 3786 3394 3481 3416 3551 3610 3509 3703 3438 3216 3161 3278 3385 3155 3005 3274 3007 2460 1858 1792 1122 1405 590 1512
117 238 494 661 1453 2926 3005 2762 2776 2913 2815 2856 2923 3217 3521 3713 4075 3933 3857 3941 3884 3771 3860 3789 3656 3689 3613 3316 2745 2902 3197 3387 3332 3269 3116 3185 2547 1931 1387 1283 881 1133 660
0 0 87 588 1014 1441 3500 3232 3052 3090 3470 3296 3377 3355 3583 3736 3932 4094 4111 3970 4049 4023 4004 3992 3968 3713 3717 3073 1954 1863 3103 3207 3283 3318 3353 3278 2946 2349 1768 789 840 628 716
0 68 0 13 496 162 478 1999 3242 3699 3480 4006 3837 4189 4077 3856 4021 4085 4181 4212 4180 4216 4117 4176 4186 4068 3918 3274 1224 976 2589 3091 3147 3229 3301 3280 3137 2908 2407 1663 992 871 582
14 35 0 0 882 435 687 1139 1448 3423 3518 3292 3752 3689 4328 4192 4157 4236 4245 4299 4357 4288 4317 4257 4301 4294 4144 3112 1515 192 2216 2681 2946 3250 3330 3345 3318 3111 1804 2065 1428 1153 959
991 1329 971 858 455 1589 492 1504 1564 2778 3301 3327 3498 3976 3759 4187 4207 4309 4399 4413 4467 4442 4404 4393 4341 4226 4298 3968 1429 234 2754 2636 2640 2904 3228 2631 3261 3172 807 2120 2141 1738 1305
1278 1301 1348 1315 2392 2410 1692 2935 2489 2116 3228 3455 3777 4181 4460 4157 4249 4444 4552 4550 4572 4530 4490 4442 4442 4398 4297 4292 2332 11 3074 3291 2960 2716 2786 2957 1700 2109 541 1094 2395 2236 1906
1347 982 1414 1474 2031 1850 2288 2773 3552 4227 4239 4593 4149 4479 4705 4231 4280 4578 4752 4632 4558 4545 4496 4534 4467 4443 4476 3913 3657 128 318 3235 3395 3201 2785 2759 2744 556 4 0 1775 1871 1857
1896 1679 2169 2780 3437 3167 4420 4355 4951 4848 4729 5226 4998 4712 4951 4628 4407 4710 4640 4584 4624 4557 4543 4493 4434 4519 4404 4384 3709 1435 0 126 1706 3358 3188 981 1649 1066 0 0 252 494 1558
2031 1510 2116 2816 4430 4845 4804 4775 4964 4386 4626 5171 5377 5159 5109 4847 4702 4555 4590 4536 4459 4452 4428 4257 4309 4216 4120 4178 4155 2273 45 2 224 1314 2069 2371 2199 0 434 19 0 1073 1819
2463 3102 3361 2996 2888 2878 2903 2840 3321 4160 4356 4562 4849 5083 4746 4748 4802 4663 3992 4532 4386 4012 4159 4086 3915 3725 4007 900 0 17 1796 2097 1428 2072 2758 2691 2121 2404 630 744 228 919 1646
1526 2364 2724 2215 2400 2309 2241 2574 2555 3146 4330 4902 4560 4356 4096 4431 4137 4403 4407 3757 2245 76 1 0 408 659 0 0 0 1 12 419 1252 773 2330 2576 2444 1421 1507 1142 522 655 1049

GFSMW_con_sbcape_033.txt.gz
CAPE
321 201 207 179 146 460 224 395 489 408 398 891 958 712 452 760 474 453 780 1014 1429 1663 1886 1619 828 1164 541 1120 752 345 363 0 0 5 3 0 0 18 17 43 51 92 35
326 357 184 217 223 529 518 370 789 639 395 836 419 818 934 721 563 317 1208 1338 1624 1885 1836 1250 859 1231 1128 1068 836 927 453 42 0 81 20 4 0 3 1 0 0 6 3
322 349 239 217 324 637 474 735 607 922 572 939 849 924 1060 707 646 450 1009 1536 1507 1890 1512 1504 1305 1416 1279 1294 1118 1199 739 50 0 13 37 1 0 8 10 3 0 0 0
247 341 244 235 399 731 604 683 808 1642 1046 1149 1169 954 715 927 604 348 461 1171 1218 1629 1636 1562 1206 1443 905 709 1091 1226 761 404 0 0 11 15 34 0 0 0 0 0 0
253 308 315 349 326 792 832 663 950 1702 1319 1379 1300 1310 1073 934 557 336 574 827 1105 1725 2020 1736 1527 1488 1624 953 522 1120 1248 1240 310 0 0 0 0 0 3 0 2 0 0
162 186 411 355 297 751 1150 1211 1121 1776 1376 1444 1601 1353 1226 673 726 596 460 1081 1070 1259 1667 1853 1755 1753 1494 1259 840 1295 1457 905 1327 254 76 0 0 0 0 0 1 0 0
5 423 441 326 406 895 1239 1621 1623 1868 1703 1291 1327 1856 1167 867 722 489 651 1231 1490 1351 1574 2031 1652 2003 1483 1687 1343 1313 1948 1279 1160 1170 53 88 0 24 0 0 0 0 0
297 566 414 410 445 605 1201 1941 1794 1780 2074 1814 1250 1068 2080 1264 786 1429 497 1104 961 1402 1423 1807 1956 1627 1745 1815 1386 1602 1654 1840 1170 1601 517 33 79 44 0 0 0 0 0
743 514 479 505 367 660 1075 1578 1946 1733 1917 1980 1744 1171 1249 2220 805 503 1366 434 1118 765 1471 1612 2268 1800 1729 1663 2062 1791 1523 1983 1519 1096 1344 448 60 34 31 1 0 0 0
324 811 603 579 486 565 994 1178 2068 1849 1840 1744 1933 1720 1260 1456 1854 681 615 1866 665 1100 1044 1711 1621 1958 2060 1903 1738 2169 2068 1759 1782 1360 1294 1120 466 67 51 40 0 0 0
890 1059 844 763 676 588 959 1172 1662 2034 2015 1899 1761 1946 1612 1244 1842 1512 648 1244 1583 1424 1300 1936 1664 1901 1858 2275 1931 1733 1999 2208 1901 1680 1410 1167 752 82 36 47 66 0 0
769 1287 1159 1057 874 698 890 1090 1365 2098 2160 2203 1887 1988 1990 1769 1324 1950 1718 582 1739 1477 2420 2359 2100 2180 2009 2012 2336 2121 2124 1783 2018 1964 1514 1283 957 372 156 533 6 22 10
721 1162 1345 1266 1107 821 812 927 1228 1859 2219 2367 2414 2143 2159 2273 1802 1565 1624 2011 926 2167 1542 2544 2463 2343 2267 2282 2170 2308 2358 1886 2021 2052 1886 1615 1088 707 426 432 507 53 5
513 1040 1245 1426 1300 991 869 951 1031 1397 2204 2437 2578 2651 2487 2474 2514 2105 1770 1437 2048 1708 2780 1710 2409 2446 2422 2242 2356 2309 2307 2316 1791 2183 2177 1927 1406 1102 762 422 274 391 276
509 825 1231 1414 1494 1258 999 1016 1063 1250 1556 2438 2704 2726 2775 2675 2645 2587 2629 2325 1528 2165 2098 2621 2039 2607 2438 2474 2315 2406 2438 2395 2393 1883 2309 2278 1885 1384 1058 916 383 172 441
492 520 845 1291 1528 1582 1341 1209 1204 1333 1473 2166 2581 2837 2856 2818 2753 2772 2619 2784 2599 1892 2427 2369 2369 2601 2805 2799 2165 2396 2513 2508 2485 2505 2131 2476 1989 1525 900 838 705 391 62
0 26 81 647 1400 1659 1735 1635 1555 1465 1618 1742 2251 2680 2840 2868 2934 2844 2871 2730 2798 2864 2405 2305 2697 2430 2728 2714 1607 1540 2588 2543 2584 2596 2605 2370 2553 2038 1873 584 617 443 315
0 0 0 0 5 929 1986 1901 1926 1925 1759 1819 1941 2105 2764 2968 2971 3121 2933 3067 2940 3051 3137 2988 2656 3034 2876 2719 1611 760 2332 2660 2556 2724 2711 2657 2583 2520 2291 1972 1049 918 498
492 520 315 479 100 0 355 2330 2402 2445 2527 2180 2309 2298 2664 2814 3000 3062 3331 3248 3282 3200 3236 3324 3266 3186 3244 2762 1843 370 1763 2565 2710 2689 2674 2806 2770 2687 1716 2280 1957 1266 1124
848 702 542 276 970 701 385 1058 2340 2516 2440 2655 3038 3262 2826 3062 3005 3171 3264 3402 3459 3484 3496 3429 3561 3411 3441 3350 1699 339 2411 2591 2659 2712 2628 2380 2610 2826 1506 1909 2276 1902 1405
1132 624 620 445 552 902 311 318 1107 2223 2737 2550 2472 3109 3354 3440 3559 3320 3365 3554 3637 3695 3674 3761 3691 3715 3587 3514 2161 563 2379 2989 2989 2835 2677 2528 2140 1122 1214 326 2529 2259 1934
1452 1210 1122 1358 656 699 392 781 1999 2190 2285 2649 2780 3075 3288 3225 3520 3648 3745 3827 3920 3966 3932 3888 3864 3829 3810 3567 2949 702 235 3146 3225 3308 3184 2884 2336 1409 583 0 945 1414 1285
1767 2086 1964 1830 3845 3468 3254 2777 3142 3462 3083 3764 3136 3274 3427 3855 3242 3706 4157 4107 4028 4089 4022 3964 3940 3898 3817 3758 3526 2030 275 196 2081 3422 3343 3095 2670 1581 13 0 100 5 1080
704 1383 2016 2555 2714 2523 2467 2427 2559 2738 3741 3190 4457 3916 4244 4194 3745 4139 4061 4255 4090 4029 3880 3843 3831 3739 3617 3509 1896 989 76 1 1 751 1873 2104 1800 1962 1198 74 1 16 1496
119 540 868 1697 2241 2193 1916 2070 2258 2413 2604 3779 4594 4446 4370 4238 4287 3839 3584 3820 2900 3485 3766 3709 3392 3242 1531 0 0 0 132 814 600 512 1338 1979 2528 2320 2532 917 684 12 170
76 97 495 1269 1753 1527 1337 1341 1879 1963 2414 3672 3907 3891 3825 4130 4099 3932 610 0 36 0 0 364 0 0 0 0 0 1 2 2 2 0 1117 1501 2152 2670 2795 2656 2539 1330 316

GFSMW_con_sbcape_036.txt.gz
CAPE
130 156 125 104 78 48 39 14 0 168 274 401 274 72 53 19 195 285 288 299 674 1074 1059 946 670 237 215 644 117 34 6 0 0 0 0 0 0 2 9 42 20 2 42
256 201 189 156 112 80 65 31 9 10 392 242 340 88 3 18 147 33 313 319 788 1079 1093 973 619 721 384 502 292 410 16 0 0 7 0 0 0 0 0 6 20 8 14
221 267 168 227 160 107 93 59 45 0 142 275 174 400 403 237 278 61 660 480 932 1275 1353 796 774 793 709 712 609 576 66 0 0 3 0 0 0 0 0 0 0 0 0
234 204 105 237 111 155 49 179 167 88 57 344 176 419 447 628 419 195 189 783 1018 1281 1181 1054 1002 870 672 835 710 758 329 0 0 0 2 1 0 0 0 0 0 0 0
264 130 67 37 56 138 140 187 435 243 173 559 278 260 343 463 338 108 53 682 837 1258 1097 947 908 800 770 352 551 995 622 124 1 0 0 0 0 0 0 0 0 0 0
300 236 136 76 96 204 210 261 655 399 325 647 510 392 324 325 296 198 71 313 764 784 1185 1172 942 785 1093 749 257 420 937 539 221 0 0 0 0 0 0 0 0 0 0
279 242 228 148 126 351 284 347 438 993 697 661 778 667 574 459 472 222 81 378 471 553 986 1423 1198 1022 1043 981 646 470 1054 562 875 234 31 0 0 0 0 0 0 0 0
119 257 276 213 159 460 475 351 507 814 1011 906 810 841 807 732 574 224 130 173 722 564 640 1331 1324 1263 1178 1030 762 724 914 1149 640 727 55 1 22 22 0 0 0 0 0
124 196 287 280 209 467 670 565 512 607 1125 1005 1060 1153 1057 915 807 409 335 110 628 959 804 1022 1503 1249 1347 995 1124 849 951 1517 1072 565 828 88 1 4 17 0 0 0 0
226 130 269 352 278 504 733 857 809 715 1170 1195 980 916 1008 1509 996 497 435 881 386 721 1172 1045 1526 1441 1289 1162 1247 1258 1052 1215 1331 917 598 632 275 26 0 0 0 0 0
319 40 266 407 358 423 721 1252 1189 1058 1320 1490 1424 1131 799 798 1631 818 175 247 779 482 659 1189 1193 1652 1462 1270 1128 1335 1636 1198 1293 1429 972 646 479 252 6 0 0 0 0
302 157 451 436 421 442 702 1174 1592 1386 1378 1661 1663 1560 1323 856 839 1626 829 335 424 929 505 1218 1288 1429 1677 1616 1420 1285 1502 1851 1426 1499 1348 1071 746 516 75 0 0 0 0
302 561 559 449 510 421 633 1025 1589 1665 1543 1562 1555 1560 1565 1302 937 990 1682 1064 439 664 1212 1476 1441 1370 1545 1628 1826 1610 1488 1452 1749 1581 1521 1470 1029 976 540 32 29 4 0
725 645 668 566 618 474 508 897 1101 1832 1710 1701 1680 1513 1655 1688 1471 1112 995 1666 1357 354 956 1536 1896 1701 1730 1586 1653 1920 1881 1714 1612 1608 1648 1594 1400 1321 977 376 87 30 51
749 756 802 737 747 611 536 907 1068 1493 1874 1903 1921 1823 1634 1817 1925 1774 1299 1147 1336 1655 780 1156 1431 2165 2053 1996 1926 1825 1843 2035 2019 1632 1834 1774 1664 1458 1276 957 512 60 49
937 1074 1016 950 940 805 682 843 973 1335 1853 2015 2064 2086 2117 1932 2023 2142 2089 1604 1399 1171 1667 1551 1904 1642 2238 2301 1802 1993 2067 1948 1914 1983 1730 1712 1771 1432 934 685 911 420 267
949 1234 1224 1115 1181 1016 813 822 883 1075 1756 2041 2100 2270 2278 2424 2320 2276 2312 2325 2169 1849 1263 1378 1889 1956 2028 2129 1338 1263 2090 2127 2098 2057 2022 2001 1873 1699 1812 367 165 288 59
0 0 491 942 1196 1143 967 864 919 1020 1166 1562 2157 2290 2521 2521 2583 2548 2455 2460 2450 2578 2364 1775 1609 2125 2062 1983 1142 558 1847 2236 2206 2258 2225 2173 2201 2056 1922 2067 952 606 701
0 62 50 6 239 1394 1383 1191 1068 1123 1207 1324 1447 2298 2495 2782 2740 2672 2688 2654 2681 2566 2587 2665 2382 1954 2062 2077 1317 250 1415 2067 2463 2517 2348 2402 2396 2303 1520 1956 2183 1623 1120
17 3 0 126 130 19 866 1605 1490 1497 1417 1423 1599 1654 2243 2617 2780 2794 2795 2878 2764 2798 2710 2667 2778 2735 2591 2195 1165 252 2087 2242 2355 2510 2650 2076 2205 2567 1673 1417 2150 2272 2200
791 657 1119 833 67 5 257 1176 1497 1915 1916 1799 1592 1772 1794 2222 2622 2753 2867 2898 3023 2901 2921 2939 2866 2975 2724 2886 1474 160 2202 2733 2780 2715 2761 2724 2259 1160 1279 421 2389 2496 2493
1068 1843 2623 2422 2352 1508 1071 1921 1993 1921 1548 1909 2123 2410 2535 2255 2450 2574 2692 2875 2886 3094 3120 3114 3253 3222 3160 2976 2074 443 269 2825 3088 3228 3241 3111 2816 1700 270 0 489 1163 875
167 588 1582 1887 1916 1847 1840 1932 1944 2195 2532 2122 2034 2157 2342 2718 2823 2934 2784 2865 3089 3126 3249 3357 3421 3493 3281 3331 2515 1325 101 15 1867 3236 3396 3214 2834 1369 36 0 10 0 551
6 178 540 1593 1604 1586 1556 1686 1600 1694 2009 2527 2875 2397 2450 2717 2636 3046 3306 3312 3426 3539 3571 3633 3690 3675 3470 3423 1631 540 66 3 1 0 567 1122 1491 1427 1108 511 65 0 172
0 11 303 978 1292 1024 922 858 1260 1368 1735 1908 3100 3574 3090 2814 2922 659 1550 3212 3409 3468 3785 3740 3820 3550 3170 258 0 24 200 246 33 118 583 905 1256 1761 2300 2446 2341 1459 376
0 37 206 858 1007 901 862 827 1050 1282 1370 1657 2670 3374 3482 3436 2822 185 0 0 0 2 497 831 16 0 0 0 0 0 0 1 2 0 132 609 906 1291 1679 2143 2306 1990 1387

GFSMW_con_sbcape_039.txt.gz
CAPE
102 107 155 81 37 5 0 0 0 0 55 0 33 0 0 6 174 223 258 240 490 946 554 288 457 186 0 349 22 13 0 0 0 0 0 0 0 6 16 19 19 37 46
86 71 73 148 18 14 0 0 0 0 114 0 145 0 0 0 0 52 186 171 448 774 768 712 604 376 116 378 171 44 0 0 0 0 0 0 0 0 0 8 24 20 16
108 86 63 78 51 0 0 0 0 0 109 61 0 18 0 0 5 9 219 107 395 744 1008 787 538 419 293 280 182 215 0 0 0 0 0 0 0 0 0 0 1 11 1
104 102 89 70 54 0 0 0 0 0 5 19 35 85 23 12 0 0 111 269 443 785 1153 729 559 519 638 478 339 296 0 0 0 0 0 0 0 0 0 0 0 0 0
196 112 111 114 118 23 0 0 0 0 0 13 30 17 0 0 22 1 41 319 467 766 1136 921 673 618 598 446 522 531 167 0 0 0 0 0 0 0 0 0 0 0 0
264 209 144 137 166 81 12 0 0 0 0 8 0 0 5 17 200 63 27 142 464 614 965 918 665 518 612 376 187 394 386 221 4 0 0 0 0 0 0 0 0 0 0
233 215 148 167 184 159 47 21 15 10 0 4 26 0 0 2 99 123 10 5 322 450 765 929 738 578 545 671 250 109 447 319 531 3 0 0 0 0 0 0 0 0 0
110 219 160 117 150 146 107 48 124 57 20 37 118 41 0 1 28 29 20 2 117 390 565 905 959 796 691 733 540 316 262 603 229 423 0 0 0 0 0 0 0 0 0
47 169 235 164 94 104 123 107 147 206 120 115 216 223 148 171 161 55 5 9 71 277 309 714 1067 1020 949 784 668 468 459 877 658 267 324 16 0 0 0 0 0 0 0
48 116 231 196 127 116 153 160 155 294 335 270 310 392 397 377 352 161 69 0 46 466 469 503 831 1038 1035 863 763 663 539 662 887 774 331 389 133 0 0 0 0 0 0
55 130 185 217 171 94 273 192 191 219 462 524 487 531 623 613 551 489 202 346 19 306 710 619 719 985 1021 950 853 923 816 704 804 1043 830 477 294 308 21 0 0 0 0
192 204 170 162 215 163 320 391 270 279 371 677 619 665 808 954 998 741 318 157 411 187 335 767 797 971 1113 1041 965 983 1332 1048 916 965 1101 1038 667 367 92 4 0 0 0
255 281 190 145 264 226 265 595 541 460 383 701 789 735 707 668 874 1369 1151 167 52 365 301 487 790 943 1193 1286 1159 1146 1047 1334 1416 1267 1173 1306 1080 923 602 157 17 0 0
288 347 198 68 287 295 222 517 863 818 671 810 1013 1090 1072 947 693 661 1132 1183 354 245 512 658 861 975 1055 1333 1441 1413 1265 1120 1296 1576 1557 1506 1404 1297 1077 666 263 11 0
176 256 198 70 254 317 278 591 986 1236 1065 1043 1241 1301 1327 1277 1113 845 723 1124 1169 721 575 714 1042 1244 1214 1306 1351 1545 1579 1414 1325 1277 1408 1519 1574 1460 1337 1291 986 141 12
77 118 231 258 313 349 315 467 967 1495 1438 1341 1325 1329 1265 1373 1382 1250 1012 790 1076 1441 1069 644 849 1216 1574 1679 1290 1415 1527 1643 1648 1610 1445 1439 1347 1258 872 781 1018 990 619
36 95 261 396 404 425 381 493 842 1260 1636 1567 1537 1506 1395 1336 1483 1562 1484 1280 973 1010 1301 1402 1038 1003 1102 1361 1029 865 1737 1693 1652 1669 1670 1710 1681 1398 1616 623 197 118 147
47 291 457 535 512 556 492 486 869 968 1564 1720 1762 1764 1762 1656 1553 1661 1827 1823 1632 1304 1200 1088 1229 1411 1468 1515 513 386 1483 1944 1945 1864 1795 1743 1789 1740 1512 1665 1544 792 936
0 177 598 657 626 700 638 624 827 988 1302 1686 1868 1950 1982 2001 2048 1992 1933 2063 2107 2101 1949 1732 1332 1135 1339 1422 693 71 1212 1815 2018 2054 1990 2044 2051 1982 1512 1570 1842 1882 1573
356 2 128 538 793 740 681 687 834 864 1002 1461 1850 1996 2126 2223 2235 2361 2368 2262 2308 2319 2352 2450 2402 1920 1573 1537 454 5 1413 1712 1875 2112 2231 2008 2039 2235 1837 1386 1958 2079 2190
1870 1613 433 38 0 265 876 912 887 958 1028 1039 1113 1509 2142 2281 2466 2446 2461 2510 2516 2556 2539 2501 2428 2478 2146 2148 607 10 1541 1979 2112 2182 2283 2362 2225 1268 907 342 2235 2369 2405
546 1455 1585 1567 1532 1203 960 1107 1770 2096 1274 1064 1086 1231 1406 2198 2314 2558 2605 2556 2633 2662 2638 2589 2610 2565 2551 2295 922 34 80 2079 2437 2747 2918 2885 2694 1563 303 0 201 992 615
89 542 1243 1256 1192 1298 1394 1558 1496 2041 1587 1581 1609 1392 1507 1528 1821 2352 2464 2664 2660 2772 2863 2840 2795 2843 2741 2686 1872 261 0 11 1549 2810 3203 3175 2572 999 0 0 0 0 0
1 149 730 808 666 593 773 1003 1122 1338 1670 1994 2201 1680 2086 2274 2056 2126 2301 2416 2607 2746 2775 2884 2987 2972 3000 3181 3129 794 20 1 1 6 548 813 937 1062 1245 906 296 0 0
0 2 124 589 575 444 502 632 999 1181 1401 1595 2136 2913 2148 1552 1422 1 657 1859 2357 2197 2999 3081 3193 3294 3471 2914 1225 1127 1133 891 311 313 556 819 1016 1188 1284 1638 2060 1886 672
0 0 0 49 367 280 369 575 691 848 993 1253 1077 1714 2868 2164 141 0 0 0 1 3 429 1718 1244 0 123 0 0 0 0 0 0 66 248 239 359 497 551 333 16 0 0

GFSMW_con_sbcape_042.txt.gz
CAPE
19 67 72 29 9 0 0 0 0 0 0 0 0 0 0 0 60 0 196 265 501 968 533 351 232 171 127 446 152 25 0 0 0 0 0 0 0 23 23 24 21 57 101
29 61 78 41 0 0 0 0 0 0 0 0 0 0 0 0 10 64 135 205 542 896 693 309 456 66 210 484 198 27 8 0 0 0 0 0 0 0 0 7 21 26 27
38 55 51 66 15 0 0 0 0 0 0 0 0 0 0 0 0 0 37 79 440 658 929 703 562 533 174 420 233 129 0 0 0 0 0 0 0 0 0 0 3 30 6
58 47 35 1 23 23 0 0 0 0 0 0 0 0 0 15 0 0 9 94 270 574 917 877 580 495 518 505 438 244 22 0 0 0 0 0 0 0 0 0 0 0 0
71 69 44 15 50 0 0 0 0 0 0 0 0 0 1 0 0 0 0 95 180 408 933 913 655 580 713 447 630 535 272 0 0 0 0 0 0 0 0 0 0 0 0
84 84 60 1 0 0 0 0 0 0 0 0 0 0 0 0 0 0 0 21 210 385 729 1009 740 672 644 637 627 602 410 274 5 0 0 0 8 0 0 0 0 0 0
122 109 77 52 26 0 0 0 0 0 0 0 0 0 0 0 0 0 0 0 102 309 550 798 727 591 572 723 395 382 691 474 523 75 0 0 0 0 0 0 0 0 0
180 155 121 84 49 40 0 0 0 0 0 0 0 0 0 0 0 0 0 0 62 314 519 699 822 715 668 722 655 333 339 663 518 710 102 0 0 0 0 0 0 8 0
174 170 189 143 77 54 16 0 0 0 0 0 0 0 0 0 0 0 2 0 7 223 441 628 927 906 827 844 820 727 719 758 765 544 577 176 28 0 0 0 0 28 27
38 78 129 111 118 87 89 0 0 6 9 0 0 5 0 0 1 1 0 0 2 255 384 507 795 989 1034 995 920 864 672 735 980 910 637 558 378 70 0 2 0 0 0
14 8 57 146 109 109 113 49 18 28 28 45 53 88 97 72 117 90 24 0 0 155 332 398 576 899 1069 1142 1067 1121 1018 846 962 1025 1095 1070 517 568 235 4 0 0 0
49 0 18 107 121 74 94 74 58 65 139 134 148 178 244 266 267 264 128 86 8 145 417 513 565 713 947 1047 1151 1218 1353 1181 1142 1121 1139 1321 1080 820 592 214 92 1 0
77 43 36 55 123 108 105 115 100 103 197 267 239 247 331 430 445 450 350 184 264 157 265 500 706 776 978 1098 1133 1203 1325 1475 1471 1402 1305 1378 1317 1446 1175 789 460 67 1
30 45 67 103 153 164 125 204 153 147 186 397 431 417 482 583 679 682 641 161 271 484 413 498 613 874 1025 1262 1343 1329 1344 1386 1578 1670 1569 1530 1531 1554 1720 1199 1024 827 430
2 32 66 104 144 182 153 374 351 251 253 357 612 602 606 636 697 905 1136 741 287 392 453 578 656 845 1028 1141 1461 1595 1560 1520 1483 1539 1685 1771 1655 1401 1496 1705 1632 1255 973
0 7 86 143 115 194 210 388 578 520 428 405 671 758 773 749 710 619 640 1189 1094 853 657 605 739 843 966 891 803 1295 1726 1757 1690 1627 1566 1625 1262 1130 854 659 964 1454 1350
0 0 57 150 96 224 271 372 652 809 765 681 796 993 1069 1116 1050 931 778 733 1011 1252 1125 856 898 979 1177 1017 444 421 1574 1740 1827 1847 1823 1775 1689 1319 1791 1039 184 161 141
0 0 90 174 121 244 307 287 723 1184 1148 1069 1100 1235 1295 1299 1308 1288 1192 1041 909 951 1283 1397 1186 983 1025 857 226 104 1201 1673 1792 1844 1924 1964 2061 1983 1820 1979 2064 1910 1482
0 0 50 177 176 251 306 420 854 1386 1479 1447 1442 1454 1452 1371 1369 1462 1506 1458 1413 1195 1066 1137 1326 1471 1420 693 197 0 1085 1694 1846 1969 2061 2056 2069 1870 1341 1848 2094 2190 2242
638 1 93 163 209 299 310 575 822 1186 1599 1647 1669 1697 1693 1653 1563 1544 1599 1747 1829 1856 1754 1574 1484 1205 1361 1139 238 0 1148 1396 1615 1992 2175 1745 1902 2016 1579 1190 2137 2314 2424
1187 395 291 334 316 366 397 638 805 980 1148 1482 1761 1835 1901 1927 1943 1935 1913 1910 2053 2155 2255 2308 2280 2180 1571 1624 459 0 1208 1792 1936 1999 2141 2325 1919 1099 993 412 2063 2250 2307
723 1112 1116 998 596 414 569 677 777 799 771 1117 1610 1885 1995 2128 2201 2225 2322 2404 2364 2405 2478 2510 2562 2576 2654 1794 1347 5 39 1537 2026 2297 2400 2432 2127 1338 122 0 75 624 482
64 470 573 732 900 1123 1411 1588 1539 2000 1072 868 1075 1224 1870 2157 2374 2493 2512 2553 2623 2684 2681 2714 2745 2790 2772 2693 1199 442 0 2 958 2340 2552 2634 2680 966 47 0 0 0 0
0 14 353 401 382 505 781 950 1221 1590 1451 1477 1295 1201 1333 1645 2211 2426 2641 2771 2732 2740 2871 2938 2933 2922 2957 2997 2976 591 92 1 1 4 711 701 876 931 1218 935 483 1 17
0 0 1 133 134 204 401 560 734 1063 1465 1994 2589 1890 1817 1576 1075 7 574 1718 1892 2039 2874 2913 3060 3113 3153 3198 3094 3036 2037 1096 440 535 658 898 1179 1339 1165 1153 1415 1380 547
0 0 3 3 71 82 360 421 401 482 835 1295 1361 2372 2016 1536 78 0 0 0 1 3 695 2061 2096 0 57 2 2 1 2 11 2 535 715 519 421 391 194 58 4 1 0

GFSMW_con_sbcape_045.txt.gz
CAPE
0 27 95 188 404 482 421 425 449 683 518 385 364 248 79 193 512 828 1154 1343 1361 1638 2002 1651 1546 1596 1593 1547 1423 490 261 93 107 92 72 63 47 338 274 260 296 429 368
1 35 121 151 281 471 440 458 429 681 684 428 674 234 468 639 911 1250 1399 1468 1423 1901 2127 1891 1652 1625 1472 1785 1431 1109 75 64 55 55 63 36 38 35 117 283 384 505 486
16 29 122 235 200 355 420 454 556 671 754 762 581 608 742 747 835 1147 1464 1489 1479 1864 2255 1946 1683 1674 2060 2382 1712 1157 331 46 137 57 32 21 23 47 27 139 327 682 641
12 16 113 223 213 267 303 600 632 633 681 930 794 1192 578 607 777 1004 1215 1565 1561 1638 2017 2288 1956 2148 1678 2021 1725 1475 734 291 163 156 73 59 74 16 18 11 161 365 630
142 92 95 206 196 240 219 196 684 975 1086 1172 1192 936 1017 657 858 806 1243 1728 1690 1629 1699 2035 1986 2236 2148 2030 1993 1923 1648 331 79 111 451 585 73 19 6 18 34 31 109
366 281 184 206 219 213 225 208 648 933 1059 1009 1012 1513 1674 1231 810 944 814 958 1310 1431 1625 1819 2113 2138 2024 2143 2087 2170 1972 1592 691 74 297 365 331 244 137 66 308 234 216
465 396 296 256 306 528 378 489 591 720 811 957 1125 1245 1592 1797 1449 1265 835 957 748 1191 1594 1928 2111 2054 2300 2231 2093 2234 1952 1961 1566 1476 188 34 80 151 293 262 293 284 413
549 489 380 533 567 654 802 423 694 771 791 856 1183 1374 1575 779 757 1244 722 691 534 768 1422 1933 1927 2112 2230 2225 2196 1979 1986 1975 1947 1884 1792 1178 634 76 136 199 216 296 651
662 581 491 527 713 683 735 786 840 811 771 543 1077 1279 1408 1365 990 1538 1246 747 1192 600 1326 1760 1886 1980 2083 2212 2292 2054 2301 2105 2270 2161 2213 1917 1420 914 514 257 276 463 559
768 691 640 606 748 633 686 748 773 864 867 760 882 936 1221 1322 1374 1376 1444 1406 903 991 990 1783 1893 2061 2097 2225 2394 2086 2313 2550 2347 2063 2182 2167 1526 1475 1124 842 624 497 516
703 765 902 910 777 553 685 772 667 908 835 847 882 1011 981 1012 1143 994 1094 1594 1159 1319 1550 1862 1947 2063 2133 2249 2476 2396 2245 2552 2633 2466 2300 2389 2413 1975 1699 1371 1092 898 643
495 755 816 799 818 999 892 766 840 634 821 869 968 975 964 1021 875 1264 997 1387 1669 1389 1620 1702 1908 2031 2060 2141 2333 2266 1998 2454 2522 2597 2608 2458 2148 2449 2451 2150 2041 1507 1351
307 510 468 750 1095 1075 1097 987 915 651 582 922 636 851 986 909 1311 1427 1385 1450 1605 1718 1325 1560 1775 1998 2002 2122 2237 2312 2378 2411 2398 2485 2695 2727 2619 2614 2278 2427 2238 2118 2023
182 333 222 582 925 1056 1197 1207 1018 764 770 738 835 1135 1267 1343 1304 1647 1783 1341 1857 1816 1769 1764 1902 1849 1979 2062 2155 2268 2423 2495 2472 2561 2612 2709 2798 2855 2919 2779 2772 2652 2489
3 264 352 540 874 1188 1149 1237 1160 1205 1034 1297 1210 1335 1479 1609 1765 1940 2011 1762 1741 1976 2018 1905 1743 1827 1801 1703 2128 2343 2521 2626 2672 2677 2737 2771 2584 2221 2402 2687 3236 2859 2604
1 26 296 654 781 1092 1143 1144 1235 1300 1359 1509 1498 1623 1737 1855 1941 2108 2182 2040 1971 1953 2180 1835 2059 1924 1656 1051 1025 1738 2301 2742 2869 2824 2806 2815 2073 1774 1054 748 1047 1925 3437
446 250 3 682 910 1092 1292 1218 1327 1417 1472 1594 1780 1939 2022 2040 2139 2246 2401 2534 2298 2061 2213 1922 1983 2199 2480 1263 436 368 1927 2421 2699 2897 2954 2895 2495 2201 2657 1808 284 199 226
318 604 314 36 1001 790 881 1246 1277 1571 1595 1726 1892 2128 2198 2173 2260 2320 2382 2575 2514 2608 2519 2198 2295 2304 2526 1517 402 2 1411 2602 3004 3092 2898 3199 3240 2998 2579 2726 2738 2833 2951
135 922 890 0 849 1049 1360 1520 1703 1732 1747 1837 1961 2215 2324 2357 2427 2402 2402 2197 2084 2151 2419 2321 2486 2460 2532 1196 556 17 1615 2093 2889 2997 2970 3002 3043 2510 2206 2591 2726 2966 3090
1111 772 180 5 817 1220 1234 1630 1694 2004 2018 2071 2133 2379 2531 2611 2690 2809 2824 2820 2466 2136 2003 2115 2396 2239 2773 1948 50 0 1601 2071 2022 2899 3132 2071 2018 2309 1805 2221 2600 3074 3148
879 726 493 1038 1222 1450 1471 1814 2099 2312 2170 2078 2183 2717 2819 2899 3000 3114 3202 2839 2631 2832 2669 2494 2596 2474 2288 2423 683 0 1639 1986 2214 2294 2388 2550 1686 1241 781 494 2854 3192 3238
444 1205 946 1092 1336 1591 1766 2029 2344 2713 2950 3037 2941 3118 3159 2587 2569 3165 3028 2937 3163 3000 3135 3051 2973 2859 2858 1850 1264 0 50 1876 2498 2859 2960 3151 2443 1652 400 0 446 550 319
458 816 1357 1547 1500 1284 1848 1997 2184 2723 2936 3202 3315 3159 3136 2929 3356 3169 3201 2857 3061 2919 3036 3047 3095 3130 3242 3415 1507 179 0 1 1391 2782 2842 2525 2217 1588 423 0 16 0 0
40 581 1039 1281 1545 1891 2122 2286 2479 1972 2390 2995 3261 3299 3268 3058 3269 2930 3001 3016 3088 3125 3180 3257 3318 3375 3540 3684 3662 1950 315 14 32 223 1502 1804 1647 1527 1692 961 335 2 2
0 101 534 901 1007 1420 1371 1322 1771 2630 2300 2231 2503 2646 2704 2815 3181 3287 1937 3191 3497 2745 3387 3518 3570 3638 3751 3722 3491 3641 3498 2415 1176 1350 1935 2019 2007 1839 1966 1543 1383 1572 841
0 0 21 612 679 723 657 632 585 1228 2390 3255 2691 2139 2068 2194 2730 993 24 0 0 2 499 2364 3266 1243 519 1066 1175 1165 2078 2255 978 1023 1718 1648 1309 1147 948 647 482 457 209

GFSMW_con_sbcape_048.txt.gz
CAPE
62 47 48 42 94 176 425 440 562 744 706 397 183 371 604 683 901 973 1370 1914 1794 1971 2410 1870 1118 1258 795 862 1220 585 952 176 133 74 29 21 41 357 229 145 76 204 142
75 41 56 112 158 321 502 637 665 893 975 273 439 338 553 511 770 1234 1837 2006 1957 2198 2085 1594 1157 1449 1425 819 867 1161 220 111 101 86 51 44 56 68 139 177 158 222 176
138 109 108 164 219 468 620 776 906 943 1039 707 222 556 640 916 1199 1529 1541 1857 2027 2167 2243 1626 1430 1050 1192 976 1255 1352 681 113 222 410 500 40 318 64 90 299 185 346 271
137 189 234 311 268 450 664 826 1088 1101 989 879 796 1619 754 687 496 1046 1049 1642 2084 2062 2227 2307 1777 1503 1895 1309 1268 1243 404 728 137 72 41 315 505 110 317 86 150 288 346
251 238 326 428 354 338 602 857 1161 1594 1695 1298 1435 756 1000 101 304 719 1313 1832 2356 2136 1928 2287 1667 1683 1369 1729 1796 1868 1550 270 224 50 120 310 257 280 216 152 293 242 175
434 338 355 481 524 426 509 751 1638 1795 1564 1265 986 1739 1444 859 521 1118 898 978 1180 1839 2159 2227 2398 1705 1464 2030 1811 1748 2065 1383 666 202 352 326 422 473 379 271 514 413 414
851 577 441 476 629 639 522 555 1409 2193 1792 1137 1295 1128 1517 1801 1513 1331 1053 1410 572 819 1605 2403 2667 2297 2259 2170 2048 2069 2180 2104 1509 1684 167 59 165 321 386 471 376 481 510
892 940 796 543 653 717 653 631 1173 1817 1837 1575 2257 2422 2191 967 978 1494 1062 834 541 546 877 2160 2208 2414 2371 2425 2527 2549 2147 2071 2077 2051 1830 682 588 558 228 274 462 421 679
896 1044 1062 867 690 813 1241 1360 1688 1749 1532 1136 2209 2423 2344 2152 1370 2390 1474 1063 1541 642 866 1173 1930 1920 2205 2440 2495 2037 2485 2298 2400 2424 2416 2109 1006 1121 818 634 533 544 664
905 1044 1107 1086 870 824 882 900 968 1559 1342 1144 1292 1429 1461 2092 1981 1753 2192 1843 1234 1471 948 1358 1414 1604 2092 2312 2612 2125 2365 2612 2476 1934 2115 2525 1224 1281 1335 1170 912 800 811
869 1063 1116 1135 1074 870 862 970 1047 1205 1362 1469 1710 1711 1429 1377 1615 1517 1629 1792 1766 1660 1930 1414 1365 1792 2232 2401 2644 2476 2122 2714 2755 2605 2343 2578 2674 1996 1423 1332 1232 1200 1055
577 887 952 1032 1111 1095 941 953 1026 1083 1236 1862 2306 1683 1770 1762 1350 1712 1629 1883 1967 1939 2036 1862 1740 1707 1867 2348 2690 2608 2041 2510 2636 2691 2695 2678 2323 2769 2751 2047 2328 1991 1964
229 682 725 932 1068 1198 1219 996 991 987 1063 1443 1257 1224 1330 1349 1827 2022 1901 2143 2003 2151 1929 1965 2068 2007 1796 2288 2594 2655 2556 2449 2590 2737 2765 2842 2967 3074 2592 2431 2124 2082 2377
54 171 563 743 1150 1414 2168 2022 1230 994 956 1163 1172 1775 1623 1701 1582 2437 2457 1906 2442 2265 2220 2153 2122 2178 1877 1826 2270 2471 2643 2527 2552 2817 2846 2944 3174 3408 3523 3478 3381 3228 3097
12 149 293 734 1627 2038 2512 2154 1441 1699 1418 2055 1288 1994 2458 2441 2509 2778 2746 2336 2708 2456 2427 2413 2252 2235 1948 1534 2124 2096 2195 2558 2696 2774 3030 3108 2950 2756 2991 3297 4363 4345 3412
0 0 70 329 806 1362 2230 2536 2532 1956 1922 2548 2185 2482 3012 3033 3057 3239 3339 3164 2898 2840 2617 2481 2417 2348 1931 991 835 1200 1818 2223 2658 2889 3018 3155 2635 2467 2123 1787 1642 1818 3646
123 236 130 79 448 941 1765 2157 2664 2259 2377 2795 2727 2952 3216 3288 3357 3383 3586 3478 3420 3005 2869 2606 2773 3171 3090 1462 514 559 1681 1767 2441 3083 2842 2604 2021 2463 2908 1462 1049 846 628
357 471 548 657 137 544 857 1489 1699 2769 2813 2997 3027 3188 3404 3253 3539 3631 3702 3858 3273 3453 3294 2894 3398 3600 3312 1968 914 29 1936 2324 2535 2769 2890 3409 3320 2891 2496 2865 2834 2926 3107
568 774 862 924 1124 289 723 1500 1444 2019 2626 2992 3226 3308 3405 3333 3362 3484 3638 3428 3243 3312 3209 2980 3532 3733 3773 1665 1135 137 1993 2185 3004 2849 3112 3563 3633 2840 2313 2801 3047 3087 2996
526 876 1398 1639 1392 1397 525 1044 1532 1896 2736 2909 3154 3460 3571 3572 3592 3673 3728 3798 3347 3204 2877 2995 3378 2875 3425 2567 326 331 2202 2474 2150 3332 3928 2248 2155 2526 1998 2831 2780 3063 2803
407 1205 1626 1727 1543 1177 629 2064 2110 2299 2636 2214 2318 3058 3437 3822 3680 4051 4039 3914 3382 3378 3686 3376 3697 3685 3245 3236 772 0 2349 2139 2083 2022 1939 2161 1501 1641 1048 700 2813 3031 3219
813 1682 1224 841 699 562 1774 2847 2827 2782 3047 3111 3070 3566 3839 2883 2856 4149 3936 3781 3737 3843 3935 3691 3391 2969 3289 2370 856 0 213 2004 2470 2403 2227 3333 2655 1368 704 115 1098 1336 1047
23 1515 1589 1150 1151 1470 1846 2265 3089 3177 3055 3139 3654 3438 3445 3355 3975 3969 3998 3463 3803 3320 3245 3226 3163 2979 3037 3460 1740 0 0 76 1525 2810 2927 1499 1592 1119 672 428 449 81 1767
0 217 1223 1922 2028 1773 1815 2094 2538 3586 3205 3305 3579 3326 3350 3280 3314 3331 3380 3261 3239 3238 3137 3208 3240 3223 3361 3642 3958 2338 409 59 204 1016 2079 2669 2176 1419 1810 2626 1655 1230 668
0 0 132 842 1059 1326 1636 2259 2655 2698 2984 3164 3240 3366 3382 3293 3390 3290 1806 3181 3667 2250 3314 3323 3460 3571 3703 3823 3741 3868 4049 3322 2281 2714 3084 3132 3092 3212 3052 2885 2480 1906 1018
0 0 0 32 279 435 728 1102 1865 2709 2447 2530 2735 2927 2939 3255 3293 3445 1893 0 0 1 55 1029 2129 2609 1364 2206 3066 3091 2962 2789 1579 1957 3295 3228 3050 2652 2382 1898 1276 1198 836

GFSMW_con_sbcape_051.txt.gz
CAPE
312 277 176 114 71 55 79 501 959 2144 1078 674 698 720 735 861 1141 2040 1633 1841 1555 1618 1918 1305 1453 1496 1218 2190 730 462 443 73 89 28 19 28 28 125 42 57 82 72 105
357 322 238 154 66 64 169 1040 1528 2454 1494 716 1255 1061 1316 673 691 747 1819 1846 1786 1878 1237 1869 2296 1122 1500 1339 969 1119 742 47 488 1335 50 208 481 127 179 54 76 168 165
446 348 262 188 115 167 328 1145 1975 2405 1942 1425 982 1092 1300 1060 666 1751 1522 1894 1924 1961 1827 1511 2144 1447 2175 1099 1308 1189 1964 457 27 471 1272 839 331 365 84 242 213 372 343
494 387 292 251 164 230 340 1428 1669 2426 2003 2190 690 1703 906 535 359 965 991 1679 1860 1969 1932 1784 1814 1549 1343 2428 1591 1448 1806 1390 318 16 108 917 598 1250 632 107 169 250 318
396 408 336 334 285 281 473 623 2127 2486 2333 2246 1710 1056 1409 423 387 281 2998 2150 3072 1981 1904 1798 1925 2122 1598 1723 1773 1837 1833 395 2106 776 37 309 210 1196 589 912 346 371 194
524 404 423 378 381 358 498 1001 2252 2799 2724 2508 2016 2354 1605 1508 212 635 1230 1077 1420 1692 2217 2057 2160 2057 1819 2262 1973 1852 1758 2307 1160 942 720 881 736 801 363 407 839 432 482
613 536 476 488 740 945 922 1361 2287 2857 2726 2458 1834 2039 2418 2256 2535 2160 646 1042 518 701 2912 3106 2825 2276 2236 2107 2213 2420 2068 1858 1602 1654 525 185 363 344 478 406 419 435 493
617 601 625 600 1107 1236 1386 1456 2285 2868 2901 2315 2256 2073 2413 662 194 1373 777 519 336 506 3533 2537 2185 2421 2516 2176 2778 2188 1983 2350 1860 1899 2681 1125 385 514 468 396 601 678 834
829 776 683 708 1098 1287 1619 1617 2264 2767 2768 1498 2390 2653 2397 1627 540 1169 2406 1517 1865 634 1654 2309 2203 2234 2041 2811 3266 1823 2405 2750 2486 2675 2455 1965 1014 854 731 539 610 658 899
769 872 948 845 817 927 1244 1463 1796 2570 2651 2123 2406 2427 2591 2774 2210 2527 3129 2310 2347 2502 1366 1749 1787 2049 2503 2703 3776 2631 3186 3130 2309 1659 3757 3445 1757 1346 1202 1091 899 701 731
603 842 1017 1122 977 915 1028 1150 1487 2011 2153 2347 2348 2005 1994 2142 2524 2859 3057 3072 2771 3157 2950 2433 2315 2322 2293 2936 3858 3620 2704 2769 3373 3074 2713 3094 3824 1961 1152 1176 1114 1063 1042
434 842 941 1199 1270 1145 1031 1192 1127 1158 1735 2041 2692 2326 2195 2141 2092 2457 2875 3291 3450 2907 3098 3081 2904 2621 2453 3352 3583 2795 2274 2751 2935 2947 3470 2614 2273 3862 3997 2491 3843 2216 2627
169 724 880 1081 1263 1352 1578 1113 1165 1016 1084 1970 1926 2295 2079 2342 2095 2737 2721 3223 3449 3601 2322 3304 3539 3035 2723 3310 3596 3690 3175 2905 2934 3041 3461 3304 3565 4177 3011 3688 2414 1898 2674
251 394 796 831 1145 1776 2251 2114 1383 1050 937 1278 1389 2189 2407 2444 2233 2556 3061 3126 3537 3717 3574 3761 3664 3241 2987 2868 2817 3280 3489 3450 2942 3319 3395 3527 3775 4255 4634 3870 4611 3837 3434
80 235 573 1427 2261 2289 2718 2621 1750 1961 1413 1795 1665 2160 2647 2528 2676 2586 3199 3256 3579 3629 3930 3955 3740 3527 2637 1963 2839 3314 3494 3740 3385 3403 3418 3425 3333 2639 3528 3293 4160 4315 3825
0 33 164 430 1319 2423 2816 2886 2535 2340 1938 2258 1966 2160 2715 2756 2765 2826 3277 3643 3760 3838 3987 3941 3918 3638 2164 1290 921 1977 2906 3415 3728 3867 3965 3932 2664 2274 2239 2287 2324 2403 3664
0 22 0 190 372 906 2405 2488 2939 2418 2639 2836 2491 2717 3146 3153 3179 3211 3544 3763 3865 4080 4223 4114 4035 3977 3793 1517 509 545 1971 2823 3275 3679 4016 3471 2039 2768 3796 2070 1943 1623 1064
154 223 240 191 110 429 810 1800 2148 3205 3170 2949 3471 3000 3496 3449 3616 3706 3741 3914 3955 4008 4174 4275 4288 4216 4080 2344 833 27 2303 2444 2890 3581 3813 4108 3833 3813 3427 3877 3741 3663 3818
827 812 808 720 778 332 408 1834 1910 3356 3179 3554 3548 3480 3582 3743 3927 3968 3992 4080 4111 4138 4173 4311 4440 4423 4283 2119 1321 95 2308 2358 3164 3359 3394 3507 3916 3559 2748 3352 3509 3755 3841
746 898 1020 1057 1130 1254 868 668 1645 2391 3322 3632 3526 3751 3725 3956 4004 4079 4207 4353 4268 4250 3707 4116 4362 4032 4562 3343 507 299 2290 2709 2433 3445 3840 2753 2554 2923 2272 3368 3923 3998 4105
807 1022 1402 1454 1684 1791 1459 1633 1782 2409 3104 3374 3695 4015 3965 4135 4187 4331 4378 4417 4381 3702 4356 4199 4285 4371 4085 4384 1444 0 3083 2542 2359 2197 1930 2236 1718 1723 1401 1040 3450 3554 3519
115 602 2126 2244 2229 2223 2653 2735 2327 2741 3370 3622 3712 4061 4235 3789 3599 4467 4458 4488 4489 4468 4624 4512 4312 3722 4499 3252 628 0 460 2587 2904 2366 1332 1734 1173 634 516 94 1043 1603 1536
1 71 1763 2547 1508 2331 2797 3160 2416 3887 3725 3907 3935 4135 4282 4269 4213 4405 4555 4065 4443 3358 3537 3437 3160 2877 3116 3683 1947 0 0 462 1802 2491 1231 1533 1807 344 0 44 1234 901 2366
0 0 512 2722 2708 2671 2161 2648 4450 4035 4188 4149 4092 4254 4222 4268 4206 3681 3740 3253 3162 3215 2913 2935 2661 2370 2267 2077 2842 1688 117 34 420 1494 2029 2285 1851 1844 2531 2624 272 2471 3342
1 2 2 96 523 1268 1968 2388 3221 3887 3525 4077 4137 3934 3618 3404 3952 3968 2808 3337 1051 1572 2920 2239 1834 1579 2063 1879 2164 3008 3276 2665 2150 2422 2753 2731 3044 3408 3827 3914 4204 4160 2880
1 1 1 4 4 5 2 4 397 3651 3524 3696 3336 3481 3036 3404 3548 1957 1136 0 143 1 3 3 465 2520 387 1710 1031 3030 2743 2788 2372 2540 3359 3646 3699 3661 3885 3679 3022 2157 1603

GFSMW_con_sbcape_054.txt.gz
CAPE
143 195 91 66 138 92 563 1203 1479 2134 1481 1339 1386 1154 1256 411 573 1500 1726 2931 2810 2198 554 1251 1968 1804 1654 568 2552 1443 1357 1080 120 541 200 292 388 259 817 558 227 323 1025
244 265 134 70 94 163 504 1287 1504 1931 1408 1468 1683 1931 844 1485 1209 235 2733 2719 2168 2876 2533 2086 2175 606 1785 2571 2372 1735 2171 696 1507 1102 1510 330 772 294 96 863 420 380 582
409 417 170 108 136 258 487 1055 1667 1789 1435 1830 1453 2680 2850 2110 1394 2433 2406 2707 2240 2781 2357 2431 2643 3004 2294 2353 2444 2391 1760 1535 551 670 1654 257 348 476 688 486 742 615 577
481 512 310 234 101 352 450 1000 1600 2087 1427 2081 1197 1908 1518 1563 973 1593 1613 2521 3103 2521 3131 2825 2692 1881 1764 1682 2874 2456 1874 569 1707 654 1330 1208 1116 530 800 1048 978 622 525
459 518 364 384 149 389 435 705 1378 2157 1507 1517 1683 1354 1703 1416 2347 1572 2453 2698 3473 3457 2917 3136 3310 2922 2539 2901 2676 2675 2496 2738 1871 775 1091 1164 1310 1989 1254 676 1049 923 1016
533 518 530 460 317 414 387 826 1151 1675 1967 1535 1737 1803 1375 2176 1621 1623 2021 2240 2554 2818 3224 2738 3514 3619 2674 2622 2680 2886 3043 2766 2517 1806 2175 120 1287 1601 1383 1405 1645 1349 1025
583 614 609 559 511 354 521 836 1213 1249 1712 1816 1248 2210 1438 1505 2613 2759 1980 1751 1955 1749 2832 3118 3350 2883 3209 3041 2999 2989 3316 3095 2840 2376 2323 789 833 362 1487 1160 1644 1161 1377
620 604 585 616 567 473 632 762 1417 1445 1507 2029 1329 1464 2130 983 1259 2149 1395 2169 1929 1830 2625 3166 2742 3324 3277 3199 3339 2713 2754 2954 3067 3072 3075 2661 2244 1280 1480 1366 1587 1402 1824
443 598 714 681 715 722 714 1073 1431 1685 1808 1462 1878 1168 1967 1786 757 1615 2109 2256 2074 1772 2696 2876 3369 3243 3213 2918 3410 2710 2901 3155 3278 3224 3494 3210 2257 2110 1580 1841 1484 1882 1418
35 295 776 822 1007 872 1026 1056 1552 1737 1959 1688 1740 1488 991 1543 1617 601 1661 1628 2803 2596 2857 3060 2878 3165 3395 3274 3465 2930 2992 3475 3007 2767 3181 3314 2385 2695 2436 2230 2358 1909 1624
153 154 150 1012 1063 1091 1297 1119 1400 1866 2135 2123 1659 1501 1263 1185 998 1587 538 2529 1910 3855 3283 3613 3248 2900 2952 3459 3681 3107 2973 3143 3321 3534 3680 3518 3346 3147 3015 2695 2170 2130 2489
328 86 3 0 1083 1184 1218 1315 1268 1882 2069 2188 1804 1581 1615 1224 1139 644 2176 1973 3313 2782 4287 3302 3819 3032 3009 3089 3202 3196 2062 2772 3186 3287 3293 3562 3174 3727 3468 3176 3351 3564 3935
51 2 27 101 1104 1105 1250 1424 1361 1300 1981 2277 1914 1863 1650 1748 1662 1189 1175 2358 2180 3048 2535 3637 3050 3246 2682 2857 3185 3198 2892 2872 3219 3109 3417 3319 3643 3812 3620 3710 2901 2557 2946
238 176 626 645 1263 1284 1312 1360 1449 1385 1437 1953 2027 1992 1752 1659 1390 1862 1282 2126 2709 2522 2796 2762 3212 3106 2704 2534 2972 3272 3160 3005 2811 3377 3002 3438 3533 3580 3933 3563 3637 3691 3591
68 192 346 418 1158 1799 1649 1516 1555 1379 1386 1682 1753 2001 2214 1902 1685 1705 1943 1549 2086 2545 2854 2844 3113 3108 2845 2330 2499 2735 3191 3169 3102 3035 3253 3267 3409 3062 3517 3563 3781 3702 3725
149 197 25 1758 1548 2064 1888 1790 1680 1619 1498 1521 1664 1893 2166 2090 2106 1799 2045 2206 2128 2561 2852 3060 3067 3275 2767 2065 1410 2084 2401 3261 3140 3100 3110 3545 2499 2119 2115 1883 2238 2429 3453
2 182 257 271 641 1589 2168 2072 1936 1831 1735 1803 1791 1901 2309 2451 2165 2374 1919 2436 2329 2526 2847 3080 3255 3273 3198 1901 836 774 2043 2465 3005 3401 3275 3293 2712 2478 3179 1936 1234 1456 1478
1 1099 140 367 653 266 719 2562 2392 2202 2221 1977 2279 2047 2384 2385 2499 2294 2424 2131 2523 2550 2877 3142 3273 3424 3349 2566 712 59 1335 2131 2715 2895 2872 3191 3133 3092 3461 3412 3329 2655 2695
0 905 615 659 1229 1172 1263 2358 2883 2484 2354 2372 2372 2304 2224 2420 2405 2376 2355 2335 2675 2848 2888 3135 3417 3450 3497 2670 1701 3 979 1639 1947 2073 2275 3091 3549 2941 2449 2190 2513 2685 2971
941 792 689 688 853 1270 1232 1326 2195 3019 2364 2375 2543 2829 2210 2706 2564 2542 2575 2650 2837 2980 3009 3127 3307 3348 3558 3003 1102 102 1820 1824 1910 2306 2571 2301 1963 2150 2140 2285 3264 3071 3006
741 820 1008 1273 1527 1620 1660 1702 1644 2152 3102 2493 2780 2977 2880 2731 3071 3139 3107 3104 3238 3218 3306 3238 3357 3659 3534 3667 1094 0 2155 2210 2327 2260 2315 2608 2352 2012 1516 1259 2584 2780 3028
330 456 892 1158 2187 2540 1881 1847 2287 2431 2962 3323 2850 3679 3587 2973 3346 3522 3649 3570 3543 3678 3616 3723 3757 3767 4011 3189 863 1 227 2353 2561 2478 2463 2280 1852 1022 729 49 542 1551 1324
78 94 531 1512 3364 2682 3210 2236 2616 2982 3897 3794 3215 3605 3701 3731 3423 3774 3781 3831 3852 3758 3636 3715 3632 3672 3660 3825 2328 73 0 227 2045 2696 2001 913 1132 85 0 0 254 357 970
2 0 78 342 344 351 1085 3584 3098 3370 3458 3567 3681 3589 3948 3792 3537 3840 3786 3880 3805 3834 3734 3391 3566 3436 3526 3561 3803 424 0 0 67 1458 1899 1354 1780 2111 1913 869 12 1157 2657
3 2 5 5 4 2 325 845 1252 3149 2842 3926 3705 3573 3695 3430 3814 3499 3727 3797 3668 3404 3514 3361 3147 3445 3215 2911 2629 2686 1940 1553 1008 1800 2311 2571 2453 2404 3208 3743 3598 2675 3251
10 5 2 2 3 4 4 34 333 992 4105 3749 3693 3488 3568 3615 3744 3301 1740 0 481 53 771 1215 2679 786 295 354 124 492 2136 1752 1561 1758 2649 2740 2771 2752 3031 3480 3579 3159 2641

GFSMW_con_sbcape_057.txt.gz
CAPE
136 58 9 10 55 0 0 5 375 230 874 752 716 698 189 350 429 952 1630 1344 1278 905 503 391 828 184 14 0 612 107 95 191 53 0 28 6 36 70 134 126 281 777 726
192 42 14 12 57 15 0 222 606 308 582 404 538 532 436 28 193 970 1310 1296 918 781 168 285 1008 564 665 955 860 977 482 257 35 78 369 32 8 169 32 67 47 157 715
90 66 9 0 12 90 84 316 743 378 508 166 310 938 334 549 257 271 1002 1372 1451 1227 1412 1132 1116 605 850 812 818 919 914 142 44 60 214 17 64 92 147 12 88 7 264
51 43 2 0 0 29 137 369 726 465 443 201 106 555 468 595 272 428 997 1453 1194 1325 1404 846 964 1163 1184 1126 1027 1234 915 52 443 6 146 107 98 92 92 224 169 48 332
63 51 7 0 12 53 54 488 714 485 262 640 87 252 289 681 352 758 1083 1295 1587 1494 1302 1296 1387 1068 614 627 978 1369 1178 1087 938 30 79 6 62 397 467 217 148 101 95
176 131 44 10 48 76 95 388 915 408 292 294 712 89 196 388 578 580 580 1511 1681 1844 1905 1474 1399 1197 1101 1235 1070 1589 1133 1116 1360 804 1041 43 142 592 456 321 253 120 133
180 248 120 75 31 98 122 277 608 792 292 255 345 834 106 188 384 848 1412 1315 1498 1575 1689 1449 1846 1866 1396 1133 1239 1545 1612 1546 1334 1550 910 791 527 85 579 291 318 422 276
0 276 214 171 95 161 119 245 325 675 712 250 166 444 699 75 352 867 913 1217 1296 1106 1678 1463 1623 1302 1659 1578 1536 1214 1369 1635 1263 1275 1769 1198 968 1062 387 85 152 210 392
316 89 341 237 208 202 170 217 309 312 822 647 90 261 1079 116 176 370 495 349 736 977 1244 1719 1494 1751 1759 1748 1760 1125 1596 1654 1730 1308 1151 1823 1243 1076 1042 408 138 384 290
521 423 397 325 212 233 223 241 410 327 689 745 521 99 352 931 106 149 394 571 274 625 1352 2050 1564 2008 1706 1412 2002 1204 1633 1403 1744 1820 1850 1565 1480 1003 1754 818 954 687 257
419 291 315 379 83 202 202 322 682 517 556 515 809 321 106 697 610 168 6 522 392 1753 1927 1931 2022 2111 2007 1829 1669 1396 1798 1437 1711 1770 1578 1735 1659 1506 1715 2365 1885 1157 962
408 283 194 205 51 133 342 320 548 816 800 728 621 803 248 226 565 397 69 0 613 660 1857 1964 1846 1746 1709 1986 1911 1865 1770 1660 1868 1969 1733 1796 2154 1940 1604 2006 1882 2000 2072
329 50 84 189 199 104 298 502 473 899 996 1067 713 845 671 136 368 149 317 15 735 548 1455 1720 1742 1760 1650 1598 1868 1879 1865 1666 1773 1908 2047 2008 1658 2196 2411 2019 1988 1842 1712
262 127 76 55 36 26 159 492 501 752 1002 1155 1189 911 749 660 78 122 1 740 283 1849 1404 2100 1609 1803 1422 1676 1723 1977 2033 1897 1747 2158 1968 2012 2269 2073 2235 2534 2448 2272 2316
128 19 13 2 309 154 295 415 658 525 1020 1223 1322 1167 914 661 630 204 143 0 1117 553 1430 1498 2090 1720 1858 1525 1573 2132 2081 2048 2034 1749 1946 2152 2105 2439 2461 2577 2604 2723 2655
0 0 0 0 150 74 28 0 351 692 636 1271 1422 1327 1102 891 772 741 846 212 107 1461 1011 1247 1637 2087 2048 1943 1502 1539 2072 2200 2156 2183 1957 2210 2270 2094 2187 2255 2720 2863 2848
0 0 0 29 35 3 6 0 1 833 815 857 1344 1360 1202 1191 909 835 715 1025 328 465 1497 1633 1728 1780 2102 2001 1500 927 1435 1496 2167 2182 2126 2102 2226 2205 2232 1998 1210 834 787
0 150 35 376 394 304 6 0 5 193 911 924 1062 1285 1321 1324 1278 1106 843 942 1089 740 830 1423 1814 1880 1969 2190 1108 477 769 1328 1426 2197 2240 2179 2165 2097 1902 2014 2128 1667 1048
0 7 0 7 399 187 1 0 3 4 0 1012 1030 1268 1295 1355 1464 1176 1200 898 1195 1311 1113 1466 1768 2020 2101 1986 1415 35 39 787 1246 1548 1793 2050 2206 2196 2282 1754 2121 2318 2704
0 0 0 0 61 564 29 1 2 0 14 244 1299 1237 1231 1493 1494 1419 1236 1425 976 1133 1515 1368 1700 2067 2151 2072 1049 19 898 377 697 982 1156 1718 2017 2453 2259 1494 1596 1418 1529
0 52 178 154 287 504 747 488 168 38 889 1105 1448 1638 1309 1491 1544 1589 1461 1369 1462 1263 1365 1623 1648 2009 2133 2333 1066 8 1504 1302 851 887 1020 1341 1412 947 851 454 1276 1885 2184
0 81 60 54 140 692 581 1084 852 841 1542 1854 1660 1543 1636 1472 1696 1559 1586 1486 1473 1513 1533 1794 1885 1928 2283 2201 1405 73 80 1667 1405 1237 1278 1173 1477 1469 959 15 32 609 360
0 0 0 0 88 141 204 674 859 1528 1730 2453 1871 2177 2314 1578 1843 1733 1703 1746 1766 1777 1934 1980 2101 2152 2258 2587 1558 233 0 9 1305 1616 1486 1610 1319 248 4 0 3 0 38
0 0 5 37 24 0 0 177 486 712 1310 2422 2874 1945 2463 2187 1636 2280 2052 2170 2215 2222 2134 2275 2266 2377 2398 2616 2936 284 0 0 0 1154 864 313 366 522 1172 78 0 0 177
0 0 1 0 0 0 0 0 1 17 521 1770 2922 2514 2455 2270 2248 2440 2469 2514 2532 2486 2441 2407 2439 2397 2601 2477 2714 2581 1235 749 367 724 1188 630 685 1100 1195 1818 564 99 1166
1 0 0 1 1 0 0 0 0 0 27 933 2284 2849 2350 2550 2660 2389 241 2 162 701 1924 2467 2565 2543 1055 2242 2350 1739 1467 1033 549 385 1527 1572 1733 1817 1644 1918 2603 1678 1556

GFSMW_con_sbcape_060.txt.gz
CAPE
20 9 11 129 104 107 70 21 52 156 246 272 85 337 203 166 187 768 896 694 325 0 0 274 338 0 14 9 268 44 35 100 31 0 9 9 35 0 34 245 419 587 611
6 12 3 2 8 2 3 80 130 81 214 220 222 244 117 39 159 649 961 870 629 316 35 202 489 102 132 64 420 285 217 46 8 18 69 0 0 0 0 13 222 245 681
62 52 0 45 1 0 39 133 153 214 257 143 255 414 122 51 124 570 776 915 738 449 260 462 598 146 273 373 361 350 150 8 12 20 25 0 0 2 18 0 0 0 451
100 45 0 21 0 0 81 271 170 320 269 94 190 516 272 285 58 296 648 961 853 740 896 815 699 91 431 332 321 745 102 30 37 5 50 11 4 0 18 31 72 0 173
105 81 0 56 0 0 21 398 197 255 305 72 18 221 235 153 60 148 608 778 877 811 1027 539 604 658 642 420 388 866 777 402 276 10 24 0 14 61 81 89 93 2 0
44 80 4 5 28 16 0 517 280 209 272 117 0 38 192 161 344 207 532 777 1080 1022 872 679 798 561 365 288 469 628 194 473 772 168 176 13 44 282 277 84 27 0 0
33 30 72 4 0 44 88 442 295 181 210 224 289 0 55 36 271 298 525 891 1166 1161 1166 989 882 671 683 864 478 812 1136 719 886 965 349 226 243 0 120 11 122 160 93
0 118 128 25 0 23 61 361 336 205 138 220 292 384 13 0 152 222 593 919 1145 1224 1396 955 1042 1185 831 712 672 797 724 1049 722 752 1106 779 374 588 208 0 0 47 45
184 294 148 51 7 11 31 122 383 212 108 81 38 208 626 61 9 486 691 756 882 799 1296 964 1089 977 1079 897 841 645 738 939 1102 817 493 872 884 419 470 180 0 11 100
332 400 191 97 78 96 33 30 163 346 302 112 5 11 189 678 0 10 215 598 603 743 961 1186 1012 1024 1031 1070 1030 653 811 946 901 1195 1348 812 871 722 1081 1083 230 89 0
334 382 327 153 169 159 143 109 40 98 502 469 185 2 15 241 461 0 0 96 145 273 656 1344 1083 1131 1214 899 1302 833 732 1037 880 1070 1060 1248 1105 1067 993 1302 1356 1150 326
378 351 360 295 180 187 162 184 168 120 96 532 451 187 0 38 520 378 1 0 117 618 1051 1464 1244 1201 1351 1048 879 1163 1128 1153 1011 1087 1291 1367 1659 1525 1145 1193 1349 1256 1111
382 196 38 0 0 41 211 240 300 279 144 267 459 442 121 0 95 463 236 0 0 75 1342 1429 1549 1378 1376 1400 1240 1103 1103 1025 1135 1191 1318 1324 1116 1567 1667 1418 1472 1438 1595
189 16 36 28 8 0 2 97 246 519 363 270 387 461 566 149 0 111 271 201 0 0 377 1483 1365 1298 1295 1259 1375 1233 1174 1148 1114 1205 1282 1464 1481 1239 1349 1735 1867 1900 1802
111 0 0 0 0 0 0 26 158 418 611 538 543 394 572 611 176 0 107 2 163 13 134 856 1379 1346 1206 1090 965 1139 1221 1229 1241 1264 1326 1541 1564 1669 1621 1678 1808 1880 1833
0 0 0 1 53 1 0 45 59 250 788 820 810 785 499 662 608 207 0 0 0 337 194 984 1237 1234 1418 1207 1136 1163 1292 1323 1382 1397 1337 1280 1552 1561 1661 1644 1981 2041 2066
0 0 0 56 177 90 22 23 3 0 167 903 950 1019 990 757 633 578 218 27 4 0 527 327 1080 1461 1358 1388 723 777 1180 1456 1566 1531 1559 1535 1812 1734 1754 1683 912 561 1380
0 0 0 0 12 29 56 22 0 19 5 47 1027 1252 1216 1065 823 618 634 430 322 11 0 718 525 921 1402 1652 677 368 857 1001 1141 1672 1779 1710 1742 1606 1605 1609 1665 1578 1217
0 0 0 0 57 7 12 3 138 88 15 0 3 803 1450 1253 1039 825 718 700 749 602 37 293 1242 1078 1026 1051 675 26 649 968 977 913 1289 1638 1672 1648 1640 1459 1657 1668 1773
0 0 0 0 10 387 69 15 98 203 14 0 7 0 578 1320 1160 1090 891 839 695 791 784 428 375 1129 1495 1288 468 1 1025 810 761 845 908 1095 1659 1846 1629 1161 1448 1433 1358
0 0 0 0 39 145 71 14 18 8 8 3 0 40 73 736 1269 1221 1166 1061 928 823 948 945 790 893 1135 1324 374 0 1190 1384 869 583 679 757 891 661 1049 351 1231 1494 1561
0 0 0 0 4 154 310 694 405 243 54 0 1 26 154 612 1159 1267 1289 1160 1150 986 849 1077 1226 1075 1235 1232 510 1 58 1479 1503 1136 635 681 611 390 124 0 131 431 178
0 0 0 0 0 90 36 12 155 572 531 422 784 505 1178 1294 1136 1251 1255 1256 1162 1319 1194 945 1061 1357 1386 1518 769 18 0 5 1053 1554 1190 767 649 349 27 1 3 0 0
0 0 0 0 0 0 0 0 0 0 10 89 310 1340 1640 1594 1262 1220 1183 1353 1310 1268 1324 1330 1270 1328 1525 1640 1831 340 0 0 0 674 964 480 296 128 124 39 0 0 0
0 0 0 0 0 0 0 0 0 0 2 1 71 717 1635 1137 1524 1390 1365 1342 1421 1380 1370 1356 1419 1493 1611 1701 1869 2001 1339 770 344 320 579 37 45 220 223 420 383 0 0
3 3 0 0 0 0 0 0 0 0 2 3 2 569 1995 1809 2020 1532 402 1 78 677 1055 1076 1575 1697 1710 1849 1878 1760 1475 1025 568 10 814 954 746 777 911 664 1029 495 128

GFSMW_con_sbcape_063.txt.gz
CAPE
0 0 9 11 29 41 21 0 0 70 196 0 6 158 185 162 268 326 745 468 175 5 0 216 298 33 10 15 54 14 34 76 5 0 0 0 0 0 143 259 227 367 376
0 0 0 95 59 7 1 0 3 92 204 47 43 203 111 117 163 463 664 564 212 3 22 211 297 4 0 40 329 83 185 32 0 1 4 0 0 0 0 0 135 261 439
4 0 8 92 50 7 3 0 0 109 110 65 106 86 107 57 84 490 684 770 576 374 98 140 261 84 29 323 258 167 49 9 0 0 0 0 0 0 0 0 0 32 90
29 15 0 51 77 7 8 0 0 69 90 22 150 248 185 131 37 280 485 896 835 560 234 392 617 82 219 209 230 393 51 5 14 0 14 0 0 0 0 0 0 0 0
90 17 0 0 0 0 0 0 3 57 86 0 104 166 126 109 0 76 447 693 779 576 774 630 734 170 361 239 206 737 349 54 75 0 11 0 0 0 0 23 13 0 0
115 69 10 0 0 0 0 10 3 56 44 12 0 91 171 143 95 53 218 403 796 687 768 499 511 507 338 302 133 478 286 332 311 36 11 2 14 88 57 31 8 0 2
54 71 0 0 0 0 25 79 0 32 37 8 0 0 70 96 161 101 73 476 757 899 908 627 591 420 435 170 234 551 307 300 604 152 29 8 44 0 18 0 34 37 33
46 92 0 0 0 0 1 217 45 3 36 18 4 0 0 3 52 88 81 333 626 976 965 747 802 673 486 676 370 701 603 831 358 713 898 242 202 259 75 0 0 0 0
163 146 42 3 0 0 2 167 115 0 29 44 9 4 0 0 0 68 144 222 576 862 950 843 840 886 834 592 488 597 613 681 770 572 276 442 449 264 171 42 0 0 24
215 38 87 1 0 30 32 114 168 81 27 49 34 44 80 4 0 0 216 396 501 569 832 1007 723 863 908 828 611 537 447 501 717 975 892 421 437 434 400 627 45 0 0
44 59 22 45 8 36 48 94 150 144 89 85 63 7 4 195 76 0 0 51 323 462 514 1005 941 785 883 885 903 732 507 830 770 653 935 919 782 874 723 899 974 664 72
70 274 185 51 46 17 8 31 114 193 149 95 71 0 0 0 251 19 0 0 0 2 209 562 1031 886 907 851 949 1097 1076 687 825 868 835 1029 943 1225 910 798 1047 858 574
39 0 0 1 0 8 21 1 9 52 144 194 135 43 0 0 0 154 75 0 0 0 269 609 996 913 907 1006 812 831 1016 1002 957 1020 963 948 1079 1285 1150 1049 1143 1114 1153
0 0 0 0 0 0 0 0 1 33 37 125 301 224 84 0 0 0 46 42 0 0 0 870 1139 1143 986 1059 1116 991 885 878 941 986 1040 1194 1226 1189 1038 1047 1463 1396 1499
0 0 0 0 0 0 0 0 0 3 42 35 161 307 267 105 0 0 0 0 0 0 0 73 1091 1112 1140 1172 1115 1200 1137 1066 976 986 1039 1141 1266 1396 1380 1239 1176 1239 1361
0 0 0 0 0 0 16 0 0 0 146 152 108 212 292 299 93 0 0 0 0 0 0 0 56 974 1210 1236 1129 1144 1120 1029 1027 961 880 1029 1371 1273 1208 936 1299 1786 1609
0 0 0 0 0 0 7 25 0 9 234 325 227 224 263 312 433 186 0 0 0 0 0 4 132 200 727 1156 797 344 901 835 919 993 1018 1009 1321 1246 1268 1313 923 307 298
0 0 0 0 0 0 0 30 30 3 18 524 508 451 466 306 416 475 208 0 0 0 0 0 24 385 538 748 534 130 615 984 937 1028 1091 1134 1231 1310 1373 1411 1429 1286 1106
0 0 0 0 0 0 90 113 36 91 68 49 287 736 721 713 465 499 478 348 53 0 0 0 0 4 250 580 321 0 367 715 826 787 916 1284 1376 1401 1266 1273 1355 1300 1251
0 0 0 0 0 0 0 2 3 122 136 53 12 8 417 952 910 728 561 494 384 217 85 1 0 0 134 107 59 0 743 850 923 958 735 650 1046 1269 1150 592 1119 1273 1442
0 0 0 0 0 0 0 0 18 25 24 19 11 0 4 12 928 988 766 617 548 532 513 461 84 0 221 576 0 0 713 858 853 843 859 805 665 371 547 69 1194 1282 1395
0 0 0 0 0 0 0 0 2 28 372 431 21 2 2 45 153 379 1028 845 680 536 564 569 607 490 184 238 127 0 22 797 933 892 781 694 674 295 4 0 17 535 246
0 0 0 0 0 0 0 1 0 0 1 5 29 211 427 41 49 274 649 1149 1055 904 790 703 710 787 764 611 70 0 0 1 580 1058 1064 900 558 167 0 0 0 0 0
0 0 0 0 0 0 0 0 0 0 0 1 5 3 18 400 1077 898 739 779 1200 1193 1093 983 874 781 918 1020 933 18 0 1 0 184 538 563 125 16 23 1 0 0 0
1 0 0 0 0 0 0 0 0 0 0 0 1 0 2 181 1052 1196 1000 1064 1164 1215 1207 1162 1105 917 843 937 1148 1213 760 335 117 257 361 904 214 456 138 29 33 0 0
1 0 0 0 0 1 0 0 0 0 0 0 0 0 2 2 171 1312 978 1 236 829 771 864 1113 1179 949 986 916 884 1032 799 343 14 899 815 948 1028 1006 883 571 170 0

GFSMW_con_sbcape_069.txt.gz
CAPE
128 227 111 237 167 28 124 252 539 804 735 616 550 880 965 884 945 1040 1305 1268 1463 1502 1561 1738 1281 1181 940 1124 1192 1032 1292 995 871 776 685 827 1053 1031 1052 1179 1287 1298 1238
123 106 160 184 171 113 189 382 589 865 892 608 741 894 1034 1012 1236 1302 1418 1391 1547 1434 1391 1577 1293 1306 737 1445 1356 1200 1175 993 561 574 706 335 402 513 734 902 918 1057 1067
89 87 131 129 167 190 263 376 630 888 1042 729 785 867 969 1009 1212 1391 1384 1436 1551 776 1093 1488 1383 1246 959 1359 1622 1310 1465 707 552 817 627 366 453 827 765 972 717 878 856
66 83 98 72 106 205 290 421 573 780 1067 956 846 965 948 967 1049 1334 1239 1543 1730 1374 1024 1389 1485 1346 839 1584 1643 1652 1266 685 674 641 726 835 868 682 708 753 791 911 818
146 59 58 94 34 148 253 347 495 675 1048 1109 1054 979 1153 1008 1243 1328 1807 1754 2206 1834 1455 1320 1568 1607 1652 1794 1850 1982 797 892 653 548 773 857 673 1040 1104 813 937 984 884
196 141 82 144 137 188 253 269 421 766 890 1056 1016 1094 1178 1221 1119 1212 1502 1491 1757 2564 1897 1640 1857 1863 1786 1925 1811 2071 2161 1908 1714 1327 1125 660 915 1140 1149 1083 1378 1304 1236
364 196 155 128 259 288 325 329 395 587 755 910 992 1011 1114 1448 1521 1563 1280 1545 1556 1856 2102 2148 2289 2067 1853 1989 1939 2044 2156 2060 1779 2015 1259 1039 1528 1523 1619 1130 1085 1132 1308
558 380 254 249 355 365 440 438 429 538 614 776 1214 1353 1136 1014 1057 1390 1089 1234 1312 1544 2111 2235 2207 1981 1900 1742 1819 1838 1754 1788 1753 2200 2279 1608 1638 1789 1864 2047 1226 1015 1034
759 572 373 317 370 437 495 508 563 589 566 623 1069 1072 1107 1101 1215 1262 1352 1132 1481 1356 1933 2203 2228 2053 1981 2009 1944 1596 2049 2257 2191 1906 2090 1867 1727 1642 1527 1900 1428 1384 1154
799 753 535 294 334 447 491 496 603 675 687 603 743 755 789 989 1106 1288 1489 1385 1495 1673 1643 2012 2194 2241 2218 2110 2101 2001 2009 2131 1896 1776 2197 2039 1446 1560 1605 1689 1860 1750 1838
390 703 669 458 364 324 372 418 537 626 627 591 900 789 629 617 814 862 1244 1572 1684 1791 1922 2067 2085 2279 2256 2356 2320 2108 1938 2127 2076 2008 2099 2244 2439 1654 1719 2079 2199 2152 2005
82 445 558 334 346 319 291 302 435 489 519 802 1069 816 900 676 578 690 816 1328 1645 1730 2003 2066 2222 2354 2287 2343 2425 2296 1868 2012 2062 2017 2071 1913 2018 2632 2570 2271 2753 2440 2591
0 0 0 0 164 323 281 189 252 414 337 518 560 746 749 751 740 812 726 876 1186 1596 1611 2152 2298 2389 2390 2456 2412 2378 2335 2279 2029 1998 2172 2127 2281 2508 2210 2639 2560 2438 2723
0 0 0 0 0 1 83 270 259 214 376 415 336 630 578 780 865 1340 1055 798 1085 1121 1304 1621 1928 2323 2436 2434 2400 2437 2484 2468 2269 2194 2147 2175 2294 2534 2830 2637 2800 2736 2740
0 0 0 0 0 0 0 2 76 98 301 555 587 620 863 795 500 758 1435 1121 946 1078 1175 1143 1272 1525 1639 1670 2190 2370 2371 2354 2373 2305 2247 2150 2017 1830 1962 2082 2377 2697 2871
0 0 0 0 0 0 0 0 6 37 144 213 664 912 1203 1202 1141 1070 1005 1412 1179 1057 1165 998 1053 1170 935 478 853 1625 2183 2329 2353 2397 2357 2285 1430 1169 817 624 886 1394 2688
0 0 0 0 0 0 0 0 10 37 142 239 215 644 1021 1174 1335 1011 1095 1315 1310 1386 1256 1015 1125 1398 1557 475 238 404 1548 2134 2490 2519 2436 2243 1747 1759 2253 1009 131 93 48
0 0 0 0 0 0 0 0 0 0 23 614 233 466 830 954 1170 1062 1144 1274 1062 1303 1374 1126 1209 1336 1209 432 4 0 1314 2078 2033 2242 2508 2516 2386 2259 2099 2206 2162 2171 2169
0 0 0 0 0 0 0 0 0 0 0 90 532 774 805 880 934 1085 1469 1158 912 977 988 993 1197 1221 1236 73 0 0 927 1221 2222 2160 2195 2513 2451 2174 1310 1888 2129 2225 2252
0 0 0 0 0 0 0 0 0 0 0 2 74 229 659 464 1256 1096 1188 1249 1230 980 817 723 861 721 1257 488 0 0 295 792 864 1696 2303 1098 1482 1554 840 1409 1964 2185 2071
0 0 0 0 0 0 0 0 0 0 0 0 75 22 48 402 365 605 1576 1317 1299 1335 1298 1025 1069 1062 794 939 0 0 455 578 806 636 635 680 200 132 61 65 2263 2293 1878
0 0 0 0 0 0 0 0 0 0 0 0 7 0 6 40 255 537 424 1635 1825 1864 1679 1673 1320 1057 1152 189 76 0 0 336 850 1224 928 887 354 0 0 0 228 971 746
6 8 6 7 0 1 5 3 3 5 0 0 9 2 0 10 40 438 611 681 965 1674 1893 1603 1488 1563 1491 1270 0 0 0 0 386 941 933 637 334 0 0 0 0 0 399
10 11 16 19 11 4 6 5 3 12 6 0 9 3 0 4 10 37 214 474 573 976 1394 1668 1644 1633 1701 1673 1555 295 3 0 0 13 401 496 255 194 526 360 8 22 725
7 7 8 17 24 23 10 7 2 5 15 3 7 18 0 1 9 5 21 412 836 695 693 1187 1525 1455 1667 1603 1365 1410 1225 589 107 125 498 863 980 1057 1093 1102 1216 1286 1009
24 34 28 27 27 25 24 13 8 19 25 17 9 14 7 2 7 6 0 0 0 17 149 101 162 1234 1140 1018 859 656 597 210 18 156 1074 1360 1239 1102 977 1209 1409 1380 1112

GFSMW_con_sbcape_072.txt.gz
CAPE
159 158 480 462 562 249 103 302 473 881 914 954 877 961 1107 1117 1165 1305 1568 1607 1551 1616 1855 1413 1407 1257 841 1388 1615 1241 1176 601 851 638 455 443 831 624 474 586 559 849 866
221 220 551 581 396 205 0 266 466 1077 990 555 744 911 1068 1094 1235 1356 1683 1297 1625 1578 1399 1370 1419 1110 793 1474 1457 1346 480 505 768 468 513 316 623 506 417 496 474 653 624
288 405 679 578 287 212 145 346 731 1096 934 595 963 1599 1568 1805 2164 1713 1578 1585 1896 1731 1701 1916 999 1770 1177 729 1459 1289 1362 270 617 1298 630 523 476 709 450 660 383 754 554
541 429 545 554 322 258 290 452 921 1203 1164 1251 1107 1413 1026 810 938 1333 1311 1773 1854 1574 1542 1903 1885 1982 1100 1319 1520 1389 1222 1475 174 352 606 1545 1403 866 666 364 512 570 502
237 583 479 578 399 359 397 547 1092 1352 1334 1548 1226 1426 1500 939 1205 1116 2282 1891 2297 1643 1587 1867 2035 2026 1620 1699 1523 2046 1718 852 162 150 559 1121 1120 1820 1018 418 400 393 485
393 455 554 556 499 462 567 628 1098 1594 1625 1838 1997 1629 1401 1400 834 1239 3047 1227 2055 1708 1830 1710 2124 2044 1737 1866 1672 2015 2034 1481 960 506 947 726 1100 1062 875 704 719 725 870
900 706 661 612 566 451 604 737 1100 1542 1628 1689 1807 1836 1799 1807 1675 2115 795 1433 1551 1230 1893 2014 2012 1720 2077 1617 1451 2348 1733 2290 1320 1655 798 831 1345 1554 1548 1084 873 929 1071
1071 878 798 718 693 600 694 820 1104 1515 1535 1541 1781 1967 1862 1563 1456 1380 806 1183 1153 1360 1720 1967 1628 1797 1767 1668 1679 1622 1329 1441 1735 1831 2094 1171 1432 1610 1594 1594 1371 889 833
1202 990 907 849 806 860 832 1020 1156 1618 1617 1470 1639 1919 1963 1788 1189 1266 1411 1138 1225 1204 2083 1545 1496 1513 1952 2082 2284 1786 1811 1672 2015 1664 1727 1883 1458 1489 1464 1544 1537 1517 1123
1117 1233 1000 970 871 935 959 1084 1199 1539 1707 1599 1573 1646 1775 1885 1707 1583 1720 1411 1107 1611 1635 2226 2015 1682 1987 2395 2501 1508 1936 1919 1548 1198 1884 2220 1272 1661 1497 1413 1491 1559 1516
377 361 869 890 926 1010 1057 1087 1182 1304 1585 1610 1567 1563 1548 1579 1767 1685 1730 1784 1522 1653 2127 2219 2316 2188 1921 2210 2768 2080 1686 2362 2063 1669 1754 2273 2198 1569 1303 1571 1615 1641 1626
0 0 0 0 50 877 983 1060 1177 1185 1331 1439 1634 1627 1673 1531 1350 1610 1563 1624 1719 1709 2158 2562 2368 2460 2174 2516 2576 2086 1656 1880 1929 2138 1962 1977 1626 2485 2364 1837 2024 1843 1869
0 0 0 0 0 0 7 825 941 1004 926 1229 1333 1405 1404 1419 1431 1361 1544 1506 1593 1732 1837 2121 2494 2403 2333 2771 2804 2255 2044 2262 2152 2150 2106 2212 2024 2145 1667 2197 1644 1768 2119
0 0 0 0 0 0 0 0 351 857 885 1098 1128 1268 1256 1276 1417 1499 1538 1509 1616 1649 1755 1978 2189 2280 1790 2225 2486 2677 2293 2218 2118 2437 2370 2129 2144 2418 2685 2522 2708 2637 2359
0 0 0 0 0 0 0 0 3 46 609 927 1199 1205 1312 1370 1402 1542 1787 1723 1648 1622 1621 1624 1765 2043 2112 1563 2156 2626 2517 2636 2535 2603 2718 2425 1761 1699 2076 2362 3127 3285 2615
0 0 0 0 0 0 0 0 0 4 4 754 799 1089 1500 1574 1598 1592 1538 1796 1888 1869 1761 1636 1439 1436 1282 928 1063 1782 2514 2531 2586 2576 2790 2712 1709 1546 1596 1483 1284 1231 2655
0 0 0 0 0 0 0 0 0 0 0 0 727 885 1125 1572 1695 1779 1788 1704 1626 2045 2299 1862 1772 1957 1830 495 180 725 1475 1744 2156 2442 2407 2478 1953 2019 2349 885 546 313 261
0 0 0 0 0 0 0 0 0 0 0 0 12 529 710 1050 1545 2168 1931 1868 1812 1854 1994 2169 2489 2469 2060 727 177 0 1299 1796 2266 2183 2238 2856 2821 2213 2185 2338 2123 2271 2226
0 0 0 0 0 0 0 0 0 0 0 0 0 35 39 1082 1209 1397 2062 1969 2043 1921 1759 1772 2302 2576 2563 669 273 0 1055 1059 2086 2333 2662 2908 3077 2360 1493 2192 2188 2332 2221
0 0 0 0 0 0 0 0 0 0 0 0 0 0 71 94 548 1279 2072 2548 2165 2021 1764 1765 1856 1518 2258 1457 32 0 787 1178 690 1653 2514 1599 1742 1947 1337 2460 2576 2590 1988
0 0 0 0 0 0 0 0 0 0 0 0 0 0 1 24 5 409 1746 1843 2300 2563 2397 2111 2148 1947 1808 1781 35 0 894 839 880 731 461 484 344 616 251 339 2835 2430 1442
0 0 0 0 0 0 1 0 0 0 0 0 0 0 0 1 0 37 41 1006 2297 2528 2487 2815 2167 2021 2134 1089 675 0 7 602 1113 1461 989 1208 510 0 0 0 437 823 580
1 1 1 3 1 1 3 6 5 6 3 0 0 0 0 0 2 12 38 48 997 1547 2451 2865 1990 1926 1984 2204 856 0 0 0 146 1067 1153 875 71 0 0 0 1 0 580
6 6 6 6 9 14 15 10 11 14 9 3 1 0 0 0 0 0 0 0 11 436 958 1511 2495 2636 1974 2150 2301 1158 105 0 0 17 44 510 642 504 714 577 28 91 629
17 12 14 13 14 14 19 13 12 11 10 8 1 0 0 0 0 0 0 0 0 53 358 1230 1661 1910 1832 1849 1866 1771 2328 2003 723 437 930 1190 1194 1285 1361 1182 998 1027 844
18 19 19 21 17 16 17 26 27 18 13 16 7 0 0 0 0 0 0 0 0 0 0 0 0 577 779 261 72 548 643 599 155 680 1114 1540 1682 1683 1650 1414 1203 1188 957

GFSMW_con_sbcape_075.txt.gz
CAPE
173 269 130 382 308 248 179 417 544 1267 931 901 715 811 1316 1998 1943 2205 1670 1527 1829 1444 1635 1185 1373 2339 1852 2044 1301 1179 1358 747 709 1648 589 442 507 457 238 392 447 584 779
166 214 143 471 396 341 222 335 583 1299 1036 987 1677 728 1290 1503 1618 2032 1573 1490 1555 1633 1583 2253 1628 1915 1275 1581 1227 2122 2475 853 790 2019 1291 586 430 283 371 307 288 582 501
171 214 322 455 514 343 141 314 675 1308 1340 1219 1035 1103 1230 1921 1747 1839 1300 1531 1616 1528 1671 1993 2661 1267 2303 1076 1541 1261 1906 1904 221 1431 1093 1378 904 657 592 462 397 687 522
286 220 309 518 416 223 1 258 586 1193 1153 1332 1700 2375 1308 1470 766 1678 2034 1592 1752 1614 1682 1646 1733 1720 1616 2322 1126 763 2415 1519 584 250 532 1509 1764 2286 232 294 326 376 526
374 318 497 586 313 184 181 447 1106 1809 2043 1862 2259 1649 2097 1063 1107 1812 2107 2327 2022 1712 1574 1893 1900 2025 1952 1732 2123 1956 1887 540 709 506 614 1209 665 1095 1359 303 321 386 416
642 368 526 517 394 213 217 593 1497 2089 1817 1550 1737 1945 1899 2156 2133 1227 1564 1389 1236 1545 1695 1781 1984 2079 2515 2060 1516 1767 1756 2153 1970 1449 1176 1492 1261 1753 588 424 1053 672 780
806 665 424 626 418 485 192 484 1430 2005 1903 1827 1882 1833 1871 1682 2233 1747 1305 1083 2209 942 2466 1940 2309 1876 1981 1552 2051 2445 1932 1269 1717 1723 2116 1285 1475 1590 935 2155 1003 1128 972
850 697 805 644 581 652 273 441 1296 2192 2056 1999 2279 2687 2424 1598 1226 1593 1605 1325 1704 1041 3035 1932 1633 1725 2089 1784 1836 1829 1345 2523 1506 1256 2329 2250 1409 1733 1801 1979 1397 868 1037
809 900 641 1000 564 665 643 661 1826 1898 2132 1953 2238 2597 2612 2393 1577 2537 1702 1506 2317 1122 2014 1866 1781 1761 1773 1987 2437 1585 2173 2662 2046 1667 1905 2191 1593 1026 1282 1108 1223 1706 1542
37 6 207 672 749 693 765 481 910 1773 2083 1979 2016 2099 2246 2383 2085 1587 1909 1709 2042 1443 1366 1940 2027 1778 1698 1846 2244 2598 2505 2008 1605 979 3049 2947 1862 1112 1090 1141 1198 1319 1490
3 0 1 0 75 136 900 946 1006 1396 1955 1988 1999 2109 2099 2163 2277 1847 1771 1909 1588 1752 1735 2864 2198 2143 1980 1936 2756 3138 2086 1944 2309 2656 1692 2683 3725 1803 1063 957 1109 1301 1434
0 3 4 6 0 0 1 157 1071 1208 1479 1734 2399 1951 2030 2103 1980 2193 2029 2325 2458 1825 2050 2121 2199 2248 2192 2502 2685 2136 1509 1978 1999 2268 2885 1770 1691 3670 3615 1931 3773 2436 3225
0 0 0 0 0 2 2 0 184 623 1055 1625 1563 1828 1846 1952 2001 2073 2101 2704 2557 2298 1505 2247 2553 2055 2101 2900 2758 2816 2196 2047 1939 2014 2429 2310 2814 3235 2406 2974 1985 1812 2267
0 0 0 0 0 0 2 2 0 162 423 1074 1321 1656 1841 1877 1857 2308 2750 2044 2923 2599 2451 2408 2850 2526 1935 2065 2358 2781 2666 2636 2386 2361 2565 2463 2686 3355 3728 2859 3779 2931 2790
0 0 0 0 0 0 0 1 0 6 7 216 1187 1760 1709 2046 1774 2240 2894 2595 2847 2764 2648 2670 2765 2404 2123 1505 2798 2687 2676 2814 2896 2912 2602 2999 2256 1712 2464 2186 3288 3626 3162
0 0 0 0 0 0 0 0 0 0 1 0 150 1341 1479 1827 2315 2297 2282 2810 3027 3201 3276 2544 2659 2666 1419 855 875 1732 2822 3262 3564 3659 3784 3684 1739 1496 1184 1345 1482 1549 3063
0 0 0 0 0 0 0 0 0 0 0 0 0 14 565 1545 1633 2404 2471 2712 2734 3027 3600 3194 2843 3115 2970 1033 183 757 1622 2709 3355 3268 3788 2801 1580 2196 2894 1265 1161 1109 663
0 0 0 0 0 0 0 0 0 0 0 0 0 0 0 113 847 1985 1945 2373 2610 2612 2996 2997 3528 3591 3104 1548 522 30 2208 2387 2611 2981 3396 3547 3490 3401 3197 3183 2808 2572 2586
0 0 0 0 0 0 0 0 0 0 0 0 0 0 0 0 27 81 1275 2609 2367 2242 2243 2547 3291 3621 3618 1795 850 0 1263 1424 2375 2660 2655 2982 3537 3015 2164 2677 3520 3464 3465
0 0 0 0 0 0 0 0 0 0 0 0 0 0 0 0 9 22 0 832 2333 2165 1960 2321 2564 2469 3268 2538 1463 0 1389 1545 1581 1995 2361 1387 1624 2119 2047 2757 3149 3217 3204
0 0 0 0 0 0 0 0 0 0 0 0 0 0 0 0 0 2 0 66 629 2011 2264 2031 2527 2968 2692 3073 1291 15 1671 1737 1608 1515 1511 1429 732 550 605 417 3074 3012 3180
0 0 0 0 0 0 0 0 0 0 0 0 0 0 0 0 0 0 0 1 71 424 2001 2668 2532 2896 2797 1916 1591 24 39 1516 1726 1844 1443 1528 585 0 0 0 514 1024 1291
0 0 0 0 0 0 0 0 1 7 6 2 1 0 0 0 0 0 0 0 75 101 190 1621 1894 2227 3007 2149 1475 47 0 0 562 1700 1411 474 4 0 0 0 1 0 585
1 2 3 3 4 8 5 1 1 4 4 5 1 0 0 0 0 0 0 0 0 0 0 374 1741 2073 2663 3092 2335 1792 66 1 5 236 631 642 556 272 142 470 48 6 718
2 2 4 7 10 11 11 11 9 6 4 3 0 0 0 0 0 0 0 0 0 0 0 5 82 166 243 1620 130 0 228 1689 1015 961 1397 1277 1257 1371 1626 1897 2034 2123 1515
10 4 6 9 13 9 12 13 14 20 15 6 0 0 0 0 0 0 0 0 0 0 0 0 0 0 0 0 0 0 0 2 1 421 1495 1711 1801 2163 1948 2212 2328 2417 1621

GFSMW_con_sbcape_078.txt.gz
CAPE
118 140 65 44 19 302 570 1045 1960 2061 1724 1406 1410 909 1518 1737 1702 2400 1762 1370 904 2597 2443 2713 2563 2123 1362 472 3235 2745 1971 2362 1429 2654 1765 1613 826 737 1295 1070 931 1213 1374
71 184 121 191 167 357 582 1314 1913 2257 2058 1462 2134 867 2239 2082 1388 1567 2310 1864 1969 2577 2248 1774 2391 1888 2173 2891 2667 2402 2019 2279 1220 2001 1888 794 1293 858 490 1124 945 1163 898
101 159 117 265 198 254 566 1150 1991 2119 1890 2481 2303 1545 206 512 144 443 1943 2379 2413 2442 2450 2642 2915 715 2630 2762 2656 2100 1106 2627 1241 1485 2405 1295 1261 1675 859 840 908 871 1464
54 72 308 381 327 152 588 1125 1741 2005 1578 2482 1937 2531 1994 1304 2055 2114 2200 2398 2321 2302 1899 2888 3026 2419 871 558 2980 2145 1943 1904 2165 1524 1281 1816 2191 2504 1311 1286 816 1586 675
268 91 115 420 447 182 270 897 1292 2287 1660 2181 2558 2283 2063 1655 1101 1447 997 1877 2682 2302 1805 2612 3006 2021 905 533 1839 2729 2883 2918 1990 398 2419 2079 2598 2514 3019 1042 978 1360 1017
371 340 132 442 356 187 11 725 1304 2315 2536 1963 2358 2673 1991 492 181 1682 788 2379 2073 2487 2122 2057 2982 2319 649 1387 1109 2674 2303 3361 3609 2778 2657 2627 1954 2014 2090 1746 1405 1594 1640
696 481 230 573 482 42 111 1045 1755 2266 2099 1880 2078 2325 2248 2169 1074 1190 640 2019 1296 1823 2602 3403 3449 2295 2660 2163 2564 3193 3159 2425 2816 3944 2458 2603 1656 2430 1980 2831 2106 1869 1488
646 651 489 826 435 171 225 1220 1993 2258 2359 2248 2613 2526 2665 1995 1633 713 1731 1120 320 1303 2102 2417 2930 2915 2650 2695 2911 2856 2748 2969 2598 2635 2913 2954 2097 2651 1443 2850 2490 2449 2491
24 216 756 940 452 568 284 1275 2252 2597 2599 2383 2800 2718 2545 2294 2486 2568 3304 1543 593 1724 1514 2138 2569 2709 2001 3076 2801 1935 2514 2486 2390 3175 2743 2854 1799 2178 1802 2366 2585 2323 2477
6 2 26 240 340 747 380 1303 2217 2571 2611 2417 2584 2731 2769 2979 2838 2997 3087 2817 625 233 343 419 1529 2784 2104 2290 2609 2735 1292 2114 1701 1978 2819 3080 1027 2632 2347 1955 2528 2488 2600
3 3 2 4 3 108 327 49 1933 2534 2677 2628 2545 2543 2605 2780 2827 2833 3232 2870 2394 527 24 0 0 1387 2734 3045 2972 2205 1847 2275 2392 3174 2794 2866 2908 2296 2963 2377 2660 2471 2861
0 3 2 4 4 2 0 0 192 231 2215 2439 2574 2634 2798 2771 2920 2873 2868 3315 3148 2959 923 0 8 1454 2456 2515 2862 2413 2095 2093 2568 2776 2428 2771 2385 3218 3304 2855 2822 3264 3117
0 0 6 2 3 3 3 3 3 1 22 739 2499 2592 2534 2820 2833 3131 2910 3163 3237 3145 2555 2655 3267 3096 2424 2679 2368 2858 2826 2155 2308 2971 3135 2851 3133 3028 2645 3524 3304 2603 2913
0 0 0 0 0 1 3 1 6 1 7 3 367 1255 2376 2389 2425 2940 2987 2790 3321 3007 2781 2901 3099 2794 2901 2863 2644 2683 2957 2477 2513 2824 2991 3089 3023 3023 3142 2987 3129 2695 3173
0 0 0 0 0 0 0 0 1 1 2 2 55 50 133 2389 3128 2904 2707 3013 2910 2960 2987 2886 2644 2841 2499 2046 2613 2977 2803 2353 2132 2364 2680 2936 3260 2490 2934 2523 2947 2850 2975
0 0 0 0 0 0 0 0 0 0 0 0 3 0 343 857 1377 2278 2629 3405 3012 2943 2802 2880 2788 2523 2362 1350 873 2093 2694 2831 2869 2422 2860 3230 2470 1784 1150 1194 1349 1406 3020
0 0 0 0 0 0 0 0 0 0 0 0 0 0 1 7 286 1540 2471 3029 2994 3037 2933 2888 2845 2796 2660 1643 245 159 1933 2666 2932 2912 2711 2710 1720 2191 2176 875 847 813 323
0 0 0 0 0 0 0 0 0 0 0 0 0 0 0 0 29 295 81 939 2534 2778 2769 2670 2853 3051 2905 2134 1559 154 961 2099 2056 2506 2804 2678 2441 2747 2769 2970 2454 1657 1656
0 0 0 0 0 0 0 0 0 0 0 0 0 0 0 0 0 40 54 85 718 1938 2238 2231 2442 2785 2984 2359 1382 704 956 1201 1727 2027 2090 2083 2936 2518 1962 2014 2698 3062 2960
0 0 0 0 0 0 0 0 0 0 0 0 0 0 0 0 0 0 0 11 164 490 1574 1961 2189 2058 2505 2682 2099 252 1337 1533 1305 1230 1530 1563 1471 1400 1428 1453 2191 2129 2011
0 0 0 0 0 0 0 0 0 0 0 0 0 0 0 0 0 0 0 1 2 72 539 698 1930 2037 2185 2398 1849 453 1799 1909 1742 1568 1402 1249 1056 862 391 101 1887 2135 1923
0 0 0 0 0 0 0 0 0 1 0 0 3 5 3 0 0 0 0 0 0 1 122 352 1016 1769 2197 2163 1676 819 22 1835 2036 1921 1641 1625 918 165 35 0 2 442 683
0 0 0 0 0 0 0 0 12 9 10 10 6 1 0 0 0 0 0 0 0 0 0 20 16 460 1611 1923 2011 1378 0 0 332 1911 1795 1556 17 0 0 0 0 0 8
0 0 0 0 0 2 1 1 8 16 13 12 11 8 1 0 0 0 0 0 0 0 0 0 1 549 1754 1896 2089 1848 569 46 0 0 531 884 841 824 109 67 11 0 19
2 0 0 1 3 8 8 1 10 7 1 3 2 0 0 0 0 0 0 0 0 0 0 0 0 0 0 610 73 3 0 0 3 1 808 1197 1289 1170 1080 1006 1096 1006 332
6 3 1 1 4 7 8 22 21 15 3 0 0 0 0 0 0 0 0 0 0 0 0 0 0 0 0 0 0 0 0 0 1 27 643 1086 1603 1855 1780 1416 1215 1227 1328

GFSMW_con_sbcape_081.txt.gz
CAPE
37 54 4 10 10 139 24 476 262 668 86 403 765 567 242 117 338 378 165 634 132 1398 1315 902 589 555 840 578 448 1318 641 1273 260 835 553 798 404 603 365 381 447 480 1000
30 37 2 7 9 55 42 531 629 484 152 136 687 407 245 740 621 715 589 806 424 1421 1316 817 553 437 688 1445 1380 1069 1250 1108 429 420 799 474 243 138 80 392 456 296 582
20 10 0 0 23 77 142 547 506 746 383 272 676 146 364 117 0 86 506 1115 1057 1281 1339 558 1085 495 1039 1242 1033 712 403 1302 88 130 895 774 971 287 14 146 103 59 439
41 48 8 22 7 74 175 487 747 779 453 1032 636 244 219 318 321 99 394 1267 1389 1140 1429 1582 800 458 280 580 1494 1598 1263 1213 843 302 875 754 863 964 166 241 38 112 430
91 69 95 51 55 79 211 291 997 730 108 691 974 478 330 674 197 720 1029 1100 1096 1302 1253 1142 1221 607 267 428 648 1273 1367 1578 1455 606 1229 693 1559 1476 1368 57 14 236 252
178 45 78 93 64 23 162 254 1044 693 346 463 1047 846 184 0 0 87 212 941 1197 1439 1298 1416 1088 1037 721 776 684 894 1139 1105 1613 2001 1013 1600 541 574 1330 403 52 162 364
162 74 85 198 169 74 158 246 512 1092 1015 614 1035 888 254 0 0 201 499 847 1050 1119 915 1237 1311 1323 1081 726 789 1448 1174 1358 839 1950 1072 1471 1545 1284 1134 1408 825 365 370
280 173 134 201 204 82 185 274 343 1093 1122 665 959 805 803 415 320 338 189 649 262 837 1094 1485 1368 1134 1029 1123 1181 995 1360 1316 984 477 960 1545 1030 1412 1276 1217 1130 1159 1486
101 306 146 43 246 46 85 330 595 916 1243 957 1193 1125 860 829 345 15 31 580 63 791 766 778 1319 1276 1227 1181 1392 857 1094 1174 1083 1233 1380 1003 1013 495 1318 1218 1206 1002 1069
22 14 1 0 6 84 137 729 998 1087 1328 1430 1507 1578 1710 1293 1106 886 917 700 633 506 174 34 151 917 1257 1524 1336 1091 935 929 643 536 643 1245 982 404 1309 1715 1418 1160 964
4 7 6 2 1 0 3 58 102 521 1193 1457 1524 1567 1618 1510 1299 1376 1400 824 389 27 25 3 0 38 1070 1233 1238 1006 1074 967 860 1140 1637 1387 1752 1334 1656 1637 1348 1578 1690
2 3 3 2 1 2 1 2 3 2 0 1 602 1541 1740 1733 1628 1608 1264 1357 589 388 44 0 0 0 615 1227 1327 1166 1107 1013 1112 1057 1462 949 1610 1718 1995 1488 1543 1459 1299
0 0 0 1 2 2 1 2 2 1 2 0 25 400 1454 1674 1592 1681 1803 2014 739 190 0 0 0 357 750 1111 1388 1311 1598 1179 1110 1039 1296 1386 1285 1507 1475 1153 1440 1544 2006
0 0 0 0 2 6 4 2 5 4 3 0 0 35 9 81 697 1744 2113 2108 2094 1533 1134 1179 1129 1240 1281 1199 1591 1373 1209 1486 1315 1339 1581 1577 1131 1264 1396 1127 1215 1543 1378
0 0 0 0 0 0 0 0 0 0 1 0 0 2 28 0 0 150 1048 1944 2085 2169 1962 1656 1890 1715 1557 1801 1821 1541 1213 1330 1299 1430 1465 1600 1878 1920 1726 1459 1274 1677 1589
0 0 0 0 0 0 0 0 0 0 0 0 0 0 0 111 176 110 356 1005 1547 1924 2117 1975 1802 1716 1896 1493 1477 1567 1735 1695 1429 1111 1052 1486 1441 1643 1519 1555 1667 1622 1939
0 0 0 0 0 0 0 0 0 0 0 0 0 1 1 0 0 64 38 18 1008 1455 1800 1921 2049 1803 1660 1768 842 154 1367 1933 1656 1294 1294 1419 1613 1705 1837 1385 524 490 600
0 0 0 0 0 0 0 0 0 0 0 0 0 0 0 0 0 10 11 0 112 494 1527 1388 1534 1785 1941 2001 1722 738 5 320 1468 1969 1946 1740 1389 1291 1469 1805 1322 598 412
0 0 0 0 0 0 0 0 0 0 0 0 0 0 0 0 0 0 0 0 1 20 285 1214 1428 1382 1348 1701 1628 490 333 381 538 1007 1417 1761 1582 1474 1519 1327 1912 2014 1788
0 0 0 0 0 0 0 0 0 0 0 0 0 0 0 0 0 0 0 0 0 0 0 163 344 1256 1320 1508 1623 764 343 431 819 646 767 1245 1287 1404 2037 1417 1259 1141 1333
0 0 0 0 0 0 0 0 0 0 0 0 0 0 0 0 0 0 0 0 0 0 0 0 34 312 1299 1426 1523 1094 237 1131 794 1163 1094 716 658 565 388 56 683 918 1129
0 0 0 0 0 0 0 0 0 0 0 0 0 0 0 0 0 0 0 0 0 0 0 0 2 23 292 1051 1217 1338 8 608 958 1360 1360 1317 1038 704 31 0 0 38 22
0 0 0 0 0 0 0 0 0 0 0 0 0 0 0 0 0 0 0 0 0 0 0 0 0 0 0 224 1237 263 7 0 0 34 425 281 62 77 24 0 0 0 0
0 0 0 0 0 0 0 0 0 0 0 0 0 0 0 0 0 0 0 0 0 0 0 0 0 0 0 12 39 79 25 0 0 0 0 1 0 119 208 90 8 0 0
0 0 0 0 0 0 0 0 0 0 0 0 0 0 0 0 0 0 0 0 0 0 0 0 0 0 0 0 0 0 0 0 0 0 0 38 471 485 720 857 849 808 15
0 0 0 0 0 0 0 0 0 0 0 0 0 0 0 0 0 0 0 0 0 0 0 0 0 0 0 0 0 0 0 0 0 0 0 0 266 927 1058 1011 998 831 700

GFSMW_con_sbcape_084.txt.gz
CAPE
7 0 128 263 195 108 86 0 103 25 0 267 329 265 94 17 399 296 43 144 349 1059 239 730 638 546 554 462 290 302 368 740 131 403 158 396 171 233 248 111 565 548 632
4 1 0 42 43 13 133 118 178 0 0 76 304 254 110 308 303 449 241 309 324 894 985 840 450 408 575 734 957 603 843 647 210 190 244 205 12 0 0 138 190 253 692
17 0 0 9 32 4 250 166 299 4 0 64 249 207 147 13 85 279 488 829 620 971 471 682 700 335 832 783 564 204 295 744 25 6 338 466 390 22 0 24 96 147 141
19 0 0 9 76 44 256 237 306 100 0 288 252 306 283 181 52 69 340 1005 869 856 815 637 550 450 166 488 1015 1268 971 572 683 59 347 335 400 246 0 6 24 0 133
27 2 0 9 40 117 286 224 273 301 228 614 393 205 235 368 229 429 200 974 855 884 882 835 382 101 31 312 386 915 876 1168 1023 611 932 816 1075 545 217 29 17 2 64
20 43 8 31 37 132 192 530 309 242 25 374 632 470 121 194 154 295 374 776 775 890 1142 858 699 695 362 622 247 458 676 771 982 950 849 796 349 531 847 217 0 0 5
135 17 37 49 62 124 202 614 413 339 159 180 625 496 150 0 47 182 325 480 747 863 841 891 745 563 480 220 437 983 864 762 370 943 659 879 933 944 794 891 325 158 63
258 23 18 46 85 59 226 302 599 431 347 275 535 529 153 35 0 62 324 300 565 578 775 929 885 845 842 674 586 667 748 800 962 280 571 769 432 741 955 681 523 771 744
147 242 34 122 155 80 226 217 577 631 431 535 443 529 527 301 299 210 65 115 258 378 564 1050 1044 945 650 585 970 595 640 803 672 599 809 695 451 161 993 783 759 448 626
3 4 2 0 102 99 140 176 235 730 684 597 505 710 580 609 375 172 8 163 107 743 620 789 946 933 932 739 923 808 404 491 406 176 274 423 947 158 768 1112 923 689 480
5 6 4 2 24 30 20 46 71 159 127 104 252 952 1056 830 730 726 632 618 339 500 256 105 126 285 591 984 1082 616 671 675 537 317 1106 947 1085 1101 1169 968 774 1013 1023
1 4 3 3 2 0 2 15 69 1 0 1 71 284 433 781 984 922 940 582 382 164 111 12 0 0 78 603 885 702 948 856 733 741 568 861 712 1028 1334 1098 1134 1306 1163
0 0 1 2 4 2 2 1 3 7 0 0 0 43 59 364 522 816 990 865 504 414 182 29 0 0 11 314 904 859 828 726 830 733 624 858 596 603 758 882 697 833 1254
0 0 0 0 1 2 2 3 2 2 2 0 0 0 3 0 0 116 372 625 564 412 185 48 5 0 16 322 697 959 844 1073 1102 799 792 833 865 780 602 743 714 616 900
0 0 0 0 0 0 2 2 0 0 1 1 1 1 9 3 64 24 0 0 241 801 369 252 251 187 570 773 745 1111 856 739 788 1038 1102 1157 1322 1348 1024 997 949 695 922
0 0 0 0 0 0 0 3 0 0 0 0 0 1 0 0 0 31 14 6 23 482 977 1052 1111 1320 1602 1396 1341 1199 1154 763 718 768 790 826 1040 1056 1319 1323 975 978 845
0 0 0 0 0 0 0 0 0 0 0 0 0 0 0 0 0 1 23 0 5 96 457 981 1013 1156 1173 1513 1474 739 641 1100 1095 1004 844 704 894 1036 1066 1267 1089 183 233
0 0 0 0 0 0 0 0 0 0 0 0 0 0 0 0 0 0 0 0 4 30 78 260 625 835 1123 1209 1240 391 28 235 918 1307 1090 877 917 973 985 824 905 935 459
0 0 0 0 0 0 0 0 0 0 0 0 0 0 0 0 0 0 0 0 0 0 0 0 75 208 483 859 614 79 165 103 83 221 731 1382 1513 1416 977 565 1054 1191 1336
0 0 0 0 0 0 0 0 0 0 0 0 0 0 0 0 0 0 0 0 0 0 0 0 0 0 18 155 519 441 137 324 373 467 303 406 754 1159 1243 319 782 802 906
0 0 0 0 0 0 0 0 0 0 0 0 0 0 0 0 0 0 0 0 0 0 0 0 0 0 0 1 84 388 71 600 882 282 665 764 532 199 160 84 917 1144 1027
0 0 0 0 0 0 0 0 0 0 0 0 0 0 0 0 0 0 0 0 0 0 0 0 0 0 0 0 1 28 1 48 237 821 1005 1082 504 0 0 0 0 1 0
0 0 0 0 0 0 0 0 0 0 0 0 0 0 0 0 0 0 0 0 0 0 0 0 0 0 0 0 11 3 0 0 0 0 0 0 0 0 0 0 0 0 0
0 0 0 0 0 0 0 0 0 0 0 0 0 0 0 0 0 0 0 0 0 0 0 0 0 0 0 0 0 0 0 0 0 0 0 0 0 0 0 0 5 0 0
0 0 0 0 0 0 0 0 0 0 0 0 0 0 0 0 0 0 0 0 0 0 0 0 0 0 0 0 0 0 0 0 0 0 0 0 0 0 0 117 264 331 204
0 0 0 0 0 0 0 0 0 0 0 0 0 0 0 0 0 0 0 0 0 0 0 0 0 0 0 0 0 0 0 0 0 0 0 0 0 0 0 0 105 648 684

GFSMW_con_sbcape_087.txt.gz
CAPE
33 107 198 222 147 132 73 88 0 29 60 78 141 73 94 13 285 234 161 210 405 595 413 369 658 484 528 311 298 391 251 398 42 263 105 5 128 77 132 50 174 430 459
59 188 184 187 138 110 51 4 30 0 61 71 129 99 21 49 163 307 175 215 440 512 664 571 416 323 427 415 737 612 504 298 85 125 62 36 0 0 0 0 73 231 366
7 98 157 169 159 103 53 19 22 0 0 113 139 114 60 27 104 277 442 455 611 543 824 510 610 395 751 577 533 178 121 268 82 0 165 284 160 6 0 0 47 119 83
0 49 132 117 117 83 94 40 69 0 0 150 193 276 220 187 59 63 232 502 737 702 585 449 622 320 143 557 764 1262 714 304 532 31 190 88 146 62 0 0 12 1 0
0 3 37 79 47 96 173 80 47 0 1 129 143 145 123 58 124 126 49 562 658 702 798 528 254 187 63 238 470 571 699 825 727 546 738 327 371 271 4 24 10 0 2
0 0 0 8 60 74 212 206 135 8 94 183 132 115 110 251 178 201 109 408 587 610 700 725 320 172 90 187 203 617 458 479 910 380 715 503 519 800 659 357 11 0 0
9 0 0 2 49 58 249 227 156 102 104 292 297 191 103 98 106 158 161 435 532 538 716 579 463 423 339 373 208 397 722 426 172 373 451 527 556 635 547 573 368 77 32
9 18 0 4 21 53 224 310 163 134 13 139 295 256 104 3 0 69 160 267 434 498 566 629 612 394 442 194 233 662 712 588 769 373 486 572 257 360 637 562 312 539 309
80 33 37 27 32 71 146 394 322 163 101 56 136 293 115 35 0 0 83 176 231 309 361 538 802 577 549 362 588 417 371 510 481 394 447 479 495 137 519 631 488 200 476
1 8 28 141 39 38 197 190 520 314 200 150 123 219 273 211 104 100 86 50 80 121 356 614 779 742 669 310 405 587 248 344 263 106 144 95 720 378 728 737 604 229 179
3 3 3 78 140 117 200 130 98 226 114 342 282 357 347 329 241 150 69 0 39 125 474 432 557 680 690 670 726 705 545 430 297 150 410 771 641 1014 980 845 556 825 671
3 3 2 3 15 69 162 147 32 2 0 2 36 185 289 514 541 340 444 384 511 211 142 171 119 110 162 400 752 851 791 523 478 432 289 416 621 613 822 983 801 904 828
0 3 3 3 2 5 72 53 21 2 0 11 5 0 0 33 205 319 476 446 447 194 58 72 38 12 0 87 455 714 701 516 492 389 409 447 470 436 118 446 489 387 647
0 1 1 2 1 1 1 12 31 9 2 29 16 0 2 0 0 0 0 78 296 370 157 39 0 0 0 5 189 492 621 639 706 758 493 260 419 488 495 248 332 271 412
0 0 0 0 0 0 1 1 2 1 1 1 2 1 2 0 0 10 0 0 0 109 509 206 59 0 0 39 83 352 689 609 549 608 756 729 678 839 815 606 647 387 409
0 0 0 0 0 0 0 1 0 0 0 0 2 1 0 0 0 14 0 0 0 34 70 340 428 366 499 489 534 567 628 768 656 608 512 485 637 722 792 534 415 771 926
0 0 0 0 0 0 0 0 0 0 0 0 0 1 1 1 0 0 0 0 0 0 0 0 170 488 603 1022 978 688 569 916 778 694 688 672 794 676 548 608 583 291 60
0 0 0 0 0 0 0 0 0 0 0 0 0 0 0 0 0 0 0 0 0 0 0 0 0 17 197 81 4 1 3 189 283 567 806 779 747 585 585 633 620 548 490
0 0 0 0 0 0 0 0 0 0 0 0 0 0 0 0 0 0 0 0 0 0 0 0 0 0 0 0 0 1 13 88 187 113 156 652 897 1027 992 249 588 701 723
0 0 0 0 0 0 0 0 0 0 0 0 0 0 0 0 0 0 0 0 0 0 0 0 0 0 0 0 0 0 2 153 168 330 257 210 143 418 546 116 515 657 687
0 0 0 0 0 0 0 0 0 0 0 0 0 0 0 0 0 0 0 0 0 0 0 0 0 0 0 0 1 1 1 13 188 391 386 459 481 0 0 0 46 489 384
0 0 0 0 0 0 0 0 0 0 0 0 0 0 0 0 0 0 0 0 0 0 0 0 0 0 0 0 0 0 0 0 5 16 171 117 10 0 0 0 0 0 0
0 0 0 0 0 0 0 0 0 0 0 0 0 0 0 0 0 0 0 0 0 0 0 0 0 0 0 0 0 0 0 0 0 0 0 0 0 0 0 0 0 0 0
0 0 0 0 0 0 0 0 0 0 0 0 0 0 0 0 0 0 0 0 0 0 0 0 0 0 0 0 0 0 0 0 0 0 0 0 0 0 0 0 0 0 0
0 0 0 0 0 0 0 0 0 0 0 0 0 0 0 0 0 0 0 0 0 0 0 0 0 0 0 0 0 0 0 0 0 0 0 0 0 0 0 0 0 0 35
0 0 0 0 0 0 0 0 0 0 0 0 0 0 0 0 0 0 0 0 0 0 0 0 0 0 0 0 0 0 0 0 0 0 0 0 0 0 0 0 0 0 0

GFSMW_con_sbcape_093.txt.gz
CAPE
271 271 300 361 461 624 699 795 842 927 694 816 970 1023 1029 1370 1351 1051 1459 1652 1989 1517 2022 1694 1924 1798 1941 1760 2210 1902 2156 1646 1694 1526 1370 1175 1098 1479 1511 1478 1440 1559 1533
306 188 247 374 473 688 770 867 928 902 783 870 947 959 1148 1002 1255 1344 1303 1404 1649 2034 1692 1853 1864 1763 1674 1932 2351 2216 1562 1501 1446 1342 1513 1133 874 1034 802 987 1152 1517 1500
268 265 265 378 474 649 805 885 963 874 771 768 899 958 972 985 1233 1350 1266 1131 1536 1558 1968 1657 1564 1807 1797 1629 2026 1882 2200 1520 1747 1584 1478 1441 1066 1194 743 1103 1276 1671 1517
275 320 371 443 418 568 705 833 915 733 650 897 965 1220 1326 1643 953 1167 1416 1440 1531 1440 1779 1890 1756 1976 1864 2091 2269 2185 2133 2081 2097 2008 1659 1872 2262 1786 960 985 1021 1058 1153
209 308 376 507 430 516 580 703 783 683 550 794 1041 1038 1584 1040 991 1036 1504 1717 1966 1763 1667 1691 1993 1883 1451 1964 2220 2422 2665 2218 2060 2153 2120 2271 1828 2149 2014 1078 994 999 950
122 296 154 377 465 450 459 524 797 708 844 810 972 1230 1142 1440 1172 1242 1162 1268 1654 1826 1889 1606 1819 1745 1510 1825 1904 2348 2236 2253 2183 1937 2044 2101 2095 2368 2161 2039 2093 1291 1097
91 322 299 364 448 402 338 133 708 922 630 747 973 1094 1139 1337 1461 1310 1227 1071 1703 1999 1763 1894 1827 1502 1632 1498 1726 2543 2350 1863 1605 1846 1627 1613 1749 2256 2208 2289 2087 1377 1425
69 218 436 306 74 123 337 301 528 853 700 534 786 1056 1113 922 1095 1193 1239 1174 1747 2423 1864 1852 1871 1734 1720 1639 1728 1511 1839 2166 1914 2029 2233 1757 1636 1415 1753 2244 2301 1867 1768
53 165 477 469 326 50 306 577 631 774 591 542 659 885 989 1012 1087 1206 1229 1292 1472 1255 1727 1786 1709 1957 1821 1667 1504 1277 1896 2113 2018 1800 2031 1515 1428 1924 1639 1853 2319 1996 1746
111 131 291 423 419 130 43 279 219 612 832 549 677 1061 1224 1113 1032 857 779 1009 1197 1377 1508 1613 1711 1781 1897 1800 1738 1624 1643 1944 1760 1497 1733 1841 1303 1744 2068 2100 1895 1935 1864
49 50 189 215 240 116 30 268 434 691 510 165 374 643 1067 1040 1072 1113 1159 1135 1077 920 1200 1377 1354 1703 1738 1748 1780 1700 1795 1736 1821 1644 1697 1742 2009 1488 1795 2326 2063 1988 1948
3 6 35 193 312 225 202 271 630 751 712 524 234 232 758 805 1146 1338 1153 1267 1120 1041 1035 1026 1272 1293 1258 1709 1877 1755 1273 1690 1754 1796 1580 1521 1275 2015 2059 1836 2622 2165 2198
4 4 6 62 384 383 349 182 167 271 98 17 4 11 131 1138 1447 1369 1377 1292 1391 1492 1415 1245 1315 1280 1249 1401 1614 1730 1633 1418 1641 1473 1758 1653 1765 1888 1292 1656 1366 1179 1557
4 4 4 5 29 332 453 500 311 199 99 43 17 24 128 243 366 428 526 812 1276 1562 1549 1525 1396 1125 1066 884 771 954 1319 1490 1542 1623 1607 1770 1661 1848 2136 1895 2074 1694 1792
2 3 3 3 3 3 11 48 88 78 37 40 35 53 64 189 242 283 229 224 375 652 1120 1509 1411 1288 988 717 721 665 682 994 1391 1354 1429 1713 1555 1132 1131 1401 2141 1949 1928
0 0 1 4 3 3 3 1 2 2 101 117 93 47 52 1 1 103 133 123 134 181 257 624 795 828 323 0 1 77 950 1269 1464 1781 1931 1720 875 776 228 55 138 786 2070
0 0 0 0 1 3 2 2 2 2 2 4 4 4 3 4 2 0 0 0 0 0 0 2 83 132 36 0 1 0 1031 1590 2062 2225 2377 2114 1384 1263 1717 934 264 91 0
0 0 1 2 0 0 0 0 0 0 0 0 0 0 0 0 0 0 0 0 0 0 0 0 0 0 0 0 0 1 187 751 1214 1520 1681 2027 2047 1809 1690 1914 1925 1986 2229
0 0 0 0 0 0 0 0 0 0 0 0 0 0 0 0 0 0 0 0 0 0 0 0 8 0 0 0 0 0 92 264 382 590 863 1030 1206 0 1 790 1727 1944 1976
0 0 0 0 0 0 0 0 0 0 0 0 0 0 0 0 0 0 0 0 0 0 0 0 0 0 0 0 0 0 0 0 0 94 0 0 0 0 0 0 712 1244 1748
0 0 0 0 0 0 0 0 0 0 0 0 0 0 0 0 0 0 0 0 0 0 0 0 0 0 0 0 0 0 0 0 0 0 0 0 0 0 0 0 0 0 0
0 0 0 0 0 0 0 0 0 0 0 0 0 0 0 0 0 0 0 0 0 0 0 0 0 0 0 0 0 0 0 0 0 0 0 0 0 0 0 0 0 0 0
0 0 0 0 0 0 0 0 0 0 0 0 0 0 0 0 0 0 0 0 0 0 0 0 0 0 0 0 0 0 0 0 0 0 0 0 0 0 0 0 0 0 0
0 0 0 0 0 0 0 0 0 0 0 0 0 0 0 0 0 0 0 0 0 0 0 0 0 0 0 0 0 0 0 0 0 0 0 0 0 0 0 0 0 0 0
0 0 0 0 0 0 0 0 0 0 0 0 0 0 0 0 0 0 0 0 0 0 0 0 0 0 0 0 0 0 0 0 0 0 0 0 0 0 0 0 0 0 0
0 0 0 0 0 0 0 0 0 0 0 0 0 0 0 0 0 0 0 0 0 0 0 0 0 0 0 0 0 0 0 0 0 0 0 0 0 0 0 0 0 0 0

GFSMW_con_sbcape_096.txt.gz
CAPE
210 279 259 343 440 390 683 966 1114 1480 1688 1564 1094 1086 1165 1339 1122 1327 1880 1873 1880 1774 2120 1589 2042 1962 1924 2252 2250 1631 1949 1110 1180 1184 928 875 1096 1301 1271 1218 1366 1555 1467
253 333 389 408 530 751 631 878 1232 1744 1548 1374 1396 1023 1060 1198 1273 1339 1774 1741 1746 1990 2019 1835 1751 1932 1826 2218 2456 2501 1413 1106 1809 1139 1142 766 697 786 839 1020 1041 1501 1279
357 430 478 477 555 874 1119 1148 1382 1612 1608 1215 1343 1524 1847 1560 2104 1663 1681 1604 1699 1780 1990 1946 1708 1979 2237 1744 2114 2111 2450 1104 1744 2429 1758 1064 868 689 635 1047 1065 1557 1377
473 555 539 620 610 766 1161 1298 1502 1709 1630 1610 1177 1217 2102 1444 2096 1343 1370 1577 1674 1482 1596 2049 1926 2227 1656 1909 2260 2051 2063 2766 1564 1704 2167 2830 3039 1231 820 695 830 1296 1290
357 524 652 671 697 703 1023 1259 1562 1735 1277 1638 1260 1050 738 1819 745 1209 2003 1759 1913 1745 1473 2040 2046 2364 1803 2417 2260 2445 2606 1791 1929 1577 2012 2624 2415 2747 1447 678 630 885 997
359 449 610 722 876 735 921 1104 1579 1812 1548 1487 1570 1464 1072 833 1943 1885 1461 1486 1564 1877 1727 1835 2121 2202 1928 2062 1992 2473 2470 2455 2241 2046 2161 2021 2017 2029 1668 1216 1202 828 1044
372 455 645 749 983 936 958 1040 1496 1707 1513 1410 1294 1440 1301 1127 1007 1291 1941 1174 1977 1634 1918 1976 2084 1865 2224 1914 1723 1909 2169 2056 1842 2279 1675 1802 1967 2347 2398 1943 1418 1028 1184
432 376 637 421 676 1044 963 666 1276 1643 1580 1426 1582 1607 1609 682 1141 1062 913 2129 1632 1141 1621 1330 1391 1729 1784 1975 2155 1748 1465 1656 1754 1994 2367 1576 1697 1830 2054 2419 2299 1492 1320
741 488 710 900 1027 793 778 507 501 945 1487 1338 1439 1492 1664 1492 888 1009 1060 2793 1919 1541 1363 1081 1101 1160 1442 1837 2007 1346 1951 2105 2004 1729 1930 1858 1214 1424 1604 1997 2236 2169 1623
1069 731 739 893 632 336 296 279 797 953 1117 1063 1207 1213 750 736 686 1092 1261 1378 1420 1930 1406 1329 1184 1192 1307 1785 2262 1405 1657 2133 1837 1441 1499 1803 962 1255 1301 1409 1451 1757 1915
1007 785 899 1079 1012 438 175 176 266 377 1085 1069 1198 1078 926 705 734 729 901 944 1372 1775 1961 1542 1137 1312 1134 1231 1755 1648 1556 1924 1724 1799 1745 1764 1690 1191 962 1220 1374 1212 1224
317 435 802 869 820 847 321 129 173 200 411 1188 1079 738 906 826 729 781 845 1190 1085 1793 1617 1561 1630 1614 1328 1545 1565 1497 1297 1666 1451 1199 1443 1566 976 1504 1581 1160 1763 1965 1677
130 189 372 570 810 501 234 211 358 665 796 453 568 507 463 620 818 987 938 1176 1422 1289 985 1125 1235 1396 1567 1399 1666 1990 1750 1418 1204 1240 1224 1447 1336 1594 1027 931 904 748 804
53 21 39 339 473 655 809 712 551 477 405 158 80 123 140 246 538 766 1111 1213 1455 1602 1109 1176 1223 1313 1815 1724 1700 1774 1853 1668 1326 1311 1178 1080 1211 1583 1766 1988 1825 1911 1843
207 33 4 5 6 261 1034 1005 758 653 735 312 121 167 204 253 370 769 875 991 1129 1246 1485 1724 1889 1908 1821 1442 1840 1592 1501 1500 1393 1373 1451 1362 1147 970 1206 1417 2086 2308 1647
126 24 4 5 5 3 25 433 711 521 750 325 246 141 288 173 153 264 439 521 578 650 1050 1254 1542 1527 1188 0 1 135 1659 1695 1700 1849 2067 1832 1169 929 701 530 395 563 2300
104 7 5 4 5 4 3 3 3 2 2 6 8 5 22 60 6 0 0 102 220 268 256 428 796 55 0 0 0 0 1174 2068 2063 2021 1962 1724 814 1214 1357 588 333 131 5
0 3 3 5 4 2 0 1 1 0 0 0 0 1 2 4 5 0 0 0 16 147 154 190 178 0 0 0 0 0 435 1402 1755 1753 1761 1956 1787 0 245 1686 1522 1577 1863
45 0 2 1 1 1 3 0 0 0 0 0 0 0 0 0 0 0 0 0 7 36 69 99 19 0 0 0 0 0 345 732 976 541 29 31 0 0 0 817 1808 1863 1821
6 11 1 0 0 0 0 0 0 0 0 0 0 0 0 0 0 0 0 0 0 3 7 7 0 0 0 0 0 0 0 0 55 329 5 0 0 0 0 0 206 803 1200
3 2 1 0 0 0 0 0 0 0 0 0 0 0 0 0 0 0 0 0 0 1 0 3 2 0 0 0 0 0 0 0 0 0 0 0 0 0 0 0 0 0 0
1 0 0 0 0 0 0 0 0 0 0 0 0 0 0 0 0 0 0 0 0 0 0 0 0 0 0 0 0 0 0 0 0 0 0 0 0 0 0 0 0 0 0
0 0 0 0 0 0 0 0 0 0 0 0 0 0 0 0 0 0 0 0 0 0 0 0 0 0 0 0 0 0 0 0 0 0 0 0 0 0 0 0 0 0 0
0 0 0 0 0 0 0 0 0 0 0 0 0 0 0 0 0 0 0 0 0 0 0 0 0 0 0 0 0 0 0 0 0 0 0 0 0 0 0 0 0 0 0
0 0 0 0 0 0 0 0 0 0 0 0 0 0 0 0 0 0 0 0 0 0 0 0 0 0 0 0 0 0 0 0 0 0 0 0 0 0 0 0 0 0 0
0 0 0 0 0 0 0 0 0 0 0 0 0 0 0 0 0 0 0 0 0 0 0 0 0 0 0 0 0 0 0 0 0 0 0 0 0 0 0 0 0 0 0

GFSMW_con_sbcape_102.txt.gz
CAPE
36 55 113 171 192 396 895 1119 1114 2020 1418 1911 1033 1534 1531 1566 1907 1369 2841 2991 2621 2338 3529 3123 2948 775 1919 2883 2986 2818 3154 3110 2792 3518 2246 1653 1724 1897 1998 2179 1902 2269 2199
58 81 89 135 82 479 945 1926 2298 2454 2332 2243 2325 1811 1076 2048 2022 2554 2857 2499 2095 2783 2753 2745 2750 645 2033 3435 3156 3568 3724 2228 2364 2407 2599 2125 2068 1550 1301 2033 1936 1946 1269
49 107 121 63 210 754 1163 1229 1273 2718 2517 2196 1066 1813 493 1972 1006 2279 2583 2446 2094 2564 2020 2445 1737 2343 1467 2168 3388 3557 3727 2870 2031 2922 2991 2357 1687 1684 1377 1488 2037 1730 2234
136 174 103 82 83 489 909 1993 2007 2403 1885 954 1354 1982 1797 380 1505 1750 667 981 2771 2305 2584 2552 2201 2052 899 1093 2856 3400 3708 3829 3066 2146 2037 3100 2400 2683 2214 1833 1677 2121 1877
133 55 105 61 269 345 523 1240 2295 2660 2486 2608 1966 2239 1924 1849 1545 1324 838 1096 2247 2595 2069 2793 2717 2642 1995 1561 1026 2603 4183 3740 3339 2703 2921 2726 3345 3235 1612 1881 1386 1700 2091
63 55 125 87 637 562 825 1396 2339 2706 2903 2598 2507 2227 1800 1500 1547 306 1169 1210 1969 2367 3000 2071 3182 3059 958 1432 2766 3246 3377 4160 3764 3634 2697 171 48 0 447 1385 1494 1898 1719
161 162 122 177 442 808 1021 1519 2267 2429 2515 2170 2080 1947 2089 1538 1932 2622 909 1554 462 218 1032 2820 2361 2690 2466 2431 2535 2843 3434 3772 3474 3796 3140 219 117 20 131 1927 900 1041 1009
221 219 202 19 702 1189 1497 1431 2165 2553 2381 2018 2433 2631 3015 1877 1867 2532 1527 322 355 127 1117 2037 2149 2592 2586 2752 2764 2726 2589 3066 3142 3082 3270 3390 2179 1409 2675 2099 499 1017 386
51 195 111 272 73 12 827 1180 2069 2018 2402 2043 2557 2432 2059 2214 1924 1906 2727 2048 294 58 4 0 1638 2277 1832 2097 2149 2656 2538 1074 657 1788 3306 3377 2060 1363 1901 1991 2144 1458 470
82 91 96 13 0 0 195 1212 2327 2014 2067 1515 2071 2095 2137 2528 2145 2366 1699 1395 18 0 0 0 894 2149 1843 2402 2727 2286 2077 2100 979 1601 2285 2786 2436 2141 1509 2007 1269 1603 1251
436 166 105 536 0 0 1032 1435 1667 1754 2024 1489 1058 1951 1603 1861 2013 2154 2105 1760 158 0 0 739 1877 1761 2613 2534 2724 2699 2184 1405 1547 2109 1975 1798 2521 2221 1835 1538 1262 1538 1487
545 86 94 25 834 867 1521 1051 743 847 1117 1006 1341 1430 822 1094 1555 740 279 1471 1720 2078 2267 2652 1972 2208 1810 1920 2331 2318 2038 1949 2051 1988 2491 2265 976 2232 2881 2471 2335 2350 2260
1424 908 1023 1447 1831 1572 1215 1109 656 577 236 750 672 687 1440 1186 1511 1499 378 321 1418 2221 2184 2203 1828 1447 1977 1533 1938 2298 2109 1873 2255 2209 2121 2211 1922 1975 2094 2272 2121 1648 1500
1356 1611 1550 1661 1435 1669 1283 837 700 408 340 224 318 522 565 624 368 584 820 1154 1222 1093 1142 1862 1652 1579 2240 1672 1627 2035 1925 2216 2128 1966 2371 2355 2267 1698 1909 1623 1872 1637 1917
511 927 545 668 1347 1645 1496 1406 1081 797 349 389 447 419 419 67 121 286 244 635 416 722 1035 1312 1581 229 0 0 4 63 1081 1432 2040 1979 1800 1928 1001 515 704 1499 1881 1744 1612
463 290 212 355 171 599 1376 1201 1019 736 931 925 677 717 790 664 560 315 275 172 170 445 599 472 893 19 1 0 0 0 905 1335 1340 2015 2498 2703 710 929 344 283 213 226 1503
343 261 121 47 5 5 165 266 1389 1365 1355 1392 1235 985 707 1026 626 512 429 371 195 148 203 312 23 0 0 0 0 0 21 1120 1390 1425 1721 1423 232 0 4 452 255 177 182
239 147 21 4 3 3 4 1 1 157 199 163 558 492 577 359 239 212 119 71 154 99 158 128 0 0 0 0 0 0 0 455 1432 1611 1507 1250 0 0 0 0 976 1837 2129
306 102 7 3 3 1 1 1 1 2 1 1 0 3 24 11 4 35 198 131 127 21 204 233 6 0 0 0 0 0 3 1535 1098 42 0 0 0 0 0 0 35 354 1192
0 0 2 2 0 0 0 0 2 0 0 0 0 0 0 0 0 0 0 11 135 368 5 0 0 0 0 0 0 0 0 0 0 0 0 0 0 0 0 0 0 0 14
3 1 0 0 0 0 0 0 0 0 0 0 0 0 0 0 0 0 0 0 0 170 39 0 0 0 0 0 0 0 0 0 0 0 0 0 0 0 0 0 0 0 0
0 2 0 0 0 0 0 0 0 0 0 0 0 0 0 0 0 0 0 0 0 0 1 14 3 0 0 0 0 0 0 0 0 0 0 0 0 0 0 0 0 0 0
8 6 0 0 0 0 0 0 0 0 0 0 0 0 0 0 0 0 0 0 0 0 0 0 0 0 0 0 0 0 0 0 0 0 0 0 0 0 0 0 0 0 0
6 1 0 0 0 0 0 0 0 0 0 0 0 0 0 0 0 0 0 0 0 0 0 0 0 0 0 0 0 0 0 0 0 0 0 0 0 0 0 0 0 0 0
95 24 17 0 0 0 0 0 0 0 0 0 0 0 0 0 0 0 0 0 0 0 0 0 0 0 0 0 0 0 0 0 0 0 0 0 0 0 0 0 0 0 0
179 195 151 46 4 6 0 0 0 0 0 0 0 0 0 0 0 0 0 0 0 0 0 0 0 0 0 0 0 0 0 0 0 0 0 0 0 0 0 0 0 0 0

GFSMW_con_sbcape_105.txt.gz
CAPE
3 30 6 7 0 2 62 720 409 558 228 291 726 638 279 734 1031 1061 1722 1354 1540 1744 1692 1494 406 0 889 1491 1663 1887 2116 1902 1636 1366 1197 417 525 930 847 1237 1253 1149 1259
4 31 15 16 1 90 136 643 680 413 843 761 1001 818 306 1066 1059 1244 1539 1626 1131 1412 1803 1308 953 741 1093 1423 1668 1691 2394 1383 910 1179 1547 589 512 691 640 908 1295 1020 1245
17 17 14 10 10 196 638 786 1069 984 959 697 669 517 569 835 410 920 917 1081 1633 1478 1426 592 629 580 298 6 207 1941 2197 2260 1526 1456 1813 1320 1116 536 226 303 750 504 838
33 23 36 45 67 133 378 653 1030 923 923 980 194 603 343 223 564 539 516 415 850 1478 1501 253 448 326 0 0 18 1835 2496 2185 2053 1855 1447 1560 1414 1356 481 571 594 384 678
18 33 31 26 94 329 243 370 642 859 865 487 696 611 418 379 619 625 478 36 401 1294 1295 1549 1250 370 207 784 1016 802 2157 2195 1997 1772 987 655 186 17 595 606 373 432 476
85 28 75 46 196 273 761 484 709 713 1022 635 638 528 549 423 241 269 486 739 669 718 705 1301 1240 487 8 0 146 1654 1913 2167 1904 972 234 63 16 0 324 321 106 72 306
77 81 63 41 77 117 437 1008 925 976 1156 834 563 459 778 592 282 97 218 764 375 100 269 412 1233 1023 240 117 902 1104 1277 1881 1811 1851 609 89 0 0 39 611 588 0 156
73 76 11 44 153 237 534 678 1083 1269 957 1306 1025 831 921 816 810 880 200 192 103 318 421 608 752 1005 1086 1075 1158 974 1259 1147 799 815 1444 980 627 0 10 34 0 2 212
73 91 126 83 343 155 842 1259 1255 1221 1349 928 1160 681 1048 830 864 864 450 539 454 297 155 57 0 51 968 1260 1248 1018 827 724 430 30 884 1569 1456 1130 807 369 0 494 282
62 86 177 149 194 15 159 687 1364 1427 1362 1092 1320 1106 958 1113 982 716 117 101 14 20 82 0 0 47 953 927 994 1191 929 698 45 3 1156 958 1088 902 763 807 458 631 113
9 56 129 103 62 35 53 224 232 1159 1310 1251 971 969 905 929 872 771 598 44 0 0 0 0 124 871 1043 1180 1005 981 878 722 833 901 1040 832 908 1352 1413 912 955 860 912
19 106 99 44 18 1 33 35 78 518 973 1013 425 553 665 65 639 173 147 235 204 79 75 550 1192 948 1005 979 1239 1301 1251 924 759 747 918 838 974 728 752 866 873 690 709
27 73 112 49 50 14 25 310 372 686 667 436 476 211 42 118 564 345 26 156 647 761 1032 863 1032 955 813 797 935 1049 908 836 881 697 893 932 1017 1044 629 425 334 778 777
103 73 74 100 30 115 579 568 410 199 155 149 142 100 218 174 274 317 310 329 212 247 560 746 985 653 112 38 57 198 554 780 973 1031 872 971 841 631 616 599 563 695 329
534 290 160 350 123 297 422 291 361 222 185 113 159 151 115 23 33 27 20 22 31 96 359 634 12 0 0 0 2 1 44 761 692 764 890 553 316 119 192 458 564 575 362
175 177 136 85 1 172 461 626 628 376 316 356 296 380 236 100 111 149 56 27 23 3 161 3 0 0 0 0 0 0 0 348 824 680 420 327 0 0 0 0 35 2 152
49 58 18 1 2 1 2 46 522 602 563 575 574 468 358 271 363 350 211 22 1 31 36 0 0 0 0 0 0 0 0 29 357 548 696 137 0 0 0 0 336 463 82
149 0 1 2 3 1 0 0 82 314 331 588 471 408 243 109 85 44 19 0 2 11 0 0 0 0 0 0 0 0 0 55 38 0 5 0 0 0 0 0 31 149 0
17 0 0 2 1 3 1 1 0 0 0 0 1 10 15 0 2 0 13 19 16 7 0 0 0 0 0 0 0 0 0 55 0 0 0 0 0 0 0 0 0 0 0
0 0 0 0 0 0 0 0 0 0 0 0 0 0 0 0 0 0 0 0 0 1 0 0 0 0 0 0 0 0 0 0 0 0 0 0 0 0 0 0 0 0 0
0 0 0 0 0 0 0 0 0 0 0 0 0 0 0 0 0 0 0 0 0 0 0 0 0 0 0 0 0 0 0 0 0 0 0 0 0 0 0 0 0 0 0
0 0 0 0 0 0 0 0 0 0 0 0 0 0 0 0 0 0 0 0 0 0 0 0 0 0 0 0 0 0 0 0 0 0 0 0 0 0 0 0 0 0 0
0 0 0 0 0 0 0 0 0 0 0 0 0 0 0 0 0 0 0 0 0 0 0 0 0 0 0 0 0 0 0 0 0 0 0 0 0 0 0 0 0 0 0
0 0 0 0 0 0 0 0 0 0 0 0 0 0 0 0 0 0 0 0 0 0 0 0 0 0 0 0 0 0 0 0 0 0 0 0 0 0 0 0 0 0 0
0 0 0 0 0 0 0 0 0 0 0 0 0 0 0 0 0 0 0 0 0 0 0 0 0 0 0 0 0 0 0 0 0 0 0 0 0 0 0 0 0 0 0
5 3 0 0 0 0 0 0 0 0 0 0 0 0 0 0 0 0 0 0 0 0 0 0 0 0 0 0 0 0 0 0 0 0 0 0 0 0 0 0 0 0 0

GFSMW_con_sbcape_108.txt.gz
CAPE
3 33 143 62 74 33 66 0 69 156 51 391 459 68 369 766 826 1113 1276 864 1095 1353 1194 1341 330 235 987 1313 1343 1314 1951 1343 608 655 662 171 223 418 494 628 771 529 567
18 34 14 24 3 30 132 100 67 154 172 421 583 456 384 786 572 620 1162 1369 839 1059 1105 1061 909 856 668 133 556 1837 1859 1342 410 1016 647 232 239 216 464 516 796 770 775
15 2 0 0 4 92 291 186 146 194 569 461 229 175 393 433 564 721 753 779 1137 1091 848 573 571 311 37 0 29 1348 1853 1593 1395 1091 1097 715 536 331 79 170 304 258 400
15 0 2 0 74 104 222 198 221 416 378 248 277 194 205 318 328 368 345 463 63 884 1016 177 501 124 0 54 452 805 1658 1440 1519 1309 687 128 436 870 384 188 267 266 248
5 12 10 0 75 171 233 313 313 423 494 243 223 239 142 111 384 281 291 91 125 697 1290 44 651 172 131 459 885 1338 1391 1635 1226 614 249 200 34 196 274 207 4 137 264
3 27 20 15 43 81 249 278 250 325 392 285 335 347 184 265 294 217 408 378 466 425 402 1053 843 613 237 8 47 1143 1388 1466 1370 400 0 0 15 75 326 79 0 7 126
104 35 1 6 43 58 139 259 167 237 408 292 355 280 357 228 171 91 155 376 439 253 201 578 694 247 101 0 262 737 726 1210 1207 1284 321 0 0 0 66 347 335 0 10
93 77 1 37 77 264 193 254 201 207 513 245 227 196 350 270 208 45 108 377 186 43 191 385 597 685 683 470 859 615 749 773 446 316 436 895 11 0 141 84 0 6 6
127 111 18 73 86 170 426 445 338 354 382 365 286 340 313 366 446 512 108 74 142 223 137 293 75 45 527 683 785 561 554 476 156 2 571 806 777 410 137 96 0 318 263
92 137 99 217 186 76 20 500 523 593 532 560 462 232 550 340 364 302 248 331 305 123 177 53 0 0 92 551 628 699 567 561 429 0 395 393 431 493 441 294 23 285 97
33 166 182 299 266 252 269 63 155 787 836 486 674 433 633 523 320 147 104 97 10 0 17 0 0 70 513 613 473 502 559 463 358 396 414 504 317 557 724 461 464 306 233
56 178 122 41 90 73 47 118 34 264 804 498 627 755 522 411 423 277 196 0 0 0 0 0 48 566 735 600 576 645 1051 640 537 403 432 538 581 377 361 349 354 361 282
93 145 96 6 27 11 38 50 23 6 502 402 475 365 178 53 302 98 40 85 212 214 38 280 526 623 509 461 403 513 498 557 611 577 380 521 446 562 409 149 96 367 287
100 128 107 53 24 73 38 36 161 285 274 216 363 203 54 20 243 130 23 25 163 98 175 283 475 41 0 0 0 9 126 403 475 508 681 467 541 365 312 373 243 320 123
81 129 96 71 60 82 421 170 331 223 127 124 97 161 120 94 80 36 37 20 27 62 69 1 0 0 0 0 0 0 0 199 242 438 409 44 9 2 6 97 203 303 118
154 156 99 119 89 154 102 258 179 146 95 89 46 87 65 30 20 61 66 6 33 13 47 0 0 0 0 0 0 0 0 0 343 457 294 0 0 0 0 0 0 15 122
326 138 82 117 81 57 176 15 166 142 124 127 229 284 172 154 168 196 146 51 21 38 0 0 0 0 0 0 0 0 0 1 186 242 183 0 0 0 0 0 140 11 0
24 2 1 2 2 1 1 19 23 139 177 222 279 286 229 195 104 34 4 0 11 3 0 0 0 0 0 0 0 0 1 3 0 0 0 0 0 0 0 0 0 0 0
0 3 2 3 3 6 4 1 1 1 49 166 266 213 122 67 4 1 0 0 0 0 0 0 0 0 0 0 0 0 0 0 0 0 0 0 0 0 0 0 0 0 0
0 0 2 2 3 1 1 1 0 0 0 0 0 0 0 0 0 0 0 0 0 0 0 0 0 0 0 0 0 0 0 0 0 0 0 0 0 0 0 0 0 0 0
0 0 0 0 0 2 0 0 1 0 0 0 0 0 0 0 0 0 0 0 0 0 0 0 0 0 0 0 0 0 0 0 0 0 0 0 0 0 0 0 0 0 0
0 0 0 0 0 0 0 0 0 0 0 0 0 0 0 0 0 0 0 0 0 0 0 0 0 0 0 0 0 0 0 0 0 0 0 0 0 0 0 0 0 0 0
0 0 0 0 0 0 0 0 0 0 0 0 0 0 0 0 0 0 0 0 0 0 0 0 0 0 0 0 0 0 0 0 0 0 0 0 0 0 0 0 0 0 0
0 0 0 0 0 0 0 0 0 0 0 0 0 0 0 0 0 0 0 0 0 0 0 0 0 0 0 0 0 0 0 0 0 0 0 0 0 0 0 0 0 0 0
0 0 0 0 0 0 0 0 0 0 0 0 0 0 0 0 0 0 0 0 0 0 0 0 0 0 0 0 0 0 0 0 0 0 0 0 0 0 0 0 0 0 0
0 0 0 0 0 0 0 0 0 0 0 0 0 0 0 0 0 0 0 0 0 0 0 0 0 0 0 0 0 0 0 0 0 0 0 0 0 0 0 0 0 0 0

GFSMW_con_sbcape_111.txt.gz
CAPE
33 80 115 42 0 0 0 0 238 129 144 210 106 124 374 455 458 866 678 900 823 1144 842 437 0 172 698 649 1336 1321 1182 566 223 387 175 22 102 121 248 281 342 396 275
27 144 80 54 10 0 0 0 164 59 131 223 135 203 357 530 368 508 773 912 782 949 822 668 505 525 16 112 1143 1525 1365 1048 682 931 74 51 109 69 50 143 307 431 380
11 112 64 47 19 0 5 5 61 0 171 280 185 237 282 262 452 655 651 616 1039 1161 743 606 185 135 0 0 411 1236 1375 1019 883 561 681 428 355 125 46 182 181 250 353
20 105 55 42 44 34 64 0 52 136 224 150 178 261 221 285 222 208 217 432 70 819 879 294 216 3 0 144 600 900 1370 822 821 400 91 80 290 490 164 114 162 190 221
14 79 41 39 35 94 123 0 66 239 165 143 137 105 109 66 166 173 193 149 1 572 1044 142 403 2 96 343 742 1121 1209 1113 493 232 174 92 4 36 142 131 15 29 150
21 46 55 18 51 44 138 94 96 230 152 79 124 126 127 140 248 174 236 145 162 357 543 693 342 305 253 54 200 831 1061 1021 576 4 0 0 12 21 89 39 2 18 33
11 32 39 1 57 104 187 153 87 149 172 122 158 177 118 116 152 154 145 210 231 189 241 569 626 276 6 0 0 507 465 798 847 518 124 0 0 0 26 146 119 6 0
2 34 54 16 69 118 168 204 72 53 164 91 173 176 181 152 124 86 24 140 206 114 62 218 518 301 235 0 477 474 495 663 285 94 405 355 7 0 74 51 0 84 8
52 56 61 60 61 42 145 185 74 0 162 122 87 65 207 175 190 136 48 59 131 69 102 255 280 378 494 491 462 377 271 274 84 0 59 591 378 26 4 11 0 149 60
94 55 28 108 102 138 132 154 131 25 155 236 62 73 128 175 216 259 215 66 98 179 0 120 35 9 35 265 566 461 294 179 109 0 46 145 297 290 177 119 14 73 63
62 86 17 165 162 221 238 309 244 216 295 330 217 214 230 189 196 228 198 137 78 14 11 39 0 0 29 234 427 335 349 276 96 218 325 246 177 178 316 188 228 122 45
75 104 160 233 237 251 249 253 177 486 499 310 397 304 301 298 248 177 101 43 0 0 0 0 0 0 356 385 428 348 667 436 350 182 129 257 472 263 22 161 212 153 111
67 117 143 162 200 197 98 108 81 67 156 222 207 208 248 256 141 112 134 81 12 0 0 0 65 354 352 309 263 386 503 525 522 436 356 325 346 328 294 48 0 15 185
64 61 105 42 41 26 11 18 22 29 123 246 402 326 218 210 125 144 24 22 67 38 131 144 252 162 0 0 0 27 151 217 383 457 477 454 413 267 189 200 162 101 141
83 103 110 66 31 18 0 6 76 131 167 284 112 177 252 267 167 134 37 29 16 19 42 59 1 0 0 0 0 0 0 19 57 410 359 59 34 8 11 103 130 105 50
41 65 106 96 49 59 140 78 145 178 142 127 184 166 162 135 92 27 20 20 0 1 57 0 0 0 0 0 0 0 0 0 195 309 37 0 0 0 0 0 0 1 26
169 129 127 117 85 73 128 213 132 75 56 59 44 60 25 60 30 39 58 30 14 23 1 0 0 0 0 0 0 0 0 1 93 201 115 0 0 0 0 0 0 0 0
6 4 1 1 1 1 17 9 71 131 70 64 47 105 84 142 223 179 88 14 17 0 0 0 0 0 0 0 0 0 0 0 1 0 0 0 0 0 0 0 0 0 0
3 4 3 1 1 4 2 7 1 45 100 115 166 128 157 93 33 1 0 0 1 0 0 0 0 0 0 0 0 0 0 0 0 0 0 0 0 0 0 0 0 0 0
0 2 3 2 2 5 1 1 2 9 43 37 77 57 52 4 0 0 0 0 0 0 0 0 0 0 0 0 0 0 0 0 0 0 0 0 0 0 0 0 0 0 0
0 0 0 2 5 8 0 1 1 2 8 10 5 3 1 0 0 0 0 1 0 0 0 0 0 0 0 0 0 0 0 0 0 0 0 0 0 0 0 0 0 0 0
0 0 0 0 0 0 0 0 2 8 8 12 10 4 1 0 0 0 0 0 0 0 0 0 0 0 0 0 0 0 0 0 0 0 0 0 0 0 0 0 0 0 0
0 0 0 0 0 0 0 0 0 0 0 0 0 0 0 0 0 0 0 0 0 0 0 0 0 0 0 0 0 0 0 0 0 0 0 0 0 0 0 0 0 0 0
0 0 0 0 0 0 0 0 0 0 0 0 0 0 0 0 0 0 0 0 0 0 0 0 0 0 0 0 0 0 0 0 0 0 0 0 0 0 0 0 0 0 0
0 0 0 0 0 0 0 0 0 0 0 0 0 0 0 0 0 0 0 0 0 0 0 0 0 0 0 0 0 0 0 0 0 0 0 0 0 0 0 0 0 0 0
0 0 0 0 0 0 0 0 0 0 0 0 0 0 0 0 0 0 0 0 0 0 0 0 0 0 0 0 0 0 0 0 0 0 0 0 0 0 0 0 0 0 0

GFSMW_con_sbcape_114.txt.gz
CAPE
46 53 36 8 0 0 0 0 153 154 150 71 103 178 255 300 282 462 630 577 578 1019 746 386 0 703 904 722 1613 1325 981 1060 449 686 400 156 184 283 442 378 434 648 773
24 61 39 30 14 0 0 0 111 85 117 88 11 142 201 334 366 468 732 689 691 882 670 352 323 689 46 663 1431 1477 1160 1016 710 1097 136 272 263 230 270 468 481 537 612
36 74 56 20 9 0 0 0 13 30 117 123 130 197 250 286 364 513 572 706 850 851 843 588 518 382 0 342 934 1493 1194 1230 626 445 851 602 445 288 431 419 411 419 708
52 89 91 36 11 0 0 0 0 0 71 128 158 264 263 286 208 384 294 515 158 724 532 465 132 0 0 407 892 1206 1294 832 1056 575 139 195 617 638 499 367 275 325 442
29 97 109 78 26 0 0 0 0 0 89 50 106 117 115 78 114 147 213 226 26 509 974 369 413 2 278 469 957 1174 1382 1149 493 436 388 198 113 94 447 535 298 164 274
8 98 127 92 38 11 5 0 0 38 68 11 10 69 92 81 163 135 162 163 114 259 600 582 150 260 274 161 521 975 1118 1086 443 32 40 114 167 260 364 360 122 181 411
4 47 71 34 27 88 87 0 29 82 67 0 17 14 44 55 152 144 167 206 173 241 360 513 652 440 273 2 0 543 661 915 1116 604 328 14 0 0 263 491 366 132 41
1 11 14 22 52 93 135 120 0 82 118 58 45 42 23 31 50 94 128 166 190 194 152 204 634 442 173 0 26 534 507 695 587 472 734 722 91 0 320 392 312 644 387
0 0 9 30 63 107 129 137 83 26 88 89 52 70 90 63 71 82 36 37 146 136 113 211 543 435 522 459 509 528 363 348 203 86 195 851 746 24 44 110 142 695 694
0 7 23 23 32 94 143 137 116 38 38 97 44 52 58 109 67 141 138 115 84 90 74 140 153 186 127 365 571 687 512 346 150 0 142 453 559 570 322 311 42 236 452
33 10 6 21 16 63 94 150 130 73 74 145 79 88 55 69 86 155 108 71 116 147 117 49 91 1 10 186 412 468 544 418 309 324 291 592 345 350 479 444 336 250 144
9 27 17 65 34 132 118 124 153 148 164 210 181 146 129 196 172 131 103 3 3 1 2 53 38 0 26 476 533 453 675 634 553 388 311 365 440 537 323 307 615 424 205
21 26 64 72 117 166 229 233 210 219 276 241 266 205 203 212 219 146 76 0 0 0 0 0 0 39 495 565 471 435 355 732 706 754 521 638 518 626 545 355 310 132 274
45 93 136 144 114 104 197 190 149 197 223 240 200 219 195 211 99 78 75 55 0 0 35 55 181 271 194 120 96 71 195 211 470 614 658 663 844 768 560 360 363 265 344
82 80 119 121 74 45 56 56 48 68 155 204 270 185 146 186 165 113 70 93 79 11 4 34 42 1 0 0 0 0 0 6 220 309 625 332 58 22 64 336 264 246 408
103 90 67 82 57 116 88 39 85 74 144 187 79 91 148 109 155 137 90 79 69 25 37 0 0 0 0 0 0 0 0 0 47 308 372 1 0 0 0 0 0 1 219
135 109 82 96 65 69 63 33 93 122 95 71 77 69 104 101 123 85 48 34 17 12 9 0 0 0 0 0 0 0 0 0 25 161 57 0 0 0 0 0 0 0 0
67 9 9 7 2 2 119 90 72 65 19 15 41 42 44 33 26 41 67 41 20 2 0 0 0 0 0 0 0 0 0 1 0 0 0 0 0 0 0 2 8 0 0
3 4 3 2 1 1 2 17 66 74 55 11 18 40 28 53 69 83 41 3 1 0 0 0 0 0 0 0 0 0 0 0 0 0 0 0 0 0 0 0 0 0 0
1 2 3 5 1 4 2 14 29 66 54 21 22 41 48 75 10 1 2 5 0 0 0 0 0 0 0 0 0 0 0 0 0 0 0 0 0 0 0 0 0 0 0
0 0 0 1 2 2 2 2 1 1 2 2 1 1 1 1 1 2 3 4 0 0 0 0 0 0 0 0 0 0 0 0 0 0 0 0 0 0 0 0 0 0 0
0 0 0 0 1 3 0 0 1 1 2 4 1 0 0 4 3 0 0 2 3 0 0 0 0 0 0 0 0 0 0 0 0 0 0 0 0 0 0 0 0 0 0
0 0 0 0 0 0 0 1 2 0 0 0 2 4 2 4 1 0 0 0 0 0 0 0 0 0 0 0 0 0 0 0 0 0 0 0 0 0 0 0 0 0 0
0 0 0 0 0 0 0 0 0 0 0 0 0 0 1 0 0 0 0 0 0 0 0 0 0 0 0 0 0 0 0 0 0 0 0 0 0 0 0 0 0 0 0
0 0 0 0 0 0 0 0 0 0 0 0 0 0 0 0 0 0 0 0 0 0 0 0 0 0 0 0 0 0 0 0 0 0 0 0 0 0 0 0 0 0 0
0 0 0 0 0 0 0 0 0 0 0 0 0 0 0 0 0 0 0 0 0 0 0 0 0 0 0 0 0 0 0 0 0 0 0 0 0 0 0 0 0 0 0

GFSMW_con_sbcape_117.txt.gz
CAPE
193 251 340 322 308 406 487 593 751 968 1075 1204 1267 1284 2044 1494 1473 1142 2027 1670 2110 2208 2311 1725 1202 2275 2465 2991 2866 2302 2712 2270 1752 1802 1357 1287 1137 1117 1067 1171 1308 1488 1713
158 214 315 275 336 404 494 664 839 1120 1219 1112 1217 1252 1474 1429 1394 1905 2154 2118 1980 2258 2108 1877 1381 2160 1798 2858 3058 2856 2234 2188 2161 1896 1122 951 1022 1135 1070 1375 1435 1586 1497
175 231 288 255 337 354 470 654 1032 1219 1187 1080 1090 1364 1439 1921 1596 1851 1921 2081 1986 2167 2117 1945 1900 1913 1126 1993 2812 2709 2766 2084 1721 2042 1838 1316 993 1455 1312 1528 1452 1660 1722
149 238 277 260 297 324 406 585 905 1131 1076 1073 1213 1640 1277 1163 1971 2472 2393 1978 2070 2087 1927 1789 1446 1589 456 1932 2398 2476 2478 2557 1982 1446 1211 1786 2261 1530 1200 1332 1296 1280 1337
38 156 266 284 276 257 305 408 769 938 958 1124 1241 1015 1821 1173 1535 1564 1869 1836 1666 1895 1864 1745 1552 1052 894 1958 2547 2546 2787 1968 1388 1424 1476 1343 1022 1173 1384 1042 1100 823 705
11 86 200 266 261 214 236 237 533 928 1000 1178 1148 1342 1568 1539 1266 1641 1360 1666 1454 1369 1927 1983 1428 1633 1493 1649 2132 2539 2581 2322 1531 1188 1297 1209 983 981 852 940 1217 1224 1195
0 56 183 264 253 194 232 248 343 711 854 997 1015 1122 1260 1356 1420 1615 2241 1532 2137 1657 1821 2278 1538 1730 1846 1426 1020 2121 2316 2451 2197 2095 1503 1159 342 669 1394 1340 1269 1061 1075
0 17 172 207 236 205 283 248 267 525 833 874 1015 1096 1167 910 975 1327 1499 1222 1161 1208 1417 1567 1955 2111 1592 1310 889 1096 1692 1778 1979 2065 2138 1925 994 839 1375 1243 961 1011 1225
0 18 134 98 310 262 330 302 314 464 804 812 1025 1075 1112 1059 991 1195 1125 1074 1233 1109 1241 1128 1383 1793 1720 1369 1456 1064 1693 1741 1725 1464 1306 1843 1890 1027 1069 1149 883 898 610
9 35 117 124 216 302 413 431 441 507 605 813 960 959 1000 1260 1215 1214 1318 1281 1014 1056 1273 1041 1112 1529 1724 1786 1753 1979 1891 1961 1590 1205 813 1369 1594 1608 1442 1377 1166 1083 1119
17 35 47 56 150 315 386 572 673 701 622 773 905 968 928 978 1240 1283 1446 1496 1173 1067 938 1007 1025 1185 1255 1259 1515 1761 1751 1886 1616 1472 1330 1542 1830 1255 1164 1386 1386 1307 1279
16 39 46 40 124 252 370 507 686 717 741 752 1038 1037 1054 1110 1162 1354 1327 1137 1183 967 990 877 765 752 974 880 1258 1420 1255 1588 1631 1517 1472 1402 1051 1650 2145 1364 1458 1351 1358
99 110 66 49 123 277 362 518 655 775 798 816 1000 1066 1010 1140 1270 1337 1237 1036 1049 891 647 416 336 861 727 705 1285 1803 1755 1457 1520 1429 1506 1430 1364 1799 1113 2312 2115 1462 1141
202 327 180 40 79 493 548 512 663 427 876 886 989 1093 1202 1285 1341 1313 788 591 664 751 875 865 869 701 860 1525 1677 1310 1320 1336 1304 1329 1540 1705 1637 1679 1591 1586 1826 1365 1875
253 320 457 366 158 157 538 845 430 411 853 965 1074 1254 1566 1197 1236 761 731 410 420 453 495 546 701 992 925 677 525 698 788 856 938 1097 1347 1354 166 0 62 452 1458 1430 1713
330 350 351 247 143 133 244 276 601 374 511 1057 1217 1294 974 595 781 595 615 483 306 191 459 275 0 4 20 0 0 0 106 183 320 859 1049 247 0 0 0 1 0 5 1139
386 394 299 122 72 22 74 104 193 274 365 613 659 517 244 430 208 189 305 360 141 69 187 62 0 0 0 0 0 0 0 3 229 658 1262 99 0 0 0 0 0 0 0
179 240 273 103 106 165 166 71 90 140 123 64 93 95 56 26 93 112 134 133 99 76 14 0 0 0 0 0 0 0 0 48 3 1 77 6 0 0 0 0 0 0 0
8 5 5 5 15 78 442 308 297 228 222 97 178 80 68 51 18 5 51 82 126 17 0 0 0 0 0 0 0 0 6 0 0 0 0 0 0 0 0 0 0 0 0
6 4 4 4 3 2 1 124 191 238 194 63 47 53 37 102 127 92 24 2 2 2 2 0 0 0 0 0 0 0 3 0 0 0 0 0 0 0 0 0 0 0 0
3 2 2 2 4 5 3 2 5 2 4 1 2 3 1 3 9 3 4 3 2 6 10 0 0 0 0 0 0 0 0 0 0 0 0 0 0 0 0 0 0 0 0
1 1 2 3 3 3 1 2 3 3 3 3 2 3 1 1 0 1 2 3 3 6 3 0 0 0 0 0 0 0 0 0 0 0 0 0 0 0 0 0 0 0 0
1 0 0 0 0 0 1 0 1 2 4 6 6 4 7 2 1 1 2 4 8 3 0 0 0 0 0 0 0 0 0 0 0 0 0 0 0 0 0 0 0 0 0
0 0 0 0 0 0 0 0 0 0 0 0 1 0 0 0 1 0 5 4 7 6 0 0 0 0 0 0 0 0 0 0 0 0 0 0 0 0 0 0 0 0 0
0 0 0 0 0 0 0 0 0 0 0 0 0 0 0 0 0 1 3 0 0 0 0 0 0 0 0 0 0 0 0 0 0 0 0 0 0 0 0 0 0 0 0
0 0 0 0 0 0 0 0 0 0 0 0 0 0 0 0 0 0 0 0 0 0 0 0 0 0 0 0 0 0 0 0 0 0 0 0 0 0 0 0 0 0 0

GFSMW_con_sbcape_123.txt.gz
CAPE
243 243 216 148 101 252 511 707 980 1592 1828 1386 1172 1662 1300 1936 1718 1943 1865 1855 1732 2104 2660 1681 2160 2534 2716 2393 2012 2193 2577 2020 1165 917 680 699 567 514 655 631 707 1137 855
155 343 250 142 136 264 557 780 1141 1708 2041 1417 2817 2327 2046 2075 1427 2167 1703 1719 1861 2140 2048 2883 1675 2810 1869 2919 2475 2760 2592 1189 1345 2460 773 635 272 158 238 558 610 783 987
108 288 259 265 252 336 598 990 1276 1766 1842 2216 1495 2146 2677 2355 1218 1550 1500 1653 1874 2043 2162 2180 2447 2298 2986 2597 2468 2979 2715 1156 1303 2484 1865 1616 1058 890 401 583 600 1001 1046
125 144 269 373 249 498 473 912 1293 1695 1754 1966 2080 1789 1392 1276 1133 1450 1797 1573 1663 1805 1818 1956 2126 2491 2527 3009 1933 1714 3402 3359 2436 1077 859 2009 2024 1464 1096 10 152 878 1181
160 208 177 363 370 523 654 602 1542 2270 1971 2217 2463 1569 1755 1628 1908 1963 2254 1763 1799 1834 1366 1928 2051 2224 1725 2003 2729 2509 2496 2762 1656 1233 1760 1512 953 1307 665 600 438 94 526
153 161 285 393 574 475 786 713 1538 2397 1984 1705 1470 2296 2502 1729 1435 1423 1839 1580 1296 1524 1611 1672 2110 2207 2007 2026 2150 2416 2549 2840 2983 2229 1860 828 1061 785 952 477 959 498 834
146 97 220 320 744 652 803 745 1142 1783 1461 1852 1461 1538 1700 1537 1544 1793 1220 962 1519 1184 2884 2343 2185 2028 2345 2252 2071 2347 2710 2409 2320 3012 1983 1216 840 749 754 688 493 642 386
166 116 247 343 1116 923 771 871 1057 1519 1348 1530 1555 2123 1443 1275 1116 1631 1072 935 982 870 1953 1956 1733 1808 2003 1957 2054 1736 1568 2453 1434 2081 2710 1665 957 773 647 566 446 287 189
277 232 219 244 867 871 867 1081 1171 1308 1176 1320 1537 1795 1619 1345 979 2341 1596 1425 1482 1115 1607 1605 1857 1817 1702 1727 2017 1687 1600 1548 1968 1583 2217 1919 619 167 325 304 222 169 92
567 416 221 258 452 673 1054 973 1143 1270 1139 973 1121 1246 1278 1488 1425 2530 1908 1334 2473 1947 1741 1946 1724 1876 1782 1861 2575 2112 2552 1786 1571 1188 2173 2124 1059 1055 808 445 477 511 950
137 305 137 334 562 812 926 1182 1196 1274 1164 1008 1739 1715 1427 1389 1490 1533 1872 2009 2138 1916 1921 2130 2184 2051 1893 1898 2584 2240 2615 2283 1875 1854 1595 1591 1907 1146 616 998 1246 559 209
231 417 446 368 644 1038 1013 1160 1395 1188 1120 1410 2235 1911 1593 1416 1238 1451 1228 2154 2407 2445 2655 2215 2212 2068 2045 2315 2259 2107 1718 1820 1476 1656 2318 1379 1011 2420 2312 926 2176 1939 2216
358 328 463 703 873 1295 1373 1097 1319 1503 1092 1604 1087 1500 1340 1508 1469 1402 1413 1656 2125 1895 1598 1908 2153 2085 1708 1759 1906 2025 1890 1684 1472 1586 1718 1552 2043 2559 1313 1790 1235 1000 1297
498 287 269 323 1378 1338 1970 1862 1559 1444 1467 1267 1179 1798 1209 1230 1323 1637 2179 1561 1508 1872 1604 1654 1624 1606 1313 1314 1564 1675 1749 1532 1536 2058 1470 1571 1858 1684 1351 2439 2764 2377 1623
451 297 240 110 456 971 1294 1306 2019 2119 1740 1651 1540 1993 2549 1958 1993 1680 2230 2234 1771 1512 1296 1172 1294 1489 1310 841 1339 1386 1524 1478 1416 1352 1453 1746 807 2 213 782 1838 1487 736
722 677 613 357 182 573 888 920 877 1954 2074 1907 1865 2537 3025 1952 1664 1858 1842 1919 1668 1484 1374 1680 1071 1331 986 0 0 0 534 937 1100 1067 1120 1271 160 6 0 0 0 31 1360
745 654 1080 245 277 203 647 1018 1041 1122 1620 1705 1633 1524 1574 1784 1845 1620 2395 2157 2027 1845 1371 1132 745 651 0 0 0 0 5 530 749 911 1138 1240 855 217 609 0 0 0 0
717 207 587 866 372 193 245 379 346 427 894 1434 1364 1496 1508 1556 1634 1413 1475 1724 1628 1059 967 348 125 214 0 0 0 1 26 136 268 88 115 1058 731 0 44 228 77 0 0
19 5 90 542 248 172 163 85 94 146 241 723 840 958 480 564 520 747 644 450 673 602 149 3 0 0 0 0 0 0 117 132 7 0 0 2 0 0 0 0 63 0 0
10 7 4 76 283 332 248 83 26 61 26 73 185 308 527 552 513 552 688 514 330 86 1 1 0 0 0 0 0 0 0 153 71 1 0 0 0 0 0 0 227 155 50
6 5 4 9 6 28 315 336 234 166 134 142 53 35 25 29 59 59 44 3 2 1 1 3 3 1 0 0 0 0 0 0 101 180 99 0 0 0 0 0 0 41 0
7 5 6 7 6 4 3 3 9 22 48 20 54 27 14 20 9 1 2 1 1 2 2 1 2 4 2 0 0 0 0 0 22 188 83 0 0 0 0 0 0 0 0
1 2 1 0 2 5 3 1 3 2 3 5 4 4 3 2 2 9 5 6 3 5 4 4 3 4 7 5 0 0 0 0 0 0 0 0 0 0 0 0 0 0 0
2 0 0 0 0 0 1 4 3 7 1 2 4 3 0 0 5 1 1 11 11 8 8 6 4 4 3 7 0 0 0 0 0 0 0 0 0 0 0 0 0 0 0
5 1 0 0 0 0 0 0 0 0 0 0 0 0 0 0 0 0 1 1 1 2 11 12 6 3 3 0 0 0 0 0 0 0 0 0 0 0 0 0 0 0 0
2 0 0 0 0 0 0 0 0 0 0 0 0 0 0 0 0 0 0 0 0 0 0 0 0 0 0 0 0 0 0 0 0 0 0 0 0 0 0 0 0 0 0

GFSMW_con_sbcape_129.txt.gz
CAPE
9 5 0 271 386 362 368 348 554 929 427 970 1232 1013 876 183 868 1016 1719 1399 1292 1485 1758 804 0 0 0 0 173 258 152 374 0 1343 772 372 0 0 0 0 0 9 142
44 0 0 114 248 226 333 559 1123 969 750 1304 778 747 893 869 809 761 1709 1414 1197 1896 1819 334 113 0 0 0 107 66 0 0 83 875 176 587 449 0 1 34 27 0 25
127 31 2 64 126 203 283 566 1160 1088 713 1187 763 1403 875 0 313 804 1518 1169 1829 1400 1555 754 357 183 377 617 115 0 62 60 0 743 533 517 202 0 0 0 51 15 10
155 15 5 9 98 174 260 732 853 902 1305 1007 539 786 571 355 117 544 1095 915 1165 1552 1699 1826 1351 418 515 0 438 372 217 0 0 26 556 53 0 0 9 0 26 9 24
133 162 13 0 86 185 292 740 666 774 1110 1071 1078 646 740 675 818 800 1616 1289 1259 1435 1268 1595 1640 559 249 814 824 424 59 203 13 0 40 1 0 1 47 1 0 0 0
0 151 23 3 54 149 200 679 494 529 924 845 956 1078 890 357 456 1035 1134 1390 1195 1309 1257 1559 1556 1677 1809 1789 1727 1656 1802 1636 706 158 136 0 946 98 140 23 4 0 3
110 60 27 27 61 155 281 637 549 677 766 775 750 566 1213 1008 293 620 452 826 1215 1146 1125 1512 1977 2008 1880 1803 1678 1900 2077 1497 1608 1564 1343 1536 1384 808 355 383 320 73 3
85 28 61 9 91 154 416 564 1044 818 635 560 827 860 862 1166 587 634 721 892 703 1180 477 1398 1527 1411 1836 1649 1739 1951 1315 1282 1463 1643 1745 1586 918 820 284 453 103 0 1
38 0 60 30 55 39 354 537 938 599 647 636 922 1020 801 899 853 791 838 1333 1155 686 460 1552 1498 1506 1645 1446 1548 1708 1434 943 1251 1260 1386 1437 1091 930 782 591 204 571 422
115 44 33 48 148 174 175 584 937 642 517 501 920 1140 956 747 823 874 1329 1140 1268 1289 1076 1355 1497 1463 1476 1658 1532 1503 1396 1175 1175 1141 1149 880 1035 1062 449 702 527 586 439
374 317 236 116 105 187 409 692 977 875 659 630 705 669 672 577 945 794 981 893 1050 885 1323 1191 1312 1311 1454 1511 1319 1285 1488 1237 869 734 798 933 937 959 472 648 697 593 423
140 410 310 127 202 253 87 862 978 950 1072 770 548 423 343 249 830 756 777 704 821 1257 1170 1379 1569 1509 1422 1470 1319 1411 1429 970 1098 1251 1240 660 1011 684 839 634 762 652 791
68 160 250 80 59 144 147 63 811 834 818 609 823 657 549 840 747 958 756 763 740 1074 1348 1459 1341 1371 1218 1122 1039 1125 1125 1081 1021 957 808 870 736 673 575 531 376 629 932
69 288 193 166 64 123 215 152 316 754 744 634 742 891 928 784 847 814 1205 1285 1011 725 1155 1262 1318 873 767 986 1029 981 998 1118 964 769 752 676 541 468 680 605 418 608 314
141 199 651 445 329 223 240 239 149 175 459 735 529 842 874 942 1019 960 886 908 910 606 511 928 1101 1164 365 0 39 682 758 639 597 501 575 594 321 39 39 287 310 447 206
46 92 11 170 223 380 274 121 33 0 0 0 692 827 633 846 928 787 810 928 1064 968 1137 929 543 0 0 0 0 0 0 0 309 384 392 354 13 0 0 0 0 0 161
70 9 2 7 114 49 202 44 0 0 8 3 127 788 732 604 718 808 752 915 720 648 553 358 40 0 0 1 0 0 0 0 45 17 35 154 3 0 0 0 0 0 0
2 0 0 0 42 64 81 118 1 0 0 7 239 329 491 441 546 565 567 574 716 463 197 109 0 0 1 0 0 0 0 0 5 0 0 0 0 0 0 0 19 0 0
7 1 1 0 5 2 34 49 115 51 4 333 183 260 200 181 239 256 261 272 223 80 11 1 2 0 0 0 0 0 0 0 0 0 0 0 0 0 0 0 0 13 0
5 1 0 0 0 0 39 44 4 50 51 128 166 51 3 1 1 2 1 2 2 1 1 1 1 0 0 0 0 0 0 0 0 0 0 0 0 0 0 0 0 0 1
0 0 2 1 1 0 53 67 5 2 5 5 2 1 0 0 1 1 1 1 1 1 1 1 1 1 0 0 0 0 0 0 0 1 0 0 0 0 0 0 0 0 0
0 1 1 1 0 1 87 1 0 15 1 13 1 3 1 2 1 0 1 1 0 0 1 1 1 1 1 0 0 0 0 0 0 0 0 0 0 0 0 0 0 0 0
0 0 1 1 1 0 3 0 2 1 1 0 1 2 2 1 1 1 1 1 1 1 1 1 1 1 2 1 0 0 0 0 0 0 0 0 0 0 0 0 0 0 0
0 0 0 0 1 0 0 1 1 2 1 0 0 4 13 3 3 2 1 1 2 2 2 1 1 0 0 0 0 0 0 0 0 0 0 0 0 0 0 0 0 0 0
0 0 0 0 0 0 0 1 1 3 1 4 1 0 0 0 0 0 0 0 1 0 0 1 0 0 0 0 0 0 0 0 0 0 0 0 0 0 0 0 0 0 0
0 0 0 0 0 0 0 0 0 0 0 0 0 0 1 1 0 0 0 0 0 0 0 0 0 0 0 0 0 0 0 0 0 0 0 0 0 0 0 0 0 0 0

GFSMW_con_sbcape_132.txt.gz
CAPE
3 6 31 351 383 315 280 465 615 698 684 974 368 623 112 4 382 285 427 1043 1148 1185 894 0 0 0 0 0 173 226 0 16 289 90 61 35 0 0 0 1 0 90 263
0 16 254 357 305 323 378 357 592 626 389 1068 508 517 565 230 346 367 972 784 641 1193 905 194 0 0 0 0 65 4 0 4 218 242 186 109 182 10 37 44 61 0 189
27 2 155 214 253 274 250 237 567 576 359 1090 688 706 177 7 324 570 751 897 916 1208 667 418 0 12 41 604 33 0 43 48 8 338 416 233 171 0 1 0 7 1 29
58 0 87 122 119 182 267 493 626 638 571 716 681 731 476 133 33 377 830 567 975 884 886 309 234 133 0 21 271 3 90 0 0 0 75 7 3 0 213 0 5 0 6
40 12 54 54 89 101 525 512 640 568 743 600 432 609 369 115 42 250 701 346 528 746 1099 785 207 3 2 67 190 122 46 35 3 0 0 0 0 3 14 0 6 0 0
5 32 17 34 58 72 462 481 513 422 841 828 636 339 314 510 457 224 666 671 513 891 667 972 732 285 241 742 1053 860 562 618 204 0 0 10 174 67 173 49 30 62 18
22 56 73 85 48 98 234 582 465 373 708 740 804 741 566 352 397 531 679 713 531 521 584 882 912 999 1019 930 1163 1038 1218 910 957 1105 822 441 338 287 148 65 179 113 0
0 22 35 11 96 119 136 530 415 378 477 571 612 506 846 699 197 411 271 402 680 565 450 523 1121 1247 1254 1160 918 1261 825 820 855 930 874 1008 805 383 156 290 119 144 0
80 1 39 1 39 108 145 370 412 339 445 533 517 462 488 998 423 470 336 302 447 542 523 646 981 755 1255 986 879 1153 1222 1002 619 729 770 782 784 541 400 67 98 234 220
75 64 70 20 61 138 191 315 554 442 528 467 395 578 527 648 674 501 500 650 754 758 319 717 919 917 1004 1089 752 873 842 841 696 745 617 663 521 649 141 270 189 264 164
200 212 66 75 125 135 195 387 659 610 560 512 506 649 664 558 552 681 842 754 884 917 603 893 951 892 1009 980 1006 999 911 1082 825 450 377 440 495 618 438 328 271 250 89
446 286 256 170 152 235 130 505 603 633 552 534 607 782 835 607 540 637 593 755 711 516 886 740 843 722 879 922 986 825 1293 841 662 743 590 632 481 343 260 167 285 346 435
106 92 191 155 107 299 332 639 694 714 582 462 554 631 678 574 451 628 571 575 484 672 739 809 995 1018 1015 937 929 917 938 689 725 747 567 502 533 425 293 228 176 170 438
288 395 118 136 75 97 419 227 578 564 694 629 518 488 464 460 367 493 617 479 473 559 886 986 985 925 804 738 694 755 865 902 779 671 528 514 429 280 222 315 233 229 225
189 211 206 210 183 65 86 297 313 186 39 87 122 212 375 414 512 555 689 722 663 588 756 827 887 679 573 384 322 471 600 620 482 363 337 466 368 139 51 174 189 166 103
91 98 124 153 167 132 235 173 106 36 58 24 13 0 0 121 626 717 676 601 640 313 332 550 653 459 0 0 0 32 53 11 206 245 199 143 21 0 0 0 0 15 71
31 7 3 44 114 176 169 165 15 0 3 0 59 3 0 0 381 481 395 446 539 405 617 299 0 0 0 1 0 0 0 0 30 0 25 37 0 1 0 0 0 0 0
0 0 0 0 7 1 47 92 0 7 0 0 0 0 0 8 280 304 318 328 148 278 123 11 0 0 1 1 0 0 0 3 0 0 0 0 0 0 0 0 1 0 0
1 0 0 0 0 0 2 9 30 9 1 0 0 0 38 200 235 168 88 53 0 0 1 1 0 0 1 4 0 0 0 0 0 0 0 0 0 0 0 0 0 0 0
0 1 1 0 0 0 1 0 0 1 1 0 0 0 1 111 73 1 1 2 0 0 1 3 1 3 3 1 0 0 0 1 0 0 0 0 0 0 0 0 0 0 0
0 0 0 0 0 0 0 0 1 2 2 3 54 11 6 2 1 2 3 2 3 2 2 1 1 0 0 0 0 0 0 1 2 0 0 0 0 0 0 0 0 0 0
1 0 0 0 0 0 0 1 0 1 1 3 5 2 2 3 1 1 2 3 2 2 2 1 1 2 1 0 0 0 0 0 0 0 0 0 0 0 0 0 0 0 0
0 0 1 0 0 1 1 0 1 1 1 1 1 1 1 1 1 1 1 1 1 1 2 1 1 1 1 0 0 0 0 0 0 0 0 0 0 0 0 0 0 0 0
0 0 0 0 0 1 1 1 1 0 9 4 2 3 2 2 3 3 2 1 2 2 1 0 0 0 0 0 0 0 0 0 0 0 0 0 0 0 0 0 0 0 0
0 0 0 0 0 0 1 1 1 0 0 0 0 0 0 0 0 0 0 0 1 0 0 0 0 0 0 0 0 0 0 0 0 0 0 0 0 0 0 0 0 0 0
0 0 0 0 0 0 2 0 1 1 1 1 1 1 2 1 1 0 0 0 0 0 1 0 0 0 0 0 0 0 0 0 0 0 0 0 0 0 0 0 0 0 0

GFSMW_con_sbcape_135.txt.gz
CAPE
0 83 137 48 73 322 211 0 77 384 105 420 271 394 338 159 178 174 279 417 781 1022 533 40 0 0 0 0 142 132 0 6 169 0 50 0 0 0 0 0 0 50 222
0 9 104 228 266 357 332 92 318 310 390 558 256 438 127 49 123 275 262 635 792 1080 661 62 0 0 0 0 0 15 0 0 84 0 72 25 44 6 0 0 19 16 28
0 16 98 299 352 321 294 257 435 359 393 611 219 268 139 199 273 396 343 835 695 804 1014 233 0 0 18 174 7 0 0 0 0 22 61 0 0 0 0 0 0 0 0
0 1 81 293 363 305 280 301 274 340 192 631 471 534 408 391 185 255 323 640 787 886 686 413 0 58 0 373 140 0 34 0 0 0 0 0 0 0 78 0 0 0 0
0 40 154 250 340 276 242 219 201 249 269 535 498 421 278 111 7 42 346 480 352 776 771 306 134 12 0 0 426 9 6 60 0 0 0 0 0 0 0 0 0 0 0
7 22 126 184 245 251 245 276 360 278 330 304 333 533 288 202 241 27 317 422 303 390 682 587 227 15 0 289 365 390 64 121 11 0 0 0 19 0 3 0 0 0 0
1 0 76 112 119 161 321 353 390 300 391 375 265 234 249 230 210 224 131 360 361 325 526 531 699 367 244 664 943 786 887 728 610 190 171 33 3 82 12 0 0 17 0
0 34 42 52 101 100 276 367 364 330 443 437 445 307 222 190 199 245 225 297 423 339 290 314 733 576 705 691 681 938 703 830 738 659 548 564 490 350 70 28 31 0 0
22 25 32 47 118 140 122 395 340 360 288 529 441 362 450 421 267 157 213 208 294 439 385 349 389 752 661 858 715 726 939 784 598 411 411 557 441 142 141 51 0 3 0
56 0 19 17 88 129 143 186 384 357 262 384 470 394 285 617 432 256 231 277 306 289 457 377 468 674 660 771 621 636 794 630 463 503 453 392 257 348 122 29 0 7 7
146 147 47 66 57 125 131 145 343 328 299 280 307 374 268 282 548 285 247 259 350 551 557 358 506 700 635 735 861 697 628 670 570 475 345 344 222 302 171 23 12 47 0
313 235 127 127 93 69 46 111 247 356 308 188 254 259 291 277 338 440 347 467 553 503 639 452 587 635 495 565 677 771 1082 804 803 622 483 343 451 409 124 96 63 121 47
130 256 182 199 259 344 141 136 318 459 416 374 348 348 382 383 311 336 376 479 543 453 477 501 589 512 462 633 668 728 703 807 710 625 595 573 322 306 210 118 109 21 152
323 114 174 57 81 231 367 432 637 811 534 433 408 400 433 481 369 231 334 353 367 385 435 465 544 686 690 737 686 728 506 618 662 692 625 515 407 347 178 122 129 39 87
307 324 272 141 79 38 135 367 502 799 700 489 367 390 228 322 334 157 287 349 288 278 310 482 515 596 652 524 527 588 645 584 619 488 309 306 299 258 102 140 134 119 116
120 126 147 90 119 203 163 40 245 384 554 501 320 70 24 100 147 147 161 268 341 318 283 321 463 405 339 0 0 150 286 300 289 269 174 113 0 0 0 0 0 0 92
47 0 0 1 0 12 69 152 115 74 143 301 209 9 2 0 15 117 168 227 289 272 188 182 236 133 0 0 0 0 0 0 20 0 60 68 0 0 0 0 0 0 0
0 0 0 0 0 0 0 6 33 11 38 97 102 33 0 0 0 0 19 110 138 140 82 33 0 1 1 0 0 0 0 0 0 0 0 0 0 0 0 0 0 0 0
0 0 0 0 0 0 0 1 2 18 7 21 2 7 18 0 0 6 39 104 0 1 0 1 1 0 1 2 0 0 0 0 0 0 0 0 0 0 0 0 0 0 0
0 0 0 0 0 0 0 0 0 1 4 6 1 0 0 0 1 99 91 5 21 0 0 1 0 1 4 4 3 1 1 0 0 0 0 0 0 0 0 0 0 0 0
0 0 0 0 0 0 1 0 1 1 6 3 1 0 0 2 1 1 0 0 1 1 1 1 2 1 1 2 0 0 1 0 0 0 0 0 0 0 0 0 0 0 0
0 0 0 0 0 0 0 1 0 1 1 5 1 2 0 1 2 0 2 3 1 4 3 1 1 2 3 1 0 0 0 0 0 0 0 0 0 0 0 0 0 0 0
0 0 0 0 0 0 0 0 1 0 0 1 1 5 3 2 1 2 1 1 2 3 3 3 1 3 3 1 0 0 0 0 0 0 0 0 0 0 0 0 0 0 0
0 0 0 1 0 0 1 0 1 0 1 1 1 0 0 1 4 2 2 2 2 2 1 1 1 1 3 2 0 0 0 0 0 0 0 0 0 0 0 0 0 0 0
0 0 0 0 1 1 1 1 1 0 0 1 0 1 0 0 0 0 0 0 0 0 0 1 0 0 0 0 0 0 0 0 0 0 0 0 0 0 0 0 0 0 0
0 0 0 0 1 2 1 2 0 0 0 0 1 1 1 0 0 0 0 0 1 0 0 0 0 0 0 0 0 0 0 0 0 0 0 0 0 0 0 0 0 0 0

GFSMW_con_sbcape_141.txt.gz
CAPE
99 157 217 263 255 302 377 604 822 1102 999 768 721 1017 995 1107 949 1286 1384 1477 1840 1989 2162 1622 1538 1369 1384 1174 1164 1336 641 1070 1225 1084 999 862 727 706 688 675 620 530 347
67 50 105 211 212 306 321 551 880 1167 895 866 686 675 1048 1056 1107 1310 1468 1376 1511 1910 2038 1997 1448 1081 670 796 1218 1495 735 602 1157 1097 1279 967 926 901 636 511 506 543 336
140 104 138 222 210 254 366 578 825 967 1020 877 637 1096 1232 1166 1187 1369 1327 1419 1493 1798 2276 1980 1421 910 527 561 1067 939 644 500 644 896 894 608 431 543 432 417 244 327 377
184 98 295 286 223 262 414 543 651 911 1020 996 824 966 1107 1146 1191 1286 1350 1357 1541 1774 1885 2138 1632 1056 603 1055 1106 1078 785 820 638 568 276 506 491 473 314 758 455 749 851
220 137 259 335 336 331 443 606 596 826 1128 1081 1224 1115 1299 1227 1355 1151 1404 1502 1773 1966 1720 2094 1900 1280 869 927 1712 408 1314 964 1060 179 344 319 423 627 991 486 593 811 974
274 152 134 287 419 410 490 652 800 966 1167 1180 1261 1431 1474 1540 1273 1334 1160 1262 1411 1679 2043 2101 2158 1725 1325 644 970 1297 1616 1314 1412 572 378 949 1090 1093 1194 1098 854 803 824
265 219 179 108 415 410 536 688 963 1109 1106 1081 1161 1467 1485 1604 1605 1917 1330 1384 1331 1271 1572 2155 2439 1928 1738 1198 1008 2117 2320 1790 1882 2116 1482 1309 1416 1375 1362 1274 730 831 549
269 283 297 345 618 634 691 746 913 1160 1115 1172 1317 1644 1581 1381 1251 1364 1242 1288 1275 1322 1652 1921 2191 2280 2105 1792 1822 2084 2284 2148 2596 2209 2246 1621 1670 1571 1717 1508 1279 660 473
303 369 329 431 597 518 775 919 983 1102 1104 1077 1345 1551 1627 1540 1292 1463 1420 1080 1281 1066 1637 1592 1914 2022 2146 2121 2056 1924 2545 2197 2226 1994 2084 1931 1514 1774 2216 1731 1471 1112 699
439 437 437 470 617 689 784 603 759 1063 1105 1027 1106 1176 1243 1406 1493 1561 1520 1296 1244 1543 1323 1481 1489 1720 1764 1976 2099 1702 1860 2201 2113 1783 2062 2103 1602 1618 1783 1788 2065 1309 1226
815 566 605 639 700 759 720 831 740 933 1052 1085 1124 1131 1123 1117 1199 1299 1431 1460 1443 1604 1586 1625 1628 1614 1742 1888 2187 2062 1713 2073 2188 2184 2061 2040 2068 1540 1395 2099 2081 2396 2049
925 830 681 740 705 816 808 695 824 781 911 1081 1384 1177 1195 1247 1152 1366 1441 1530 1479 1440 1580 1696 1732 1781 1767 2027 2137 1839 1568 2067 1992 2078 2076 2084 2059 2016 2215 2724 2071 1438 1987
892 897 862 744 755 756 867 787 767 654 676 995 601 999 1008 1188 1234 1280 1454 1560 1576 1617 1430 1467 1739 1904 2015 1909 2015 2016 2061 1929 2037 1894 1823 1857 1942 2126 2290 2107 2154 2132 1437
849 981 878 849 795 808 864 833 793 783 693 989 1069 1006 957 1083 1113 1669 1739 1484 1671 1596 1599 1625 1568 1666 1932 1849 1997 1813 1930 1902 1640 2023 2102 1899 1729 1725 1020 1564 1794 1645 1613
856 894 898 852 774 751 736 942 1098 880 749 857 1028 1351 1254 909 1180 1129 1262 1202 1324 1555 1793 1993 1645 1718 2141 1714 1771 1931 1925 1878 1805 1842 1739 1667 750 481 255 1442 1575 1611 1348
777 717 580 226 86 158 317 713 778 886 1338 967 1005 1263 1396 1070 1130 1429 1303 1118 1088 1266 1309 1422 1517 2082 1894 1086 540 843 1534 1910 1957 1754 1620 862 125 5 0 0 0 0 409
757 629 294 37 83 7 2 23 54 354 467 895 1069 1316 1433 1380 1604 1398 1428 1164 1157 1232 1272 1329 1457 1692 2244 497 285 168 1803 2034 1698 1528 1429 561 0 0 246 3 0 0 0
553 251 171 36 3 4 36 88 148 193 253 290 338 409 550 1003 1298 1459 1319 1193 1063 1054 1173 1230 1593 1480 1887 0 0 0 1379 1189 592 457 325 75 0 0 0 122 134 0 0
215 56 7 4 4 6 2 2 67 45 13 5 5 7 36 266 563 790 1236 1395 1008 1135 1135 1031 1591 1402 390 1 1 0 646 61 8 3 0 0 0 0 0 0 25 4 0
0 2 1 2 2 3 3 2 1 9 3 5 6 10 13 10 12 336 257 512 958 1082 1084 1008 1099 760 5 1 1 0 8 10 7 1 0 0 0 0 0 0 0 0 0
2 1 0 2 2 2 6 6 17 18 11 5 12 12 10 9 14 11 127 180 165 116 11 2 7 7 7 3 1 0 11 10 10 5 0 0 0 0 0 0 0 0 0
1 0 0 2 2 0 14 91 31 20 5 9 9 9 6 7 4 13 45 25 5 3 1 1 5 4 5 1 1 0 1 1 1 0 0 0 0 0 0 0 0 0 0
6 2 0 3 2 0 69 146 49 58 48 11 6 6 4 2 2 8 9 3 1 1 2 1 1 2 2 1 0 1 0 0 2 4 0 0 0 0 0 0 0 0 0
3 1 1 2 10 5 42 240 98 115 145 7 4 4 7 2 0 1 3 1 1 1 1 1 2 2 1 1 1 1 1 0 1 0 0 0 0 0 0 0 0 0 0
0 0 4 6 6 7 35 96 48 123 158 6 6 4 7 6 2 1 0 1 0 1 3 5 3 2 1 0 0 0 0 0 0 0 0 0 0 0 0 0 0 0 0
0 2 3 4 4 6 9 49 123 89 39 2 2 4 2 4 3 0 0 0 0 0 1 1 0 0 0 0 0 0 0 0 0 0 0 0 0 0 0 0 0 0 0